     2              OBSERVATION DATA    GPS                 RINEX VERSION / TYPE
teqc 2000Feb29 Duncan Agnew 20031030 00:39:20UTC            PGM / RUN BY / DATE
                                                            COMMENT
L2: 1 -> 1; 150 -> 5; 250 -> 9                              COMMENT
L2: 1 -> 1; 150 -> 5; 250 -> 9                              COMMENT
L2: 1 -> 1; 150 -> 5; 250 -> 9                              COMMENT
L2: 1 -> 1; 150 -> 5; 250 -> 9                              COMMENT
L2: 1 -> 1; 150 -> 5; 250 -> 9                              COMMENT
Original Marker Name: BRYN                                  COMMENT
Campaign Name: CSUSB 2002-2003                              COMMENT
4-Character Station Name: BRYN                              COMMENT
6-Character Antenna Code: DMRCHT                            COMMENT
Vertical Measurement Point: BPA                             COMMENT
Vertical Offset to Rinex Ref. Point: 0.0000                 COMMENT
Radial Measurement Point: RRP                               COMMENT
Radial Offset to Rinex Ref. Point: 0.0000                   COMMENT
Antenna Height from Field Measurement: 1.5000 m             COMMENT
Additional Antenna Identification Info.:                    COMMENT
Turborogue and Ashtech Choke Ring                           COMMENT
Original XYZ: 0.0000 0.0000 0.0000                          COMMENT
New XYZ position is based on association with SCEC monument COMMENT
E1D0R8V2+0011. Position of that monument is believed to be  COMMENT
valid to within 1 m horizontally; vertical accuracy         COMMENT
should be no worse than 3-times this value.                 COMMENT
                                                            COMMENT
Revised Rinex header created by UCSD GPS archive for        COMMENT
GSAC on 09-Nov-2004 (2004:314) 22:42:56 GMT                 COMMENT
For assistance contact dagnew@ucsd.edu                      COMMENT
or anderson@python.ucsd.edu                                 COMMENT
                                                            COMMENT
BRYN 1928 1983                                              MARKER NAME
JAR CAL STATE SAN BERNARDINO                                OBSERVER / AGENCY
2402 ASHTECH Z-XII3 CD00                                    REC # / TYPE / VERS
2409 DORNE-MARGOL. TYPE T                                   ANT # / TYPE
 -2423235.0000 -4701864.0000  3552417.0000                  APPROX POSITION XYZ
        1.5000        0.0000        0.0000                  ANTENNA: DELTA H/E/N
     1     1     0                                          WAVELENGTH FACT L1/2
     7    C1    L1    L2    P1    P2    S1    S2            # / TYPES OF OBSERV
     0                                                      INTERVAL
  2002     7     1    15    32    0.000000                  TIME OF FIRST OBS
  2002     7     1    23    58   30.000000                  TIME OF LAST OBS
                                                            END OF HEADER
 02  7  1 15 32  0.0000000  0  7G17G23G 6G 5G30G10G15
  21889573.559     -103441.70149    -74106.84446  21889572.244    21889579.279
       232.000         185.000
  20653471.074       10298.34549      7526.97147  20653470.380    20653476.051
       245.000         209.000
  20495404.509      -65301.32849    -46223.94447  20495404.147    20495409.696
       242.000         207.000
                    299329.32249    214263.57843
       219.000          74.000
  21951670.148      246709.72949    179494.45246  21951669.995    21951674.463
       225.000         164.000
                    209922.88449    142220.07843
       234.000          74.000
  22606841.012     -152600.40849   -110485.93446  22606840.300    22606847.531
       226.000         172.000
 02  7  1 15 32 30.0000000  0  8G17G23G 6G 5G30G29G10G15
  21882374.677     -141277.59149   -103589.32446  21882372.399    21882380.102
       233.000         185.000
  20654482.820       15613.27249     11668.46847  20654481.760    20654487.114
       245.000         210.000
  20491334.124      -86693.19149    -62892.92047  20491333.805    20491339.408
       244.000         207.000
                    411048.00949     35570.99143
       221.000          74.000
  21969500.297      340411.09649    252508.42246  21969499.102    21969504.547
       218.000         166.000
  23305860.990     -152964.33649   -111567.38746  23305861.758    23305868.408
       223.000         168.000
                    298805.44549       617.39643
       235.000          74.000
  22596060.414     -209270.51149   -154644.40146  22596057.515    22596063.187
       226.000         173.000
 02  7  1 15 33  0.0000000  0  8G17G23G 6G 5G30G29G10G15
  21816985.566     -484895.11049   -371343.21946  21816985.325    21816991.204
       235.000         185.000
  20597372.390     -284502.32149   -222187.84347  20597371.566    20597377.272
       246.000         211.000
  20429109.401     -413687.69849   -317693.82647  20429108.822    20429114.190
       245.000         208.000
                    216832.46849   -115765.99345                  23987464.710
       221.000         145.000
  21929163.848      128454.61249     87347.48546  21929165.235    21929170.982
       216.000         163.000
  23238309.482     -507946.71149   -388176.96746  23238308.534    23238317.587
       220.000         167.000
  22108066.796       82079.33349   -168259.91446  22108065.095    22108071.313
       237.000         183.000
  22527087.444     -571719.94849   -437072.50246  22527085.014    22527091.518
       223.000         171.000
 02  7  1 15 33 30.0000000  0  8G17G23G 6G 5G30G29G10G15
  21808575.308     -529091.57049   -405781.98646  21808573.988    21808580.883
       233.000         186.000
  20597306.871     -284846.61749   -222456.13147  20597305.972    20597311.848
       246.000         211.000
  20423896.814     -441080.32049   -339038.70947  20423896.301    20423901.712
       245.000         208.000
  24007448.149      321881.34549    -33909.84645  24007447.940    24007455.444
       222.000         158.000
  21945831.253      216038.78849    155594.83146  21945833.276    21945837.229
       224.000         164.000
  23227764.126     -563358.54049   -431354.98346  23227763.784    23227772.714
       221.000         166.000
  22123835.111      164943.43249   -103690.54947  22123834.088    22123840.550
       237.000         190.000
  22515093.220     -634745.44049   -486183.23546  22515091.487    22515098.463
       224.000         170.000
 02  7  1 15 34  0.0000000  0  8G17G23G 6G 5G30G29G10G15
  21800197.622     -573115.85649   -440086.60746  21800196.738    21800203.272
       235.000         187.000
  20597340.740     -284668.84249   -222317.60547  20597340.028    20597345.631
       246.000         212.000
  20418751.717     -468117.94049   -360106.97447  20418751.263    20418756.667
       245.000         209.000
  24027441.086      426944.14649     47957.13245  24027441.338    24027449.220
       222.000         161.000
  21962553.947      303912.88249    224068.09646  21962555.129    21962559.995
       222.000         165.000
  23217281.544     -618446.01949   -474280.25146  23217281.151    23217290.867
       222.000         168.000
  22139668.222      248147.19649    -38856.50347  22139666.938    22139673.267
       238.000         192.000
  22503133.063     -697595.90549   -535157.55946  22503131.266    22503138.294
       222.000         168.000
 02  7  1 15 34 30.0000000  0  8G17G23G 6G 5G30G29G10G15
  21791853.237     -616966.28349   -474255.73247  21791852.974    21791859.352
       236.000         188.000
  20597474.241     -283967.40849   -221771.02947  20597473.496    20597479.316
       246.000         212.000
  20413674.970     -494796.60849   -380895.52947  20413674.517    20413679.664
       245.000         210.000
  24047436.618      532020.54849    129834.69245  24047435.637    24047444.386
       219.000         161.000
  21979331.000      392076.13549    292766.68346  21979330.856    21979335.904
       221.000         164.000
  23206861.440     -673204.19249   -516948.92146  23206862.194    23206869.500
       224.000         168.000
  22155565.851      331689.81349     26241.58247  22155564.932    22155571.241
       238.000         192.000
  22491206.439     -760269.15549   -583993.78846  22491204.803    22491211.529
       221.000         168.000
 02  7  1 15 35  0.0000000  0  8G17G23G 6G 5G30G29G10G15
  21783541.652     -660644.85349   -508290.96047  21783541.558    21783547.387
       237.000         189.000
  20597706.979     -282744.79749   -220818.34648  20597705.985    20597711.993
       246.000         213.000
  20408666.525     -521116.32349   -401404.38047  20408666.154    20408671.466
       245.000         210.000
  24067433.689      637106.07549    211719.34445  24067433.293    24067442.014
       218.000         160.000
  21996161.895      480523.79549    361686.88446  21996162.134    21996167.348
       221.000         163.000
  23196504.566     -727632.20049   -559360.34346  23196504.814    23196511.661
       224.000         168.000
  22171527.067      415566.64049     91600.09947  22171525.852    22171532.772
       237.000         191.000
  22479313.111     -822766.88949   -632693.30446  22479313.145    22479319.669
       221.000         167.000
 02  7  1 15 35 30.0000000  0  9G17G23G18G 6G 5G30G29G10G15
  21775262.831     -704151.37849   -542192.13047  21775261.620    21775268.352
       235.000         190.000
  20598038.702     -281001.35049   -219459.81448  20598037.885    20598043.560
       247.000         213.000
                   -640308.39449   -478997.55344                  23246377.237
       206.000         121.000
  20403726.784     -547075.08049   -421631.97247  20403726.174    20403731.671
       244.000         210.000
  24087431.960      742198.76549    293609.62745  24087431.368    24087439.293
       218.000         158.000
  22013046.619      569253.40649    430826.73846  22013047.344    22013051.418
       223.000         163.000
  23186210.821     -781726.98949   -601512.07846  23186210.660    23186216.544
       224.000         167.000
  22187551.370      499775.48049    157217.32747  22187550.029    22187556.884
       235.000         189.000
  22467453.588     -885089.01449   -681255.95746  22467453.356    22467459.817
       222.000         166.000
 02  7  1 15 36  0.0000000  0  9G17G23G18G 6G 5G30G29G10G15
  21767016.772     -747484.73849   -575958.37947  21767016.248    21767022.880
       235.000         191.000
  20598469.823     -278736.11149   -217694.68748  20598468.897    20598474.512
       247.000         214.000
  23226987.963     -742178.80749   -558376.99845  23226986.122    23226991.238
       209.000         134.000
  20398856.353     -572669.46349   -441575.62347  20398855.656    20398861.561
       243.000         209.000
  24107431.594      847297.53949    375504.66245  24107430.583    24107438.780
       216.000         156.000
  22029985.099      658263.51949    500185.18946  22029986.398    22029992.522
       221.000         165.000
  23175981.022     -835484.25949   -643400.79746  23175980.992    23175987.606
       224.000         165.000
  22203638.647      584315.12949    223092.33946  22203637.402    22203643.970
       234.000         187.000
  22455627.843     -947233.90949   -729680.50646  22455626.453    22455632.923
       222.000         166.000
 02  7  1 15 36 30.0000000  0  9G17G23G18G 6G 5G30G29G10G15
  21758803.526     -790645.29649   -609589.97847  21758802.744    21758809.810
       236.000         191.000
  20598999.971     -275949.89949   -215523.61348  20598999.050    20599004.630
       248.000         214.000
  23207643.510     -843837.54449   -637591.55145  23207640.215    23207646.645
       203.000         137.000
  20394055.596     -597897.87749   -461234.10947  20394055.049    20394060.277
       243.000         209.000
  24127431.721      952399.94349    457402.49645  24127431.956    24127440.851
       220.000         158.000
  22046976.152      747551.26749    569760.00546  22046976.266    22046982.113
       221.000         164.000
  23165816.145     -888901.41249   -685024.46746  23165816.049    23165822.822
       226.000         164.000
  22219788.332      669182.52149    289222.73646  22219786.652    22219793.687
       232.000         184.000
  22443835.572    -1009201.70149   -777967.02946  22443833.637    22443840.658
       225.000         166.000
 02  7  1 15 37  0.0000000  0  9G17G23G18G 6G 5G30G29G10G15
  21750622.917     -833634.62049   -643088.14447  21750621.978    21750628.517
       233.000         191.000
  20599628.933     -272644.87649   -212948.26748  20599628.074    20599633.573
       247.000         215.000
  23188336.724     -945283.64449   -716640.47345  23188331.992    23188338.460
       196.000         132.000
  20389324.490     -622759.91149   -480607.10847  20389323.695    20389329.403
       241.000         208.000
  24147432.468     1057501.94749    539299.97945  24147432.910    24147440.311
       223.000         162.000
  22064018.959      837112.37749    639547.83446  22064018.448    22064023.966
       221.000         163.000
  23155716.521     -941977.12949   -726382.09346  23155717.031    23155723.072
       227.000         167.000
  22235999.803      754373.83449    355605.52146  22235998.768    22236005.796
       230.000         182.000
  22432076.741    -1070993.85049   -826116.70646  22432074.788    22432082.119
       224.000         166.000
 02  7  1 15 37 30.0000000  0  9G17G23G18G 6G 5G30G29G10G15
  21742474.920     -876452.16749   -676452.46147  21742474.698    21742481.298
       234.000         190.000
  20600356.661     -268820.75649   -209968.43248  20600355.970    20600361.466
       248.000         215.000
  23169071.987    -1046514.50748   -795521.63244  23169068.797    23169078.390
       189.000         127.000
  20384663.519     -647252.92249   -499692.55247  20384663.031    20384668.221
       241.000         208.000
  24167432.932     1162601.78349    621195.78446  24167433.744    24167441.057
       224.000         165.000
  22081113.490      926944.65949    709546.96645  22081113.723    22081118.622
       219.000         162.000
  23145682.492     -994707.79149   -767470.84646  23145682.827    23145688.340
       225.000         166.000
  22252272.470      839887.13549    422239.22946  22252271.833    22252278.016
       229.000         181.000
  22420351.641    -1132609.34349   -874128.75446  22420349.995    22420358.245
       226.000         169.000
 02  7  1 15 38  0.0000000  0  9G17G23G18G 6G 5G30G29G10G15
  21734360.033     -919097.08249   -709682.25147  21734358.177    21734365.515
       230.000         189.000
  20601183.273     -264477.30549   -206583.92248  20601182.558    20601187.931
       247.000         216.000
  23149849.763    -1147526.46848   -874232.12644  23149849.703    23149855.193
       193.000         124.000
  20380073.384     -671374.22849   -518488.36147  20380072.819    20380078.359
       241.000         207.000
  24187432.527     1267697.95949    703088.73946  24187432.149    24187440.901
       225.000         164.000
  22098259.585     1017046.45849    779756.07645  22098259.573    22098264.752
       218.000         160.000
  23135714.626    -1047089.89949   -808287.99946  23135715.028    23135720.330
       225.000         165.000
  22268606.142      925720.69849    489122.47746  22268604.916    22268611.460
       229.000         179.000
  22408660.283    -1194047.13549   -922002.34146  22408659.348    22408666.667
       229.000         171.000
 02  7  1 15 38 30.0000000  0  9G17G23G18G 6G 5G30G29G10G15
  21726277.707     -961569.78149   -742777.85447  21726277.031    21726284.163
       232.000         190.000
  20602108.499     -259615.34049   -202795.38248  20602107.598    20602113.099
       247.000         216.000
  23130669.538    -1248317.49349   -952770.51044  23130668.891    23130675.612
       196.000         126.000
  20375554.220     -695122.11749   -536993.20247  20375553.838    20375559.372
       241.000         207.000
  24207430.659     1372788.05749    784976.97245  24207430.764    24207437.862
       225.000         161.000
  22115455.847     1107414.75249    850172.86545  22115455.819    22115460.948
       216.000         159.000
  23125813.524    -1099120.48649   -848831.22346  23125811.534    23125817.922
       223.000         163.000
  22285000.117     1011871.75149    556253.12946  22284999.006    22285005.688
       229.000         179.000
  22397003.005    -1255307.48149   -969737.63246  22397003.147    22397008.901
       233.000         173.000
 02  7  1 15 39  0.0000000  0  9G17G23G18G 6G 5G30G29G10G15
  21718227.776    -1003872.10049   -775740.68147  21718226.854    21718233.465
       233.000         190.000
  20603131.959     -254237.08249   -198604.52548  20603130.909    20603136.249
       247.000         215.000
  23111532.379    -1348886.81149  -1031136.20545  23111534.548    23111537.884
       206.000         134.000
  20371106.326     -718496.37049   -555206.90147  20371105.847    20371111.248
       241.000         207.000
  24227426.840     1477868.02949    866857.28245  24227426.921    24227433.663
       222.000         159.000
  22132702.019     1198045.24249    920794.00245  22132701.200    22132708.126
       217.000         157.000
  23115979.199    -1150798.59249   -889099.79845  23115978.101    23115985.431
       221.000         161.000
  22301453.650     1098335.85449    623627.71846  22301452.845    22301459.460
       230.000         181.000
  22385379.357    -1316391.79449  -1017335.75046  22385378.635    22385385.624
       233.000         174.000
 02  7  1 15 39 30.0000000  0  9G17G23G18G 6G 5G30G29G10G15
  21710210.558    -1046003.92049   -808570.65447  21710209.115    21710216.152
       233.000         191.000
  20604253.488     -248343.16349   -194011.86148  20604252.433    20604258.085
       246.000         215.000
  23092437.769    -1449232.27449  -1109327.43645  23092437.498    23092442.897
       208.000         139.000
  20366729.824     -741494.92649   -573127.85747  20366729.417    20366735.191
       242.000         207.000
  24247420.496     1582935.66549    948727.99345  24247419.361    24247428.490
       220.000         159.000
  22149997.806     1288935.10749    991617.22245  22149998.985    22150003.794
       218.000         156.000
  23106212.302    -1202121.30449   -929091.44245  23106210.353    23106217.772
       218.000         160.000
  22317966.500     1185110.62149    691244.37646  22317965.324    22317971.971
       231.000         182.000
  22373788.930    -1377299.98349  -1064796.63946  22373787.789    22373795.723
       233.000         175.000
 02  7  1 15 40  0.0000000  0  9G17G23G18G 6G 5G30G29G10G15
  21702225.760    -1087963.59049   -841266.49247  21702225.162    21702231.147
       233.000         191.000
  20605473.348     -241932.41249   -189016.46848  20605472.198    20605478.291
       245.000         214.000
  23073385.948    -1549349.48449  -1187340.79445  23073384.728    23073389.704
       204.000         137.000
  20362425.602     -764114.10649   -590753.19647  20362425.266    20362430.305
       242.000         207.000
  24267411.677     1687990.43049   1030588.67345  24267410.931    24267420.157
       216.000         158.000
  22167342.925     1380083.40449   1062641.77645  22167342.458    22167347.576
       214.000         154.000
  23096514.188    -1253083.88649   -968802.49645  23096513.387    23096520.554
       221.000         162.000
  22334538.204     1272195.39549    759102.59446  22334536.592    22334544.682
       231.000         183.000
  22362232.183    -1438029.99449  -1112118.70046  22362230.580    22362239.041
       231.000         176.000
 02  7  1 15 40 30.0000000  0  9G17G23G18G 6G 5G30G29G10G15
  21694273.419    -1129753.87949   -873830.34847  21694272.897    21694278.659
       236.000         191.000
  20606790.963     -235008.14649   -183620.94048  20606789.936    20606795.785
       244.000         214.000
  23054377.168    -1649238.71849  -1265176.53145  23054375.488    23054381.569
       204.000         135.000
  20358193.398     -786354.61549   -608083.47647  20358192.976    20358198.573
       242.000         206.000
  24287399.527     1793027.51249   1112435.58345  24287397.375    24287409.648
       212.000         158.000
  22184735.672     1471484.92349   1133863.67745  22184735.097    22184741.199
       215.000         154.000
  23086884.884    -1303686.30849  -1008232.89646  23086885.732    23086891.832
       223.000         165.000
  22351167.849     1359585.07149    827198.38946  22351167.309    22351173.991
       232.000         184.000
  22350708.984    -1498584.28049  -1159303.83346  22350707.517    22350714.872
       232.000         177.000
 02  7  1 15 41  0.0000000  0  9G17G23G18G 6G 5G30G29G10G15
  21686353.490    -1171374.11749   -906261.69247  21686352.591    21686358.519
       236.000         192.000
  20608206.221     -227570.41249   -177825.30548  20608205.526    20608211.148
       244.000         214.000
  23035413.115    -1748897.25249  -1342832.45045  23035413.435    23035418.099
       209.000         136.000
  20354033.749     -808214.03149   -625116.80047  20354033.356    20354038.622
       242.000         207.000
  24307383.511     1898045.10249   1194267.32045  24307383.189    24307393.259
       211.000         159.000
  22202176.778     1563137.63049   1205281.27945  22202176.903    22202183.185
       215.000         154.000
  23077324.965    -1353925.07149  -1047379.92346  23077326.819    23077333.117
       227.000         170.000
  22367855.340     1447277.40849    895530.02946  22367854.716    22367861.561
       234.000         184.000
  22339219.322    -1558962.18349  -1206351.55346  22339219.020    22339225.196
       234.000         176.000
 02  7  1 15 41 30.0000000  0  9G17G23G18G 6G 5G30G29G10G15
  21678465.426    -1212825.87749   -938561.74447  21678464.601    21678471.078
       237.000         193.000
  20609718.899     -219621.33549   -171631.22148  20609718.519    20609723.935
       245.000         214.000
  23016493.395    -1848324.02549  -1420307.78145  23016496.891    23016498.857
       212.000         137.000
  20349946.647     -829691.85449   -641852.78047  20349946.165    20349951.324
       242.000         207.000
  24327363.369     2003039.61849   1276081.08045  24327363.397    24327372.651
       211.000         157.000
  22219664.887     1655037.21649   1276891.26445  22219665.026    22219670.512
       215.000         155.000
  23067834.726    -1403798.77249  -1086242.48146  23067834.670    23067842.487
       225.000         171.000
  22384599.711     1535268.88449    964094.76146  22384598.275    22384605.517
       232.000         183.000
  22327763.369    -1619164.89749  -1253262.73846  22327760.743    22327768.659
       230.000         175.000
 02  7  1 15 42  0.0000000  0  9G17G23G18G 6G 5G30G29G10G15
  21670609.464    -1254108.80349   -970730.23847  21670608.600    21670615.185
       237.000         193.000
  20611328.963     -211160.88649   -165038.65348  20611328.134    20611333.981
       244.000         214.000
  22997618.135    -1947516.24049  -1497600.38545  22997616.381    22997621.900
       212.000         136.000
  20345932.635     -850785.66749   -658289.51447  20345931.974    20345937.476
       242.000         207.000
  24347338.653     2108009.22049   1357875.39645  24347337.339    24347349.346
       206.000         152.000
  22237199.653     1747181.50649   1348691.91945  22237199.857    22237205.285
       215.000         155.000
  23058414.189    -1453304.38949  -1124818.23546  23058414.382    23058422.736
       224.000         170.000
  22401400.598     1623557.30949   1032890.88046  22401399.604    22401405.988
       234.000         182.000
  22316340.516    -1679191.62349  -1300036.78646  22316338.770    22316346.107
       231.000         175.000
 02  7  1 15 42 30.0000000  0  9G17G23G18G 6G 5G30G29G10G15
  21662785.951    -1295222.26149  -1002766.69547  21662785.755    21662791.211
       238.000         193.000
  20613036.156     -202189.37149   -158047.86148  20613035.423    20613041.161
       243.000         213.000
  22978787.428    -2046470.82649  -1574707.81445  22978785.398    22978793.328
       207.000         136.000
  20341992.103     -871493.16049   -674425.22747  20341991.502    20341997.261
       243.000         208.000
  24367308.387     2212952.37949   1439649.12245  24367309.123    24367318.354
       204.000         146.000
  22254780.306     1839568.41549   1420681.65445  22254780.136    22254786.281
       212.000         155.000
  23049064.483    -1502438.40649  -1163104.39646  23049063.256    23049070.773
       223.000         167.000
  22418257.738     1712140.94249   1101917.03446  22418256.514    22418263.270
       232.000         181.000
  22304951.394    -1739041.74449  -1346673.21946  22304950.344    22304957.404
       233.000         177.000
 02  7  1 15 43  0.0000000  0  9G17G23G18G 6G 5G30G29G10G15
  21654994.420    -1336167.32349  -1034671.93047  21654993.580    21654999.966
       238.000         193.000
  20614840.280     -192708.57949   -150660.23347  20614839.604    20614845.372
       242.000         212.000
  22960002.264    -2145186.41749  -1651629.04745  22960002.771    22960005.744
       210.000         138.000
  20338125.316     -891813.43049   -690259.20447  20338124.599    20338130.214
       245.000         209.000
  24387272.350     2317865.62249   1521399.51045  24387272.243    24387283.009
       207.000         144.000
  22272406.204     1932194.06049   1492857.41145  22272406.344    22272412.694
       214.000         156.000
  23039785.466    -1551198.95749  -1201099.58046  23039784.589    23039790.799
       223.000         164.000
  22435169.986     1801015.87649   1171170.17846  22435168.706    22435175.074
       230.000         179.000
  22293595.676    -1798716.18649  -1393172.76446  22293594.716    22293602.073
       234.000         180.000
 02  7  1 15 43 30.0000000  0  9G17G23G18G 6G 5G30G29G10G15
  21647234.958    -1376943.65649  -1066445.69047  21647234.082    21647240.577
       239.000         194.000
  20616741.327     -182718.89849   -142876.06747  20616740.528    20616746.318
       242.000         212.000
  22941263.280    -2243660.85049  -1728362.27945  22941263.524    22941268.614
       213.000         140.000
  20334332.631     -911743.99949   -705789.52447  20334332.375    20334337.762
       246.000         210.000
  24407230.845     2422747.11949   1603125.16345  24407231.375    24407240.618
       210.000         145.000
  22290077.474     2025056.32349   1565217.53345  22290077.191    22290083.130
       213.000         155.000
  23030578.288    -1599583.05349  -1238801.39646  23030578.322    23030583.479
       225.000         164.000
  22452137.295     1890179.94549   1240648.62446  22452136.509    22452143.074
       231.000         179.000
  22282273.717    -1858214.03649  -1439534.71546  22282273.203    22282279.435
       234.000         181.000
 02  7  1 15 44  0.0000000  0  9G17G23G18G 6G 5G30G29G10G15
  21639507.432    -1417552.37449  -1098088.82547  21639506.871    21639512.455
       239.000         194.000
  20618738.729     -172222.41649   -134696.99247  20618738.135    20618743.711
       241.000         211.000
  22922570.675    -2341892.55849  -1804906.40245  22922570.415    22922575.795
       212.000         143.000
  20330614.360     -931284.19549   -721015.64747  20330613.929    20330619.090
       247.000         211.000
  24427182.564     2527593.36349   1684823.35045  24427182.563    24427192.198
       215.000         147.000
  22307792.880     2118151.14349   1637758.88445  22307791.417    22307798.145
       213.000         153.000
  23021443.175    -1647589.05949  -1276208.62146  23021442.657    23021447.196
       225.000         165.000
  22469159.136     1979629.50549   1310349.55146  22469158.185    22469164.939
       231.000         180.000
  22270985.053    -1917536.54649  -1485760.00946  22270984.698    22270990.900
       233.000         180.000
 02  7  1 15 44 30.0000000  0  9G17G23G18G 6G 5G30G29G10G15
  21631811.691    -1457994.55249  -1129602.19747  21631811.139    21631816.668
       239.000         194.000
  20620832.335     -161220.67849   -126124.19747  20620831.346    20620837.526
       240.000         210.000
  22903924.349    -2439880.05849  -1881260.21345  22903924.223    22903929.290
       213.000         145.000
  20326970.522     -950433.10249   -735936.88147  20326970.191    20326975.135
       247.000         211.000
  24447127.382     2632401.27649   1766491.67145  24447128.265    24447136.840
       218.000         151.000
  22325551.700     2211475.03849   1710478.74945  22325552.532    22325558.594
       218.000         154.000
  23012380.187    -1695215.00749  -1313319.72545  23012379.121    23012385.321
       220.000         162.000
  22486234.668     2069361.23049   1380270.34946  22486233.824    22486240.785
       231.000         181.000
  22259729.666    -1976684.48949  -1531849.26946  22259728.541    22259735.209
       233.000         179.000
 02  7  1 15 45  0.0000000  0  9G17G23G18G 6G 5G30G29G10G15
  21624147.701    -1498268.97549  -1160984.85647  21624146.315    21624152.910
       237.000         194.000
  20623022.118     -149713.23149   -117157.35247  20623021.299    20623027.012
       240.000         210.000
  22885325.211    -2537619.40549  -1957420.68745  22885324.739    22885328.031
       214.000         145.000
  20323401.701     -969187.67349   -750550.82347  20323401.162    20323406.549
       246.000         211.000
  24467064.754     2737170.01249   1848129.44445  24467065.843    24467074.211
       223.000         157.000
  22343354.337     2305026.64949   1783376.03245  22343356.876    22343361.744
       221.000         157.000
  23003390.180    -1742456.93749  -1350131.59545  23003389.395    23003393.442
       223.000         159.000
  22503363.645     2159373.99949   1450410.13746  22503362.436    22503369.783
       230.000         181.000
  22248507.733    -2035656.11649  -1577801.13646  22248507.099    22248513.798
       234.000         180.000
 02  7  1 15 45 30.0000000  0  9G17G23G18G 6G 5G30G29G10G15
  21616515.289    -1538377.23449  -1192238.03847  21616514.169    21616520.665
       238.000         195.000
  20625307.637     -137702.50249   -107798.33447  20625306.617    20625313.019
       239.000         208.000
  22866773.669    -2635109.96549  -2033387.27445  22866773.852    22866776.262
       215.000         144.000
  20319907.861     -987547.72249   -764857.34947  20319907.411    20319912.734
       247.000         210.000
  24486993.894     2841895.56249   1929733.57645  24486994.397    24487003.203
       220.000         160.000
  22361199.771     2398801.37349   1856447.17445  22361199.294    22361205.645
       218.000         157.000
  22994473.879    -1789313.95249  -1386643.46845  22994474.497    22994477.914
       229.000         162.000
  22520545.083     2249663.44249   1520765.49946  22520544.082    22520550.989
       231.000         182.000
  22237319.128    -2094452.92249  -1623616.79146  22237317.376    22237324.450
       231.000         179.000
 02  7  1 15 46  0.0000000  0  9G17G23G18G 6G 5G30G29G10G15
  21608914.342    -1578319.97049  -1223362.23747  21608912.691    21608919.890
       239.000         196.000
  20627688.734     -125189.83249    -98048.20047  20627687.479    20627693.489
       240.000         208.000
  22848269.492    -2732350.21249  -2109158.87145  22848267.783    22848272.278
       213.000         143.000
  20316489.449    -1005511.76849   -778855.29347  20316488.698    20316494.395
       245.000         210.000
  24506914.167     2946575.41049   2011302.11945  24506914.136    24506923.413
       223.000         159.000
  22379085.821     2492796.10749   1929689.75545  22379084.162    22379091.546
       213.000         154.000
  22985631.585    -1835783.57549  -1422853.49546  22985631.668    22985636.659
       227.000         165.000
  22537778.723     2340226.70049   1591334.23646  22537777.651    22537784.122
       233.000         182.000
  22226163.652    -2153075.31449  -1669296.54146  22226163.267    22226168.880
       233.000         179.000
 02  7  1 15 46 30.0000000  0 10G17G23G18G 6G 5G30G29G10G15G22
  21601344.147    -1618101.06449  -1254360.47847  21601343.561    21601349.116
       240.000         197.000
  20630164.355     -112179.92149    -87910.60347  20630163.315    20630169.369
       241.000         208.000
  22829812.340    -2829341.93949  -2184736.83145  22829811.660    22829815.972
       213.000         143.000
  20313145.956    -1023081.76349   -792546.18747  20313145.592    20313150.788
       247.000         211.000
  24526824.360     3051203.62949   2092830.41445  24526823.533    24526834.027
       223.000         159.000
  22397012.739     2587004.40649   2003098.75245  22397013.760    22397018.786
       215.000         152.000
  22976862.125    -1881867.05149  -1458762.65046  22976861.810    22976868.173
       226.000         169.000
  22555063.152     2431057.43649   1662111.40046  22555062.095    22555068.834
       230.000         181.000
  22215040.781    -2211527.00549  -1714843.28546  22215039.948    22215046.784
       231.000         178.000
  24334607.950    -1884121.00749  -1447766.41845  24334601.466    24334620.758
       201.000         146.000
 02  7  1 15 47  0.0000000  0 10G17G23G18G 6G 5G30G29G10G15G22
  21593806.223    -1657713.24949  -1285227.10247  21593805.430    21593811.233
       240.000         198.000
  20632735.914      -98666.50849    -77380.66647  20632735.025    20632741.034
       242.000         209.000
  22811404.487    -2926075.53049  -2260113.60845  22811402.695    22811408.045
       209.000         143.000
  20309879.258    -1040248.91549   -805923.18048  20309878.754    20309884.277
       248.000         213.000
  24546725.510     3155784.88249   2174322.12545  24546725.406    24546735.695
       223.000         159.000
  22414982.120     2681430.68149   2076677.54545  22414984.639    22414988.228
       216.000         153.000
  22968167.978    -1927554.73149  -1494363.42646  22968166.329    22968174.914
       223.000         170.000
  22572399.349     2522160.25949   1733100.57746  22572398.284    22572404.614
       230.000         180.000
  22203951.675    -2269800.61849  -1760251.24746  22203950.325    22203955.838
       230.000         178.000
  24322454.998    -1947980.39949  -1497526.91045  24322455.045    24322465.874
       206.000         142.000
 02  7  1 15 47 30.0000000  0 10G17G23G18G 6G 5G30G29G10G15G22
  21586300.030    -1697158.73349  -1315963.82847  21586299.346    21586305.111
       240.000         198.000
  20635402.747      -84652.53549    -66460.68447  20635402.128    20635407.992
       243.000         209.000
  22793045.408    -3022550.55349  -2335288.85945  22793044.124    22793049.056
       204.000         141.000
  20306689.141    -1057013.15149   -818986.21648  20306688.872    20306693.980
       248.000         214.000
  24566616.906     3260314.96949   2255773.95345  24566617.085    24566626.580
       223.000         159.000
  22432992.067     2776070.08949   2150422.43745  22432991.043    22432998.024
       208.000         152.000
  22959549.289    -1972845.68849  -1529655.03446  22959549.335    22959555.775
       228.000         172.000
  22589786.766     2613530.81549   1804298.35946  22589785.677    22589792.412
       229.000         179.000
  22192896.000    -2327898.00349  -1805521.88846  22192894.969    22192902.004
       231.000         178.000
  24310387.471    -2011400.94549  -1546945.55745  24310390.617    24310390.863
       215.000         143.000
 02  7  1 15 48  0.0000000  0 10G17G23G18G 6G 5G30G29G10G15G22
  21578825.289    -1736439.03949  -1346571.85147  21578824.621    21578830.521
       240.000         199.000
  20638164.383      -70140.49949    -55152.60847  20638163.487    20638169.498
       242.000         209.000
  22774735.141    -3118766.47949  -2410262.25645  22774733.910    22774739.967
       208.000         139.000
  20303575.813    -1073374.29849   -831735.15348  20303575.257    20303580.663
       247.000         214.000
  24586498.240     3364790.33549   2337183.12945  24586498.781    24586507.470
       220.000         158.000
  22451039.845     2870918.43149   2224330.20745  22451036.151    22451048.059
       203.000         147.000
  22951006.649    -2017739.16749  -1564636.90546  22951006.779    22951011.299
       228.000         173.000
  22607224.102     2705165.02349   1875701.59446  22607222.296    22607229.741
       227.000         177.000
  22181873.638    -2385820.61749  -1850656.36646  22181872.229    22181878.862
       230.000         178.000
  24298403.766    -2074382.09449  -1596021.80645  24298405.844    24298407.724
       216.000         146.000
 02  7  1 15 48 30.0000000  0 10G17G23G18G 6G 5G30G29G10G15G22
  21571382.005    -1775554.07249  -1377051.08247  21571380.924    21571387.338
       241.000         200.000
  20641020.562      -55131.04949    -43456.94247  20641019.400    20641025.376
       243.000         208.000
  22756475.788    -3214720.76449  -2485031.79345  22756476.339    22756482.233
       210.000         142.000
  20300539.416    -1089330.55149   -844168.58948  20300538.869    20300544.036
       247.000         214.000
  24606368.856     3469209.06549   2418548.13845  24606368.396    24606377.976
       213.000         155.000
  22469128.144     2965973.12049   2298398.70645  22469130.065    22469135.418
       212.000         147.000
  22942540.096    -2062231.99249  -1599306.60446  22942539.740    22942544.731
       228.000         172.000
  22624710.975     2797060.44249   1947308.36146  22624709.609    22624717.739
       225.000         175.000
  22170884.611    -2443568.10749  -1895654.37246  22170883.457    22170889.613
       232.000         179.000
  24286503.243    -2136921.40649  -1644753.68345  24286500.516    24286511.840
       207.000         147.000
 02  7  1 15 49  0.0000000  0 10G17G23G18G 6G 5G30G29G10G15G22
  21563969.960    -1814504.86349  -1407402.33947  21563968.705    21563975.134
       240.000         199.000
  20643971.028      -39626.18149    -31375.23847  20643970.227    20643976.376
       245.000         209.000
  22738266.533    -3310412.17149  -2559596.44445  22738267.095    22738272.290
       210.000         143.000
  20297580.304    -1104881.12049   -856285.90348  20297579.738    20297585.195
       245.000         213.000
  24626227.658     3573567.70649   2499866.36145  24626224.010    24626237.201
       202.000         149.000
  22487255.980     3061230.46949   2372625.11345  22487258.365    22487261.877
       212.000         150.000
  22934149.894    -2106322.78549  -1633663.03046  22934149.089    22934154.357
       225.000         171.000
  22642247.109     2889213.48749   2019115.87146  22642245.879    22642252.987
       223.000         173.000
  22159928.798    -2501141.09449  -1940516.41746  22159928.081    22159934.083
       232.000         180.000
  24274685.441    -2199017.89549  -1693140.46945  24274678.770    24274698.576
       199.000         146.000
 02  7  1 15 49 30.0000000  0 10G17G23G18G 6G 5G30G29G10G15G22
  21556589.351    -1853289.59249  -1437624.19247  21556588.234    21556595.039
       239.000         199.000
  20647016.065      -23625.02949    -18906.82647  20647015.878    20647020.966
       248.000         211.000
  22720108.135    -3405836.60349  -2633953.11545  22720107.197    22720112.295
       208.000         142.000
  20294699.003    -1120022.29549   -868084.21647  20294698.403    20294703.640
       244.000         212.000
  24646073.815     3677866.03149   2581137.58645  24646070.181    24646084.530
       195.000         141.000
  22505421.782     3156689.51149   2447008.67045  22505421.921    22505428.441
       213.000         151.000
  22925836.920    -2150007.02449  -1667702.68446  22925835.544    22925842.957
       223.000         170.000
  22659832.250     2981623.53549   2091123.62146  22659831.825    22659838.362
       221.000         169.000
  22149006.614    -2558537.70349  -1985241.02646  22149005.682    22149012.096
       231.000         180.000
  24262953.112    -2260667.67349  -1741179.08245  24262954.666    24262967.407
       212.000         149.000
 02  7  1 15 50  0.0000000  0 10G17G23G18G 6G 5G30G29G10G15G22
  21549240.033    -1891910.51049  -1467718.41847  21549239.422    21549245.721
       240.000         198.000
  20650155.099       -7130.62849     -6054.05348  20650154.496    20650160.252
       248.000         213.000
  22702000.576    -3500994.00949  -2708101.71145  22701999.043    22702003.814
       210.000         140.000
  20291895.538    -1134754.36049   -879563.74047  20291895.043    20291900.358
       245.000         212.000
  24665909.074     3782099.97549   2662358.62545  24665908.347    24665920.103
       196.000         136.000
  22523624.665     3252345.36949   2521545.63845  22523622.081    22523631.171
       210.000         150.000
  22917601.306    -2193284.33149  -1701425.23846  22917598.237    22917605.968
       223.000         167.000
  22677465.364     3074286.22049   2163328.25146  22677464.718    22677472.311
       220.000         166.000
  22138117.545    -2615759.90049  -2029829.70946  22138116.321    22138123.226
       233.000         182.000
  24251307.952    -2321870.51749  -1788869.59745  24251311.087    24251317.611
       218.000         153.000
 02  7  1 15 50 30.0000000  0 10G17G23G18G 6G 5G30G29G10G15G22
  21541921.595    -1930369.55649  -1497686.49247  21541920.259    21541926.891
       239.000         197.000
  20653387.189        9853.85249      7180.59048  20653386.498    20653391.695
       248.000         213.000
  22683943.835    -3595884.23549  -2782042.06945  22683941.284    22683948.493
       210.000         139.000
  20289169.916    -1149077.70549   -890724.79248  20289169.420    20289174.840
       245.000         213.000
  24685732.258     3886265.15649   2743526.01545  24685731.074    24685743.202
       195.000         135.000
  22541863.632     3348193.41149   2596232.34645  22541865.171    22541869.588
       216.000         150.000
  22909443.021    -2236154.02149  -1734830.15946  22909440.674    22909448.568
       220.000         164.000
  22695145.945     3167196.90849   2235726.13946  22695145.608    22695151.370
       221.000         164.000
  22127261.375    -2672809.48449  -2074283.90646  22127260.117    22127268.474
       233.000         183.000
  24239747.576    -2382626.52649  -1836211.99945  24239747.372    24239748.878
       210.000         148.000
 02  7  1 15 51  0.0000000  0 10G17G23G18G 6G 5G30G29G10G15G22
  21534634.146    -1968665.34549  -1527527.36147  21534633.234    21534639.412
       239.000         196.000
  20656712.623       27329.01049     20797.58448  20656711.586    20656717.727
       247.000         213.000
  22665938.053    -3690503.27649  -2855771.13845  22665937.278    22665941.258
       210.000         139.000
  20286522.641    -1162989.25149   -901564.96748  20286522.223    20286527.598
       246.000         214.000
  24705541.949     3990360.79649   2824639.22345  24705542.079    24705550.863
       208.000         142.000
  22560139.532     3444232.35849   2671067.77245  22560140.010    22560144.263
       214.000         149.000
  22901363.008    -2278612.07949  -1767914.32545  22901360.668    22901368.119
       219.000         161.000
  22712873.360     3260354.44449   2308316.37946  22712872.036    22712878.282
       222.000         164.000
  22116438.335    -2729685.05349  -2118602.50746  22116436.350    22116443.566
       232.000         184.000
  24228270.801    -2442932.36149  -1883203.48245  24228263.732    24228277.347
       200.000         142.000
 02  7  1 15 51 30.0000000  0 10G17G23G18G 6G 5G30G29G10G15G22
  21527377.759    -2006797.02449  -1557240.34547  21527376.278    21527383.779
       237.000         195.000
  20660131.391       45294.61349     34796.73648  20660130.629    20660135.940
       247.000         213.000
  22647984.859    -3784848.36149  -2929286.77345  22647982.468    22647990.874
       208.000         139.000
  20283954.277    -1176486.28449   -912082.14448  20283953.751    20283959.307
       244.000         214.000
  24725338.183     4094385.73349   2905697.36545  24725337.855    24725347.358
       211.000         148.000
  22578451.322     3540460.29149   2746050.48745  22578451.273    22578455.320
       210.000         145.000
  22893361.961    -2320655.29049  -1800675.25945  22893360.406    22893369.809
       218.000         162.000
  22730647.403     3353757.26249   2381097.75146  22730645.681    22730653.198
       223.000         166.000
  22105648.312    -2786385.47349  -2162784.62646  22105646.909    22105654.203
       232.000         183.000
  24216880.183    -2502784.82149  -1929841.66045  24216880.612    24216892.309
       213.000         147.000
 02  7  1 15 52  0.0000000  0 10G17G23G18G 6G 5G30G29G10G15G22
  21520152.466    -2044766.17249  -1586826.68747  21520152.089    21520158.401
       239.000         195.000
  20663642.997       63747.96649     49175.96648  20663642.098    20663647.804
       248.000         213.000
  22630083.629    -3878918.78049  -3002588.40045  22630082.970    22630088.222
       206.000         137.000
  20281464.824    -1189568.47349   -922276.06848  20281464.394    20281469.744
       243.000         213.000
  24745119.935     4198336.23149   2986697.50945  24745119.180    24745128.725
       214.000         153.000
  22596797.196     3636872.86249   2821177.13245  22596796.923    22596803.763
       208.000         144.000
  22885440.295    -2362282.66849  -1833112.17246  22885440.819    22885446.815
       222.000         164.000
  22748467.313     3447401.25749   2454067.05846  22748466.275    22748473.568
       224.000         169.000
  22094891.430    -2842912.14849  -2206831.37046  22094890.865    22094898.413
       233.000         184.000
  24205578.251    -2562183.38349  -1976126.18245  24205580.655    24205589.478
       218.000         155.000
 02  7  1 15 52 30.0000000  0 10G17G23G18G 6G 5G30G29G10G15G22
  21512958.030    -2082574.07849  -1616287.38647  21512957.579    21512964.149
       239.000         195.000
  20667246.958       82686.88649     63933.56548  20667245.813    20667251.202
       248.000         213.000
  22612235.373    -3972713.36649  -3075675.02745  22612235.785    22612240.322
       208.000         138.000
  20279054.428    -1202235.31449   -932146.34647  20279053.613    20279059.190
       241.000         211.000
  24764886.469     4302208.99949   3067637.10345  24764885.876    24764895.820
       218.000         155.000
  22615178.361     3733466.31349   2896444.68045  22615179.627    22615185.445
       213.000         145.000
  22877598.599    -2403492.59049  -1865223.76646  22877598.698    22877605.970
       224.000         166.000
  22766332.211     3541283.03049   2527221.63246  22766331.117    22766338.947
       225.000         171.000
  22084167.742    -2899266.16649  -2250743.55946  22084166.690    22084174.870
       235.000         186.000
  24194362.326    -2621127.37649  -2022056.52545  24194361.702    24194370.632
       213.000         155.000
 02  7  1 15 53  0.0000000  0 10G17G23G18G 6G 5G30G29G10G15G22
  21505794.345    -2120220.33249  -1645622.11747  21505793.469    21505799.534
       238.000         195.000
  20670943.124      102110.50249     79068.85148  20670942.075    20670947.918
       247.000         213.000
  22594440.458    -4066229.68749  -3148544.80645  22594439.835    22594442.484
       205.000         136.000
  20276723.332    -1214484.72949   -941691.35247  20276722.637    20276728.052
       242.000         210.000
  24784637.612     4406002.16549   3148514.67145  24784637.373    24784647.575
       219.000         157.000
  22633594.130     3830238.17949   2971851.19745  22633594.738    22633600.146
       206.000         145.000
  22869836.908    -2444282.45249  -1897008.02446  22869838.210    22869842.390
       224.000         165.000
  22784242.286     3635400.38949   2600559.77146  22784241.708    22784249.216
       228.000         173.000
  22073476.997    -2955446.88649  -2294520.72146  22073476.300    22073483.123
       234.000         186.000
  24183231.541    -2679614.51249  -2067630.84645  24183224.322    24183234.924
       200.000         146.000
 02  7  1 15 53 30.0000000  0  9G17G23G18G 6G30G29G10G15G22
  21498661.699    -2157702.42749  -1674828.93247  21498660.687    21498667.053
       238.000         195.000
  20674731.812      122020.34149     94583.00148  20674731.002    20674736.652
       247.000         213.000
  22576698.858    -4159463.15049  -3221194.18945  22576693.650    22576700.143
       202.000         132.000
  20274472.546    -1226312.60849   -950907.89447  20274471.855    20274477.145
       242.000         210.000
  22652042.627     3927188.25249   3047396.62645  22652041.808    22652049.604
       204.000         141.000
  22862155.720    -2484647.45149  -1928461.23446  22862155.729    22862161.909
       223.000         164.000
  22802197.348     3729753.25749   2674081.43046  22802196.878    22802203.976
       230.000         177.000
  22062819.684    -3011451.50449  -2338160.67146  22062818.648    22062826.096
       233.000         185.000
  24172188.413    -2737640.11849  -2112845.51045  24172189.741    24172190.176
       212.000         138.000
 02  7  1 15 54  0.0000000  0  9G17G23G18G 6G30G29G10G15G22
  21491559.959    -2195022.56749  -1703909.54147  21491558.604    21491565.568
       238.000         195.000
  20678612.482      142413.29349    110473.59748  20678611.695    20678617.128
       246.000         213.000
  22559010.227    -4252412.99349  -3293622.59244  22559007.334    22559013.722
       199.000         131.000
  20272301.882    -1237719.30149   -959796.23247  20272301.388    20272306.831
       243.000         211.000
  22670524.717     4024311.86249   3123077.25845  22670524.822    22670533.189
       207.000         142.000
  22854555.334    -2524586.81249  -1959582.75346  22854554.341    22854563.370
       222.000         165.000
  22820196.237     3824337.20049   2747783.15346  22820195.308    22820202.708
       230.000         180.000
  22052195.445    -3067281.82449  -2381664.79846  22052194.573    22052200.805
       232.000         184.000
  24161235.605    -2795204.23849  -2157700.68945  24161237.963    24161242.457
       218.000         142.000
 02  7  1 15 54 30.0000000  0  9G17G23G18G 6G30G29G10G15G22
  21484488.490    -2232182.89649  -1732865.63647  21484487.669    21484493.677
       237.000         194.000
  20682584.453      163285.75149    126737.83748  20682583.465    20682589.080
       245.000         213.000
  22541375.874    -4345079.96349  -3365830.61445  22541376.810    22541381.431
       203.000         135.000
  20270211.339    -1248705.34849   -968356.80547  20270210.635    20270215.948
       244.000         212.000
  22689039.173     4121603.83849   3198889.10145  22689038.356    22689045.609
       208.000         143.000
  22847036.119    -2564100.45249  -1990372.60146  22847035.696    22847043.419
       223.000         168.000
  22838238.095     3919147.49949   2821661.25746  22838237.687    22838243.724
       229.000         180.000
  22041604.029    -3122940.19049  -2425034.93346  22041603.086    22041609.533
       232.000         183.000
  24150370.288    -2852307.23549  -2202196.46645  24150369.707    24150379.376
       212.000         146.000
 02  7  1 15 55  0.0000000  0  9G17G23G18G 6G30G29G10G15G22
  21477447.507    -2269183.63249  -1761697.35147  21477446.353    21477453.222
       238.000         195.000
  20686647.368      184636.75149    143374.97648  20686646.493    20686652.115
       246.000         213.000
  22523796.266    -4437461.70349  -3437816.29645  22523795.031    22523801.215
       200.000         138.000
  20268201.122    -1259269.03349   -976588.25748  20268200.737    20268205.975
       245.000         213.000
  22707585.063     4219061.64249   3274830.13445  22707584.686    22707590.726
       210.000         144.000
  22839598.576    -2603185.89949  -2020828.76446  22839598.475    22839607.125
       224.000         171.000
  22856322.528     4014181.84949   2895713.95046  22856321.288    22856329.514
       227.000         178.000
  22031045.426    -3178426.18649  -2468270.75246  22031045.265    22031051.054
       232.000         182.000
  24139591.645    -2908947.22249  -2246331.42145  24139585.753    24139601.190
       205.000         143.000
 02  7  1 15 55 30.0000000  0  9G17G23G18G 6G30G29G10G15G22
  21470437.072    -2306023.33149  -1790403.59847  21470435.857    21470442.223
       236.000         195.000
  20690801.456      206466.44749    160385.12148  20690800.477    20690806.201
       245.000         213.000
  22506271.709    -4529554.57249  -3509576.97545  22506270.423    22506277.329
       203.000         139.000
  20266271.928    -1269407.46049   -984488.34948  20266271.512    20266276.687
       246.000         213.000
  22726161.624     4316683.74849   3350899.19945  22726160.996    22726168.468
       211.000         147.000
  22832243.167    -2641839.45449  -2050948.39446  22832242.168    22832249.995
       225.000         171.000
  22874449.268     4109439.07549   2969940.30446  22874447.160    22874456.316
       224.000         175.000
  22020520.019    -3233738.29949  -2511371.07546  22020518.892    22020525.459
       229.000         182.000
  24128900.065    -2965120.94748  -2290103.00445  24128892.935    24128910.839
       193.000         138.000
 02  7  1 15 56  0.0000000  0  9G17G23G18G 6G30G29G10G15G22
  21463457.302    -2342701.96949  -1818984.33947  21463456.538    21463462.905
       236.000         195.000
  20695046.438      228773.65049    177767.36048  20695045.778    20695051.048
       245.000         213.000
  22488802.079    -4621356.73749  -3581111.09045  22488801.127    22488805.624
       204.000         138.000
  20264423.927    -1279119.00749   -992055.79448  20264423.591    20264428.609
       246.000         214.000
  22744769.411     4414467.48249   3427094.20345  22744770.013    22744774.990
       212.000         149.000
  22824970.135    -2680058.68849  -2080729.60846  22824968.063    22824977.478
       220.000         169.000
  22892617.914     4204916.53349   3044338.25846  22892616.861    22892624.447
       221.000         172.000
  22010027.376    -3288876.75249  -2554336.07946  22010026.216    22010033.221
       225.000         180.000
  24118299.372    -3020826.51349  -2333509.90345  24118301.118    24118304.741
       212.000         138.000
 02  7  1 15 56 30.0000000  0  9G17G23G18G 6G30G29G10G15G22
  21456507.876    -2379221.57949  -1847441.16047  21456506.779    21456512.982
       235.000         194.000
  20699381.588      251555.12049    195519.15547  20699380.387    20699386.266
       242.000         212.000
  22471387.854    -4712867.76849  -3652418.37745  22471386.963    22471392.072
       208.000         142.000
  20262657.063    -1288403.89049   -999290.78248  20262656.405    20262661.516
       246.000         214.000
  22763407.045     4512408.12249   3503411.46645  22763406.462    22763413.708
       210.000         149.000
  22817779.736    -2717843.21549  -2110172.08546  22817779.640    22817787.246
       224.000         169.000
  22910827.854     4300609.96549   3118904.49646  22910826.705    22910833.845
       217.000         169.000
  21999567.412    -3343843.04149  -2597166.94446  21999564.748    21999573.456
       221.000         177.000
  24107789.741    -3076063.76749  -2376551.90945  24107792.343    24107792.931
       211.000         140.000
 02  7  1 15 57  0.0000000  0  9G17G23G18G 6G30G29G10G15G22
  21449588.562    -2415582.63749  -1875774.44347  21449587.450    21449593.782
       235.000         194.000
  20703806.607      274808.99449    213639.05747  20703805.174    20703811.393
       241.000         211.000
  22454029.694    -4804086.29449  -3723497.66645  22454028.080    22454035.871
       210.000         146.000
  20260971.604    -1297261.10949  -1006192.51648  20260971.212    20260976.191
       248.000         214.000
  22782073.312     4610502.47249   3579848.53945  22782073.459    22782078.848
       214.000         148.000
  22810673.007    -2755191.27949  -2139274.44546  22810673.479    22810679.699
       224.000         171.000
  22929077.817     4396516.23049   3193636.58846  22929077.020    22929083.878
       217.000         166.000
  21989140.154    -3398637.51749  -2639863.89046  21989138.356    21989146.728
       223.000         177.000
  24097368.332    -3130831.66949  -2419228.18845  24097364.212    24097375.752
       202.000         142.000
 02  7  1 15 57 30.0000000  0  9G17G23G18G 6G30G29G10G15G22
  21442699.681    -2451783.87349  -1903983.18847  21442699.448    21442705.400
       235.000         194.000
  20708321.388      298535.41449    232127.16947  20708320.258    20708326.296
       241.000         210.000
  22436727.231    -4895008.71349  -3794346.29845  22436725.948    22436734.597
       210.000         148.000
  20259368.010    -1305687.84649  -1012758.81848  20259367.382    20259372.811
       248.000         215.000
  22800769.737     4708749.05949   3656404.21645  22800771.095    22800776.551
       212.000         148.000
  22803649.764    -2792099.13249  -2168033.78746  22803648.862    22803656.229
       226.000         173.000
  22947368.335     4492634.34749   3268533.74546  22947367.328    22947375.034
       217.000         163.000
  21978745.627    -3453258.95949  -2682426.02346  21978744.642    21978752.885
       224.000         178.000
  24087034.497    -3185127.08149  -2461536.18545  24087028.147    24087045.981
       196.000         142.000
 02  7  1 15 58  0.0000000  0  9G17G23G18G 6G30G29G10G15G22
  21435841.378    -2487825.41149  -1932067.49447  21435840.047    21435846.766
       234.000         195.000
  20712926.069      322733.16249    250982.55547  20712925.220    20712930.940
       242.000         211.000
  22419482.118    -4985633.03949  -3864962.65745  22419481.226    22419486.465
       219.000         148.000
  20257846.707    -1313682.46149  -1018988.39648  20257846.655    20257851.487
       251.000         217.000
  22819494.239     4807145.18749   3733076.42045  22819494.003    22819501.548
       209.000         146.000
  22796710.441    -2828564.75949  -2196448.54446  22796710.076    22796716.695
       227.000         173.000
  22965699.148     4588961.74749   3343593.97645  22965698.108    22965704.960
       215.000         161.000
  21968384.748    -3507707.39949  -2724853.33646  21968384.444    21968390.944
       225.000         178.000
  24076791.431    -3238948.15249  -2503474.56945  24076790.895    24076804.119
       206.000         143.000
 02  7  1 15 58 30.0000000  0  9G17G23G18G 6G30G29G10G15G22
  21429012.742    -2523709.15049  -1960028.84547  21429012.603    21429018.107
       235.000         195.000
  20717619.878      347399.21949    270202.86447  20717619.401    20717624.502
       245.000         212.000
  22402293.896    -5075959.15949  -3935346.57845  22402293.435    22402296.635
       215.000         147.000
  20256407.680    -1321245.14649  -1024881.40348  20256407.171    20256412.404
       250.000         218.000
  22838245.953     4905686.13049   3809861.51045  22838243.353    22838251.630
       204.000         143.000
  22789855.476    -2864587.26949  -2224517.98746  22789855.052    22789861.798
       228.000         173.000
  22984068.566     4685494.36049   3418814.11545  22984067.051    22984074.830
       216.000         160.000
  21958056.268    -3561984.19849  -2767146.94346  21958056.294    21958061.962
       227.000         179.000
  24066640.893    -3292294.73149  -2545043.36445  24066643.699    24066648.669
       213.000         144.000
 02  7  1 15 59  0.0000000  0  9G17G23G18G 6G30G29G10G15G22
  21422214.537    -2559434.32049  -1987866.61747  21422213.100    21422220.138
       235.000         195.000
  20722402.780      372532.83849    289787.50548  20722401.930    20722407.653
       245.000         213.000
  22385162.357    -5165984.12649  -4005495.82845  22385161.435    22385166.617
       216.000         146.000
  20255051.143    -1328373.72349  -1030436.14148  20255050.820    20255056.058
       251.000         219.000
  22857024.015     5004369.93249   3886757.88345  22857024.181    22857030.217
       208.000         141.000
  22783085.639    -2900164.00249  -2252240.06946  22783085.258    22783091.057
       229.000         174.000
  23002476.851     4782230.46549   3494192.81845  23002476.167    23002483.279
       220.000         160.000
  21947760.728    -3616088.49749  -2809306.10746  21947759.202    21947766.326
       228.000         180.000
  24056580.853    -3345164.55849  -2586240.64145  24056576.848    24056585.598
       206.000         143.000
 02  7  1 15 59 30.0000000  0  9G17G23G18G 6G30G29G10G15G22
  21415446.305    -2595001.08149  -2015580.97147  21415445.196    21415451.763
       235.000         196.000
  20727274.299      398132.67049    309735.43148  20727273.767    20727279.058
       246.000         214.000
  22368089.077    -5255705.89249  -4075408.82545  22368088.255    22368095.518
       219.000         148.000
  20253777.567    -1335066.84949  -1035651.56648  20253777.092    20253782.466
       251.000         219.000
  22875830.429     5103193.75149   3963763.34245  22875832.231    22875836.218
       212.000         141.000
  22776400.999    -2935292.76249  -2279613.09546  22776400.366    22776405.957
       227.000         174.000
  23020923.470     4879167.36549   3569727.98646  23020923.296    23020929.794
       223.000         163.000
  21937498.056    -3670020.11849  -2851330.72846  21937497.966    21937503.371
       232.000         183.000
  24046610.098    -3397556.03849  -2627065.10945  24046607.430    24046616.416
       209.000         143.000
 02  7  1 16  0  0.0000000  0  9G17G23G18G 6G30G29G10G15G22
  21408707.966    -2630411.03149  -2043173.12047  21408707.180    21408713.639
       235.000         196.000
  20732234.086      424195.79749    330044.36148  20732233.234    20732238.708
       247.000         214.000
  22351073.587    -5345124.26149  -4145085.42845  22351074.133    22351081.007
       220.000         150.000
  20252586.835    -1341324.29649  -1040527.49748  20252586.346    20252591.540
       251.000         219.000
  22894662.441     5202153.44549   4040874.66545  22894663.694    22894668.389
       207.000         142.000
  22769801.430    -2969972.77849  -2306636.47546  22769800.255    22769806.951
       225.000         173.000
  23039407.802     4976301.11649   3645416.55046  23039407.030    23039414.912
       225.000         165.000
  21927267.963    -3723780.75149  -2893222.09146  21927266.289    21927273.019
       232.000         184.000
  24036731.375    -3449468.86949  -2667516.62045  24036732.177    24036740.672
       214.000         147.000
 02  7  1 16  0 30.0000000  0  9G17G23G18G 6G30G29G10G15G22
  21401999.472    -2665664.28549  -2070643.17547  21401998.215    21402005.453
       235.000         197.000
  20737281.577      450720.70049    350713.11648  20737280.569    20737286.322
       247.000         214.000
  22334116.122    -5434237.27149  -4214524.04745  22334114.874    22334120.264
       218.000         148.000
  20251479.224    -1347144.79049  -1045062.94848  20251478.763    20251484.127
       252.000         218.000
  22913518.822     5301245.84449   4118089.42945  22913517.462    22913525.554
       206.000         141.000
  22763287.647    -3004201.96949  -2333308.55746  22763286.814    22763293.622
       224.000         172.000
  23057928.932     5073629.43949   3721256.73746  23057927.759    23057935.281
       227.000         167.000
  21917069.968    -3777370.42549  -2934980.23646  21917068.309    21917075.917
       232.000         185.000
  24026945.382    -3500901.40249  -2707593.89545  24026947.640    24026954.168
       215.000         152.000
 02  7  1 16  1  0.0000000  0  9G17G23G18G 6G30G29G10G15G22
  21395320.878    -2700759.77349  -2097990.29547  21395320.098    21395326.715
       236.000         196.000
  20742416.917      477707.36849    371741.68248  20742415.744    20742421.550
       247.000         214.000
  22317216.857    -5523041.61649  -4283722.12045  22317213.894    22317220.042
       217.000         141.000
  20250455.328    -1352525.70749  -1049255.87648  20250454.912    20250460.265
       252.000         218.000
  22932400.155     5400469.62249   4195406.55745  22932400.519    22932409.736
       208.000         138.000
  22756860.327    -3037977.07349  -2359626.77446  22756858.994    22756865.815
       222.000         171.000
  23076486.921     5171150.84149   3797247.35946  23076486.081    23076492.051
       227.000         168.000
  21906904.776    -3830787.65149  -2976604.03346  21906903.127    21906911.311
       231.000         186.000
  24017249.991    -3551850.92049  -2747294.75445  24017246.416    24017257.420
       208.000         150.000
 02  7  1 16  1 30.0000000  0  9G17G23G18G 6G30G29G10G15G22
  21388672.693    -2735697.03949  -2125214.12447  21388671.661    21388678.469
       234.000         197.000
  20747639.954      505154.63449    393129.14748  20747638.998    20747644.687
       248.000         215.000
  22300376.866    -5611534.69549  -4352677.74145  22300376.321    22300382.135
       216.000         140.000
  20249515.391    -1357465.17049  -1053104.81248  20249514.943    20249520.077
       252.000         218.000
  22951306.933     5499822.37149   4272824.12545  22951306.091    22951313.267
       201.000         135.000
  22750519.841    -3071295.46649  -2385589.09946  22750518.204    22750524.479
       220.000         169.000
  23095081.124     5268863.13949   3873386.75046  23095080.888    23095086.933
       227.000         167.000
  21896772.580    -3884031.90749  -3018093.07346  21896771.371    21896778.806
       231.000         185.000
  24007646.014    -3602315.26149  -2786617.47945  24007643.464    24007653.300
       209.000         146.000
 02  7  1 16  2  0.0000000  0  9G17G23G18G 6G30G29G10G15G22
  21382054.230    -2770477.26649  -2152315.59047  21382053.682    21382059.793
       236.000         196.000
  20752950.193      533059.98049    414873.56348  20752949.132    20752955.010
       248.000         215.000
  22283596.673    -5699715.79549  -4421390.24145  22283596.277    22283603.375
       218.000         144.000
  20248659.588    -1361962.85249  -1056609.50348  20248658.975    20248664.117
       251.000         217.000
  22970237.184     5599300.16049   4350339.15744  22970237.446    22970245.046
       197.000         129.000
  22744266.042    -3104156.12649  -2411194.78146  22744264.833    22744272.848
       218.000         167.000
  23113710.781     5366762.94649   3949672.25646  23113709.602    23113717.533
       228.000         167.000
  21886673.469    -3937103.96649  -3059447.91946  21886672.802    21886679.787
       234.000         185.000
  23998135.817    -3652293.80749  -2825561.78545  23998138.394    23998141.024
       219.000         145.000
 02  7  1 16  2 30.0000000  0  9G17G23G18G 6G30G29G10G15G22
  21375465.705    -2805100.85949  -2179294.99947  21375464.214    21375470.863
       234.000         195.000
  20758347.248      561421.50749    436973.44548  20758346.416    20758352.160
       249.000         215.000
  22266876.196    -5787583.42749  -4489858.47045  22266873.614    22266879.569
       217.000         145.000
  20247887.950    -1366017.83649  -1059769.23048  20247887.549    20247892.649
       250.000         216.000
  22989189.052     5698899.72348   4427949.16744  22989186.907    22989196.319
       194.000         126.000
  22738099.802    -3136557.30049  -2436442.41846  22738099.421    22738106.414
       222.000         168.000
  23132375.919     5464847.24449   4026101.49946  23132375.100    23132382.315
       226.000         167.000
  21876607.093    -3990004.48849  -3100669.07746  21876606.610    21876611.779
       233.000         185.000
  23988719.037    -3701785.46449  -2864126.71245  23988720.115    23988725.558
       217.000         147.000
 02  7  1 16  3  0.0000000  0  9G17G23G18G 6G30G29G10G15G22
  21368906.605    -2839568.54049  -2206152.91247  21368905.834    21368912.393
       234.000         195.000
  20763830.707      590237.23249    459427.24448  20763829.890    20763835.624
       248.000         214.000
  22250215.134    -5875136.51049  -4558081.64945  22250213.907    22250217.061
       215.000         143.000
  20247200.734    -1369629.24149  -1062583.30848  20247200.245    20247205.331
       250.000         215.000
  23008164.860     5798617.79249   4505651.45344  23008169.106    23008172.483
       202.000         124.000
  22732021.992    -3168497.59049  -2461330.92946  22732022.149    22732028.426
       223.000         170.000
  23151075.424     5563112.83249   4102672.03446  23151074.265    23151081.371
       225.000         167.000
  21866573.100    -4042734.04449  -3141757.01646  21866571.597    21866578.304
       229.000         181.000
  23979394.412    -3750789.33449  -2902311.50945  23979392.072    23979400.510
       209.000         145.000
 02  7  1 16  3 30.0000000  0  9G17G23G18G 6G30G29G10G15G22
  21362377.314    -2873880.94749  -2232889.83947  21362376.205    21362382.587
       233.000         195.000
  20769400.220      619505.19549    482233.43848  20769399.404    20769405.132
       247.000         213.000
  22233614.436    -5962373.40949  -4626058.39545  22233614.339    22233618.995
       219.000         147.000
  20246598.095    -1372796.17349  -1065051.04548  20246597.662    20246602.622
       251.000         215.000
  23027164.020     5898450.97349   4583443.38744  23027165.935    23027171.234
       207.000         125.000
  22726032.274    -3199975.51149  -2485859.15746  22726032.445    22726038.087
       226.000         174.000
  23169808.757     5661556.88649   4179381.63746  23169806.976    23169814.749
       223.000         166.000
  21856571.307    -4095292.76649  -3182711.88346  21856570.011    21856576.534
       227.000         179.000
  23970161.445    -3799304.38249  -2940115.37545  23970155.527    23970168.523
       201.000         142.000
 02  7  1 16  4  0.0000000  0  9G17G23G18G 6G30G29G10G15G22
  21355877.261    -2908038.20549  -2259505.88647  21355876.734    21355882.588
       232.000         194.000
  20775055.575      649223.74849    505390.74347  20775054.839    20775060.520
       247.000         211.000
  22217074.654    -6049292.47549  -4693787.48545  22217075.329    22217080.652
       219.000         150.000
  20246080.214    -1375517.43449  -1067171.51548  20246079.621    20246084.466
       250.000         215.000
  23046184.325     5998396.49348   4661322.86144  23046179.702    23046191.962
       193.000         125.000
  22720130.921    -3230989.29449  -2510025.70146  22720131.780    22720136.096
       229.000         176.000
  23188575.376     5760176.94649   4256228.39546  23188574.584    23188581.744
       220.000         165.000
  21846601.950    -4147680.90149  -3223533.80546  21846601.133    21846607.687
       230.000         180.000
  23961021.189    -3847329.13449  -2977537.21045  23961019.501    23961028.731
       208.000         140.000
 02  7  1 16  4 30.0000000  0  9G17G23G18G 6G30G29G10G15G22
  21349407.265    -2942039.24349  -2286000.19747  21349406.493    21349412.842
       232.000         194.000
  20780796.462      679392.38649    528898.75247  20780795.415    20780801.204
       247.000         210.000
  22200595.444    -6135890.47649  -4761266.42845  22200594.238    22200600.220
       218.000         152.000
  20245647.644    -1377790.45549  -1068942.70048  20245647.020    20245651.996
       250.000         214.000
  23065221.439     6098452.56748   4739288.64644  23065216.013    23065229.513
       182.000         119.000
  22714318.658    -3261535.56349  -2533827.95246  22714319.254    22714324.436
       231.000         178.000
  23207375.293     5858971.90849   4333211.43046  23207374.239    23207381.858
       218.000         163.000
  21836665.590    -4199897.16849  -3264221.78346  21836664.392    21836671.328
       233.000         181.000
  23951976.896    -3894860.96749  -3014574.97645  23951978.420    23951982.013
       211.000         141.000
 02  7  1 16  5  0.0000000  0  9G17G23G18G 6G30G29G10G15G22
  21342967.023    -2975882.82049  -2312371.82347  21342966.112    21342972.411
       232.000         193.000
  20786622.965      710010.91749    552757.34047  20786621.911    20786627.574
       246.000         209.000
  22184177.805    -6222164.40049  -4828492.83545  22184177.244    22184180.902
       223.000         153.000
  20245300.929    -1379612.70249  -1070362.63348  20245300.400    20245305.241
       249.000         213.000
  23084281.890     6198617.83049   4817339.42044  23084283.053    23084291.680
       201.000         121.000
  22708595.854    -3291611.05549  -2557263.35846  22708596.216    22708602.025
       230.000         180.000
  23226208.194     5957940.47149   4410329.75045  23226206.991    23226216.144
       217.000         162.000
  21826762.259    -4251940.13249  -3304774.72246  21826761.378    21826768.156
       234.000         182.000
  23943026.795    -3941897.12549  -3051226.51445  23943026.648    23943034.312
       209.000         143.000
 02  7  1 16  5 30.0000000  0  9G17G23G18G 6G30G29G10G15G22
  21336555.654    -3009574.83649  -2338625.33647  21336554.151    21336560.578
       231.000         193.000
  20792533.621      741072.06749    576960.81647  20792532.829    20792538.239
       245.000         209.000
  22167821.825    -6308118.07849  -4895469.67545  22167820.717    22167824.492
       224.000         153.000
  20245039.058    -1380988.66949  -1071434.80847  20245038.382    20245043.854
       247.000         212.000
  23103363.911     6298883.86049   4895468.54444  23103366.162    23103370.363
       205.000         123.000
  22702961.639    -3321219.65249  -2580334.94046  22702960.088    22702967.856
       226.000         179.000
  23245072.580     6057074.49349   4487576.97645  23245071.462    23245079.487
       218.000         162.000
  21816890.896    -4303815.40649  -3345196.96546  21816890.141    21816897.111
       234.000         180.000
  23934169.729    -3988441.85649  -3087495.09545  23934167.661    23934177.817
       205.000         143.000
 02  7  1 16  6  0.0000000  0  9G17G23G18G 6G30G29G10G15G22
  21330173.393    -3043112.49249  -2364758.57447  21330172.709    21330178.274
       233.000         193.000
  20798528.769      772576.86049    601510.00047  20798527.689    20798533.390
       244.000         209.000
  22151527.135    -6393746.61149  -4962193.16445  22151526.008    22151532.222
       223.000         154.000
  20244862.951    -1381914.28449  -1072156.07148  20244862.703    20244867.623
       249.000         213.000
  23122464.306     6399250.21349   4973675.94544  23122461.353    23122467.180
       197.000         122.000
  22697416.712    -3350356.58449  -2603039.01846  22697415.186    22697424.033
       224.000         177.000
  23263969.021     6156374.37349   4564953.43145  23263968.670    23263975.304
       222.000         162.000
  21807052.011    -4355520.12749  -3385486.31846  21807050.203    21807057.017
       234.000         178.000
  23925405.690    -4034491.17849  -3123377.57245  23925401.010    23925412.384
       200.000         140.000
 02  7  1 16  6 30.0000000  0  9G17G23G18G 6G30G29G10G15G22
  21323821.259    -3076493.87849  -2390770.02747  21323820.077    21323826.804
       234.000         194.000
  20804608.428      804525.79749    626405.26947  20804607.750    20804613.052
       245.000         209.000
  22135295.053    -6479046.49449  -5028660.54845  22135292.426    22135300.191
       221.000         154.000
  20244773.209    -1382386.19749  -1072523.79647  20244772.646    20244777.697
       248.000         212.000
  23141580.683     6499716.29048   5051961.22644  23141578.489    23141584.598
       188.000         118.000
  22691962.232    -3379017.96949  -2625372.51846  22691960.942    22691969.286
       225.000         175.000
  23282897.029     6255839.62149   4642458.74646  23282896.546    23282902.495
       221.000         163.000
  21797245.632    -4407052.44749  -3425641.33846  21797244.622    21797250.640
       236.000         179.000
  23916737.550    -4080041.32949  -3158871.14045  23916738.596    23916741.950
       214.000         140.000
 02  7  1 16  7  0.0000000  0  9G17G23G18G 6G30G29G10G15G22
  21317498.407    -3109720.20349  -2416660.66447  21317497.603    21317503.647
       235.000         195.000
  20810772.109      836916.18849    651644.52147  20810771.033    20810776.721
       244.000         209.000
  22119125.452    -6564016.87749  -5094871.21845  22119124.619    22119130.305
       223.000         154.000
  20244769.795    -1382404.34449  -1072537.94348  20244769.318    20244774.618
       248.000         213.000
  23160716.294     6600278.54649   5130321.29444  23160717.839    23160725.543
       201.000         117.000
  22686598.660    -3407202.99149  -2647334.80846  22686597.056    22686606.110
       225.000         174.000
  23301855.555     6355466.56449   4720090.03146  23301855.091    23301861.611
       221.000         163.000
  21787472.063    -4458413.25449  -3465662.71846  21787471.387    21787476.722
       237.000         182.000
  23908166.405    -4125092.22649  -3193975.80645  23908170.348    23908167.957
       217.000         140.000
 02  7  1 16  7 30.0000000  0 10G17G21G23G18G 6G30G29G10G15G22
  21311204.181    -3142796.54849  -2442434.42647  21311203.341    21311209.926
       236.000         196.000
  24845290.205    -1227455.26949   -944106.30745  24845285.837    24845294.880
       205.000         134.000
  20817018.556      869741.41749    677222.60547  20817018.108    20817023.488
       245.000         210.000
  22103018.640    -6648661.04349  -5160827.64445  22103017.879    22103022.630
       223.000         152.000
  20244851.998    -1381972.45649  -1072201.41847  20244851.281    20244856.476
       246.000         211.000
  23179871.475     6700928.87249   5208750.00444  23179872.658    23179883.207
       198.000         119.000
  22681325.115    -3434914.81949  -2668928.39346  22681324.456    22681332.167
       227.000         173.000
  23320843.501     6455247.88249   4797841.61146  23320842.926    23320849.184
       222.000         163.000
  21777730.341    -4509607.63649  -3505554.41146  21777729.991    21777735.579
       238.000         185.000
  23899688.684    -4169647.46449  -3228694.19545  23899684.872    23899695.466
       200.000         140.000
 02  7  1 16  8  0.0000000  0 10G17G21G23G18G 6G30G29G10G15G22
  21304938.333    -3175724.12349  -2468092.26947  21304937.169    21304943.660
       236.000         197.000
  24827350.351    -1321722.52149  -1017561.30344  24827344.217    24827354.047
       197.000         130.000
  20823347.323      902998.75149    703137.39947  20823347.087    20823352.093
       245.000         211.000
  22086973.602    -6732978.28649  -5226529.36645  22086974.126    22086977.101
       222.000         151.000
  20245019.908    -1381090.47849  -1071514.16347  20245019.645    20245024.613
       247.000         211.000
  23199041.037     6801663.35148   5287244.23844  23199036.621    23199042.921
       178.000         112.000
  22676141.815    -3462152.92049  -2690152.86746  22676141.764    22676148.552
       228.000         174.000
  23339860.010     6555179.84849   4875710.57146  23339859.392    23339866.343
       222.000         163.000
  21768019.736    -4560636.86349  -3545317.42446  21768017.585    21768024.442
       235.000         184.000
  23891302.250    -4213707.13849  -3263026.17545  23891298.508    23891312.081
       205.000         140.000
 02  7  1 16  8 30.0000000  0 10G17G21G23G18G 6G30G29G10G15G22
  21298702.522    -3208492.74449  -2493626.26047  21298701.636    21298707.742
       238.000         198.000
  24809438.237    -1415846.44249  -1090904.62844  24809434.646    24809444.142
       199.000         127.000
  20829760.033      936696.84549    729395.64047  20829759.258    20829764.849
       247.000         212.000
  22070992.688    -6816956.76649  -5291967.11745  22070991.740    22070997.349
       216.000         149.000
  20245275.673    -1379746.88449  -1070467.22347  20245275.457    20245280.032
       247.000         211.000
  23218226.539     6902489.36148   5365809.85544                  23218229.634
       186.000         106.000
  22671051.350    -3488905.03449  -2710998.65746  22671052.067    22671056.842
       230.000         176.000
  23358906.775     6655270.46049   4953703.15846  23358904.487    23358912.725
       221.000         164.000
  21758342.400    -4611490.20149  -3584943.38646  21758341.004    21758347.720
       235.000         183.000
  23883014.957    -4257259.18749  -3296962.85045  23883016.951    23883023.376
       214.000         145.000
 02  7  1 16  9  0.0000000  0 10G17G21G23G18G 6G30G29G10G15G22
  21292496.399    -3241106.93349  -2519039.91447  21292495.812    21292501.490
       239.000         199.000
  24791554.259    -1509829.56249  -1164138.17044  24791549.807    24791559.452
       202.000         129.000
  20836255.355      970829.57149    755992.56548  20836254.591    20836259.811
       247.000         213.000
  22055075.684    -6900598.96649  -5357142.80645  22055074.829    22055079.712
       220.000         150.000
  20245618.664    -1377945.06549  -1069063.21447  20245618.030    20245623.278
       246.000         212.000
  23237430.559     7003399.81549   5444441.35144  23237435.388    23237435.709
       197.000         110.000
  22666052.872    -3515173.97949  -2731467.93846  22666052.728    22666057.364
       229.000         176.000
  23377982.130     6755512.90149   5031814.06546  23377981.060    23377989.265
       219.000         165.000
  21748697.821    -4662172.18749  -3624435.83346  21748696.471    21748703.461
       236.000         184.000
  23874824.021    -4300306.94449  -3330506.57945  23874824.043    23874829.985
       213.000         146.000
 02  7  1 16  9 30.0000000  0 10G17G21G23G18G 6G30G29G10G15G22
  21286319.222    -3273568.57449  -2544334.69147  21286318.318    21286324.276
       240.000         200.000
  24773696.582    -1603671.74449  -1237261.92645  24773693.059    24773702.709
       204.000         134.000
  20842832.722     1005393.38749    782925.40148  20842831.648    20842837.157
       248.000         214.000
  22039223.184    -6983905.06549  -5422056.62345  22039220.335    22039228.572
       221.000         151.000
  20246048.663    -1375685.50849  -1067302.53747  20246048.023    20246053.159
       245.000         212.000
  23256651.166     7104390.03049   5523134.83944                  23256659.670
       195.000         107.000
  22661146.156    -3540959.57249  -2751560.60046  22661145.815    22661149.225
       230.000         175.000
  23397085.562     6855902.74749   5110039.84046  23397084.645    23397093.012
       220.000         167.000
  21739085.756    -4712684.63249  -3663796.15646  21739084.045    21739090.956
       236.000         186.000
  23866727.956    -4342851.19549  -3363657.90945  23866722.722    23866732.522
       206.000         142.000
 02  7  1 16 10  0.0000000  0 10G17G21G23G18G 6G30G29G10G15G22
  21280171.175    -3305877.02549  -2569510.09547  21280170.654    21280176.427
       241.000         200.000
  24755865.152    -1697370.39249  -1310273.94745  24755862.783    24755874.322
       203.000         137.000
  20849491.832     1040387.35049    810193.42148  20849491.058    20849496.372
       249.000         215.000
  22023434.784    -7066872.62549  -5486706.59545  22023433.744    22023438.633
       223.000         154.000
  20246566.014    -1372966.37949  -1065183.73147  20246564.805    20246570.715
       243.000         211.000
                   7205457.96648   5601888.83544
       185.000          99.000
  22656331.748    -3566259.57449  -2771274.85346  22656331.028    22656335.276
       230.000         174.000
  23416217.119     6956438.54749   5188379.35946  23416216.351    23416223.770
       223.000         168.000
  21729505.969    -4763026.53349  -3703023.60047  21729505.466    21729511.522
       237.000         188.000
  23858726.918    -4384889.80649  -3396415.19645  23858723.419    23858731.943
       205.000         138.000
 02  7  1 16 10 30.0000000  0 10G17G21G23G18G 6G30G29G10G15G22
  21274052.521    -3338031.32749  -2594565.37747  21274051.621    21274057.790
       241.000         200.000
  24738061.884    -1790923.13449  -1383172.22445  24738059.698    24738071.877
       209.000         138.000
  20856232.698     1075810.83149    837796.13248  20856231.411    20856237.071
       248.000         216.000
  22007711.721    -7149498.90649  -5551090.68645  22007709.660    22007716.328
       222.000         156.000
  20247171.159    -1369785.45549  -1062705.09447  20247170.565    20247176.263
       245.000         211.000
                   7306602.63248   5680702.75043
       167.000          90.000
  22651610.183    -3591071.21049  -2790608.55346  22651609.957    22651613.382
       230.000         175.000
  23435376.402     7057119.00349   5266831.59546  23435375.727    23435383.744
       221.000         168.000
  21719959.008    -4813196.95349  -3742117.40347  21719957.586    21719964.388
       236.000         189.000
  23850823.654    -4426420.58349  -3428776.82245  23850823.079    23850829.070
       207.000         136.000
 02  7  1 16 11  0.0000000  0 10G17G21G23G18G 6G30G29G10G15G22
  21267963.299    -3370030.52249  -2619499.80347  21267962.596    21267968.339
       241.000         200.000
  24720288.072    -1884327.42149  -1455954.72145  24720287.251    24720296.797
       212.000         142.000
  20863055.059     1111662.90349    865732.80248  20863054.538    20863059.672
       249.000         216.000
  21992053.524    -7231781.24249  -5615206.75845  21992052.309    21992058.058
       221.000         157.000
  20247864.690    -1366140.68549  -1059865.02847  20247863.776    20247869.328
       245.000         211.000
                   7407820.536 8   1560010.079 1
       170.000
  22646982.111    -3615391.65149  -2809559.50746  22646981.371    22646988.709
       232.000         179.000
  23454562.484     7157942.53849   5345395.32946  23454561.455    23454569.775
       221.000         169.000
  21710444.699    -4863194.87849  -3781076.83247  21710443.133    21710450.099
       236.000         189.000
  23843017.995    -4467441.27549  -3460740.97845  23843018.822    23843021.499
       212.000         138.000
 02  7  1 16 11 30.0000000  0 10G17G21G23G18G 6G30G29G10G15G22
  21261903.045    -3401877.49149  -2644315.61447  21261902.171    21261908.261
       240.000         200.000
  24702542.371    -1977584.74449  -1528622.70545  24702539.328    24702549.765
       213.000         141.000
  20869958.160     1147938.95049    893999.85148  20869957.169    20869962.460
       248.000         215.000
  21976460.730    -7313720.71449  -5679055.67045  21976461.662    21976465.365
       225.000         160.000
  20248646.158    -1362033.83249  -1056664.89847  20248645.574    20248650.984
       246.000         212.000
                   7509106.97448   -389554.72043
       180.000          74.000
  22642447.323    -3639222.15349  -2828128.70746  22642447.160    22642453.252
       232.000         182.000
  23473774.974     7258903.55249   5424066.19346  23473774.074    23473781.756
       223.000         169.000
  21700962.690    -4913023.12249  -3819904.01347  21700961.207    21700968.386
       236.000         189.000
  23835309.431    -4507953.71049  -3492309.11845  23835308.130    23835315.573
       210.000         141.000
 02  7  1 16 12  0.0000000  0 10G17G21G23G18G 6G30G29G10G15G22
  21255871.735    -3433572.59749  -2669013.08747  21255871.007    21255876.839
       240.000         200.000
  24684824.035    -2070693.50349  -1601174.96945  24684819.315    24684832.040
       205.000         138.000
  20876941.607     1184637.27149    922595.93948  20876941.074    20876946.300
       249.000         216.000
  21960933.828    -7395315.94749  -5742636.36245  21960933.732    21960937.707
       226.000         161.000
  20249515.693    -1357464.16149  -1053104.14247  20249515.032    20249520.293
       246.000         212.000
                   7610458.78848   -310567.48643
       190.000          74.000
  22638006.031    -3662561.22449  -2846314.97546  22638005.345    22638012.574
       230.000         182.000
  23493013.275     7359999.92649   5502842.52946  23493011.397    23493018.864
       223.000         169.000
  21691512.783    -4962681.73149  -3858599.00847  21691511.749    21691518.211
       236.000         189.000
  23827696.011    -4547956.81849  -3523480.24745  23827690.193    23827704.782
       201.000         140.000
 02  7  1 16 12 30.0000000  0 10G17G21G23G18G 6G30G29G10G15G22
  21249869.330    -3465115.38849  -2693591.88147  21249868.442    21249874.435
       240.000         200.000
  24667133.515    -2163651.04749  -1673609.40045  24667131.950    24667144.267
       207.000         137.000
  20884005.155     1221756.31549    951519.87148  20884004.095    20884009.642
       248.000         216.000
  21945472.725    -7476564.76149  -5805947.08545  21945471.306    21945479.055
       225.000         162.000
  20250473.637    -1352430.11449  -1049181.51948  20250473.319    20250478.490
       247.000         213.000
                   7711873.91849   -231530.95343
       195.000          74.000
  22633658.676    -3685406.92149  -2864116.80446  22633658.055    22633664.797
       230.000         182.000
  23512276.654     7461229.46949   5581722.63346  23512275.221    23512282.648
       224.000         168.000
  21682095.418    -5012170.14849  -3897161.39647  21682094.368    21682100.489
       237.000         188.000
  23820179.731    -4587448.97949  -3554253.28145  23820181.651    23820187.911
       216.000         142.000
 02  7  1 16 13  0.0000000  0 10G17G21G23G18G 6G30G29G10G15G22
  21243895.647    -3496507.45449  -2718053.21847  21243894.808    21243900.811
       241.000         201.000
  24649472.896    -2256457.78549  -1745926.32445  24649473.964    24649483.949
       212.000         138.000
  20891148.114     1259292.98149    980769.21148  20891147.639    20891152.861
       249.000         216.000
  21930077.623    -7557466.65849  -5868987.47546  21930077.024    21930082.911
       225.000         164.000
  20251519.902    -1346931.88549  -1044897.20848  20251519.505    20251524.798
       247.000         214.000
                   7813348.16048   -384237.21343
       190.000          74.000
  22629405.371    -3707758.96849  -2881533.95546  22629405.139    22629410.728
       229.000         180.000
  23531564.615     7562588.61149   5660703.71746  23531562.578    23531569.800
       223.000         166.000
  21672710.116    -5061489.90049  -3935592.32847  21672708.886    21672716.053
       237.000         188.000
  23812763.123    -4626430.48349  -3584628.47945  23812764.456    23812767.389
       218.000         146.000
 02  7  1 16 13 30.0000000  0 10G17G21G23G18G 6G30G29G10G15G22
  21237950.695    -3527748.78449  -2742397.10247  21237949.953    21237956.282
       242.000         202.000
  24631841.705    -2349112.15349  -1818124.40945  24631840.831    24631847.541
       214.000         135.000
  20898370.233     1297245.43349   1010342.54748  20898369.250    20898374.886
       248.000         216.000
  21914749.015    -7638020.54349  -5931756.68846  21914749.235    21914752.922
       225.000         164.000
  20252654.725    -1340968.57749  -1040250.49148  20252654.279    20252659.462
       247.000         214.000
                   7914878.52048   -305112.98043
       181.000          74.000
  22625246.103    -3729615.89849  -2898565.30546  22625245.309    22625251.254
       229.000         179.000
  23550876.717     7664074.71649   5739783.72346  23550875.928    23550881.777
       223.000         165.000
  21663356.934    -5110640.95049  -3973891.82546  21663355.331    21663362.268
       236.000         187.000
  23805443.151    -4664900.45449  -3614605.05845  23805441.965    23805446.957
       217.000         147.000
 02  7  1 16 14  0.0000000  0 10G17G21G23G18G 6G30G29G10G15G22
  21232034.633    -3558837.91849  -2766622.38847  21232033.939    21232039.654
       242.000         203.000
  24614239.883    -2441610.62649  -1890201.01345  24614239.597    24614246.880
       215.000         133.000
  20905671.507     1335613.61949   1040239.82848  20905670.695    20905676.065
       248.000         215.000
  21899486.978    -7718222.94749  -5994252.03945  21899484.672    21899490.516
       225.000         162.000
  20253878.575    -1334537.58049  -1035239.34148  20253878.182    20253883.477
       248.000         215.000
                   8016463.72348   -225946.00943
       189.000          74.000
  22621181.699    -3750974.37049  -2915208.25646  22621180.872    22621187.005
       227.000         177.000
  23570212.763     7765687.37149   5818962.34246  23570211.192    23570217.186
       222.000         164.000
  21654036.218    -5159621.65349  -4012058.57846  21654035.323    21654041.679
       238.000         187.000
  23798219.995    -4702856.07749  -3644180.84145  23798218.106    23798226.769
       213.000         147.000
 02  7  1 16 14 30.0000000  0 10G17G21G23G18G 6G30G29G10G15G22
  21226147.559    -3589774.28549  -2790728.63147  21226146.794    21226152.928
       242.000         204.000
  24596668.097    -2533951.53349  -1962154.87145  24596665.253    24596677.452
       210.000         134.000
  20913051.561     1374396.14349   1070459.97948  20913050.506    20913056.285
       248.000         214.000
  21884292.282    -7798071.69149  -6056471.81346  21884291.760    21884297.829
       227.000         163.000
  20255191.674    -1327637.59049  -1029862.74248  20255191.453    20255196.418
       248.000         215.000
                   8118101.72549   -379109.20843
       198.000          74.000
  22617212.339    -3771832.44949  -2931461.30246  22617211.440    22617217.476
       228.000         176.000
  23589572.542     7867424.49749   5898237.94846  23589571.340    23589577.321
       220.000         163.000
  21644748.076    -5208431.55449  -4050092.23747  21644747.303    21644753.541
       238.000         188.000
  23791095.178    -4740295.93549  -3673354.69645  23791092.609    23791100.937
       213.000         147.000
 02  7  1 16 15  0.0000000  0 10G17G21G23G18G 6G30G29G10G15G22
  21220289.343    -3620559.55449  -2814717.13847  21220288.070    21220294.715
       242.000         204.000
  24579125.744    -2626134.65949  -2033985.76445  24579123.797    24579136.629
       211.000         133.000
  20920509.939     1413589.67049   1101000.37948  20920509.103    20920514.241
       248.000         213.000
  21869165.035    -7877566.87549  -6118416.07046  21869164.952    21869168.404
       226.000         164.000
  20256593.918    -1320269.01449  -1024121.00848  20256593.342    20256598.726
       248.000         215.000
                   8219788.09649   -299887.87443
       196.000          74.000
  22613338.328    -3792190.09649  -2947324.39146  22613337.342    22613342.426
       228.000         176.000
  23608955.348     7969282.27549   5977607.58646  23608954.661    23608960.582
       220.000         163.000
  21635492.309    -5257071.83049  -4087993.73447  21635491.181    21635497.259
       239.000         189.000
  23784068.624    -4777220.44749  -3702127.00945  23784066.463    23784074.567
       210.000         146.000
 02  7  1 16 15 30.0000000  0 10G17G21G23G18G 6G30G29G10G15G22
  21214459.645    -3651194.14949  -2838588.23547  21214458.576    21214464.914
       241.000         203.000
  24561614.271    -2718158.54349  -2105692.62144  24561613.309    24561624.112
       211.000         131.000
  20928046.024     1453191.93549   1131859.28747  20928045.136    20928050.496
       248.000         211.000
  21854105.032    -7956707.18349  -6180083.79245  21854104.818    21854109.342
       224.000         161.000
  20258085.381    -1312431.15349  -1018013.59548  20258084.960    20258090.203
       249.000         216.000
                   8321519.75049   -220631.17843
       198.000          74.000
  22609559.751    -3812046.26649  -2962796.71146  22609557.919    22609564.719
       229.000         176.000
  23628360.760     8071257.96049   6057069.08645  23628359.567    23628368.037
       219.000         162.000
  21626268.571    -5305543.01849  -4125763.47047  21626268.096    21626273.646
       239.000         190.000
  23777139.891    -4813629.12649  -3730497.35045  23777139.519    23777146.837
       213.000         144.000
 02  7  1 16 16  0.0000000  0 10G17G21G23G18G 6G30G29G10G15G22
  21208658.594    -3681678.59049  -2862342.33547  21208657.862    21208663.613
       242.000         204.000
  24544133.173    -2810022.79949  -2177275.05945  24544131.901    24544142.136
       210.000         134.000
  20935659.394     1493200.57249   1163034.83347  20935658.095    20935663.745
       246.000         209.000
  21839112.484    -8035491.47149  -6241474.13145  21839111.208    21839117.354
       227.000         161.000
  20259666.284    -1304123.65649  -1011540.23748  20259665.765    20259671.281
       248.000         216.000
                   8423293.56549   -373066.61343
       197.000          74.000
  22605876.670    -3831400.03149  -2977877.53846  22605875.418    22605881.414
       228.000         176.000
  23647787.986     8173348.48049   6136620.07445  23647787.288    23647794.583
       219.000         162.000
  21617076.905    -5353845.54149  -4163401.79147  21617075.770    21617081.384
       238.000         191.000
  23770309.946    -4849521.44649  -3758465.34045  23770308.478    23770314.814
       209.000         144.000
 02  7  1 16 16 30.0000000  0 10G17G21G23G18G 6G30G29G10G15G22
  21202886.350    -3712012.39649  -2885979.06147  21202885.388    21202891.662
       241.000         204.000
  24526682.546    -2901725.18849  -2248731.30745  24526681.162    24526692.293
       214.000         137.000
  20943349.766     1533614.24549   1194525.99547  20943348.941    20943354.066
       246.000         208.000
  21824188.601    -8113917.87449  -6302585.56946  21824188.589    21824192.014
       230.000         165.000
  20261336.832    -1295345.21649  -1004699.91348  20261336.509    20261341.204
       249.000         216.000
                   8525106.95749   -293726.65443
       197.000          74.000
  22602289.605    -3850249.47049  -2992565.40146  22602289.331    22602295.655
       230.000         177.000
  23667236.841     8275552.31949   6216259.36145  23667236.323    23667242.893
       219.000         162.000
  21607917.466    -5401978.88749  -4200908.27747  21607916.421    21607922.190
       238.000         191.000
  23763578.169    -4884896.07649  -3786029.95045  23763577.957    23763583.987
       216.000         147.000
 02  7  1 16 17  0.0000000  0 10G17G21G23G18G 6G30G29G10G15G22
  21197142.636    -3742195.50849  -2909498.36047  21197141.574    21197148.230
       241.000         205.000
  24509263.140    -2993264.03249  -2320060.15745  24509262.710    24509271.582
       213.000         141.000
  20951117.017     1574431.25949   1226331.45247  20951116.084    20951122.099
       247.000         208.000
  21809333.091    -8191984.80949  -6363416.91346  21809331.924    21809337.124
       230.000         165.000
  20263097.244    -1286094.54449   -997491.61348  20263096.830    20263101.979
       248.000         215.000
                   8626957.49248   -214357.31543
       185.000          74.000
  22598799.059    -3868592.78049  -3006858.88346  22598798.667    22598804.698
       231.000         180.000
  23686706.939     8377867.35349   6295985.28145  23686705.835    23686714.131
       220.000         161.000
  21598790.130    -5449942.50649  -4238282.51647  21598788.700    21598794.952
       238.000         191.000
  23756945.726    -4919751.71049  -3813190.17745  23756945.859    23756952.008
       216.000         150.000
 02  7  1 16 17 30.0000000  0 10G17G21G23G18G 6G30G29G10G15G22
  21191427.609    -3772228.18449  -2932900.43847  21191426.481    21191432.740
       241.000         205.000
  24491874.896    -3084637.78049  -2391260.33645  24491872.859    24491885.680
       211.000         146.000
  20958960.627     1615649.42749   1258449.49147  20958959.974    20958964.866
       247.000         208.000
  21794546.149    -8269690.83549  -6423967.02446  21794544.901    21794550.700
       231.000         168.000
  20264947.615    -1276371.05749   -989914.87848  20264947.209    20264952.164
       248.000         214.000
                   8728842.17749   -366575.84343
       201.000          74.000
  22595405.175    -3886428.91649  -3020757.15246  22595405.796    22595411.283
       231.000         181.000
  23706197.573     8480290.79249   6375795.66845  23706197.141    23706203.950
       219.000         159.000
  21589695.011    -5497736.91049  -4275524.89647  21589693.446    21589700.257
       236.000         192.000
  23750411.530    -4954087.85049  -3839945.55845  23750408.015    23750419.916
       206.000         150.000
 02  7  1 16 18  0.0000000  0 10G17G21G23G18G 6G30G29G10G15G22
  21185741.234    -3802110.14449  -2956185.06947  21185740.107    21185746.683
       240.000         204.000
  24474518.213    -3175844.17949  -2462330.09645  24474516.974    24474529.151
       212.000         149.000
  20966880.293     1657267.29049   1290878.98247  20966879.621    20966885.075
       248.000         209.000
  21779828.204    -8347034.18049  -6484234.51446  21779828.209    21779832.241
       233.000         171.000
  20266888.157    -1266173.62149   -981968.83648  20266887.796    20266892.802
       248.000         214.000
                   8830758.68049   -287273.99443
       201.000          74.000
  22592108.124    -3903756.15149  -3034258.87946  22592107.599    22592114.014
       229.000         181.000
  23725708.613     8582820.70149   6455689.02245  23725708.054    23725715.410
       220.000         158.000
  21580632.285    -5545361.61849  -4312635.04547  21580631.320    21580637.675
       236.000         192.000
  23743976.025    -4987903.23249  -3866295.14845  23743974.858    23743984.395
       213.000         150.000
 02  7  1 16 18 30.0000000  0 10G17G21G23G18G 6G30G29G10G15G22
  21180083.389    -3831842.11549  -2979352.83347  21180082.604    21180088.739
       241.000         205.000
  24457194.251    -3266883.15649  -2533269.41845  24457192.958    24457201.958
       216.000         150.000
  20974875.601     1699282.28649   1323617.92547  20974875.026    20974880.543
       249.000         210.000
  21765179.457    -8424013.89949  -6544218.68546  21765179.270    21765182.518
       234.000         173.000
  20268919.024    -1255501.94849   -973653.25448  20268918.440    20268923.497
       248.000         214.000
                   8932703.47249   -207972.87543
       200.000          74.000
  22588907.653    -3920573.92449  -3047363.63846  22588906.745    22588913.783
       227.000         179.000
  23745239.363     8685454.10849   6535663.02145  23745236.895    23745244.889
       217.000         156.000
  21571601.749    -5592817.17149  -4349613.39047  21571600.732    21571607.586
       237.000         192.000
  23737641.040    -5021197.70549  -3892238.89245  23737640.423    23737647.955
       212.000         150.000
 02  7  1 16 19  0.0000000  0 10G17G21G23G18G 6G30G29G10G15G22
  21174454.017    -3861425.50449  -3002404.80847  21174452.771    21174458.803
       241.000         204.000
  24439902.321    -3357754.54449  -2604078.16045  24439901.468    24439910.011
       220.000         150.000
  20982945.800     1741691.19849   1356663.81747  20982944.720    20982950.820
       249.000         211.000
  21750599.966    -8500629.81949  -6603919.36046  21750598.864    21750603.660
       235.000         174.000
  20271039.942    -1244356.63249   -964968.59648  20271039.591    20271044.389
       248.000         214.000
                   9034672.49649   -358519.96843
       201.000          74.000
  22585804.082    -3936882.14349  -3060071.33446  22585802.604    22585809.451
       226.000         177.000
  23764788.802     8788187.43249   6615714.92645  23764787.140    23764795.402
       215.000         155.000
  21562603.266    -5640104.87649  -4386460.94047  21562602.431    21562608.369
       236.000         192.000
  23731404.248    -5053971.78849  -3917777.13045  23731400.633    23731409.793
       204.000         146.000
 02  7  1 16 19 30.0000000  0 10G17G21G23G18G 6G30G29G10G15G22
  21168853.250    -3890857.49149  -3025338.81747  21168852.199    21168858.299
       240.000         204.000
  24422643.092    -3448453.66449  -2674752.66645  24422643.526    24422650.653
       220.000         153.000
  20991091.057     1784494.71949   1390017.18947  20991089.931    20991095.652
       248.000         212.000
  21736090.469    -8576877.85049  -6663333.37146  21736090.318    21736095.721
       237.000         176.000
  20273251.629    -1232734.34549   -955912.27948  20273250.860    20273255.943
       247.000         213.000
                   9136665.70149   -279043.80543
       200.000          74.000
  22582798.374    -3952677.00549  -3072379.00646  22582797.425    22582805.095
       229.000         177.000
  23784357.179     8891021.00449   6695844.92245  23784355.703    23784364.377
       217.000         155.000
  21553637.311    -5687222.09149  -4423175.63947  21553636.598    21553642.432
       238.000         190.000
  23725266.117    -5086222.06449  -3942907.19945  23725264.511    23725272.171
       208.000         145.000
 02  7  1 16 20  0.0000000  0 10G17G21G23G18G 6G30G29G10G15G22
  21163280.954    -3920139.91949  -3048156.28347  21163280.076    21163286.168
       240.000         204.000
  24405416.810    -3538980.98049  -2745293.27145  24405415.083    24405424.469
       219.000         153.000
  20999310.610     1827689.25149   1423675.24248  20999309.700    20999315.375
       248.000         213.000
  21721651.022    -8652758.30149  -6722460.96246  21721649.585    21721654.339
       237.000         179.000
  20275553.856    -1220635.85149   -946484.88948  20275553.356    20275558.199
       248.000         213.000
                   9238678.54149   -199551.92543
       199.000          74.000
  22579890.429    -3967958.75249  -3084286.85246  22579890.247    22579896.849
       228.000         178.000
  23803944.122     8993951.02249   6776050.07445  23803943.333    23803951.897
       216.000         156.000
  21544703.415    -5734170.46349  -4459758.76647  21544702.543    21544709.215
       237.000         190.000
  23719228.667    -5117949.43249  -3967629.80045  23719229.479    23719237.353
       215.000         148.000
 02  7  1 16 20 30.0000000  0 10G17G21G23G18G 6G30G29G10G15G22
  21157737.094    -3949273.69049  -3070857.91347  21157736.014    21157742.270
       239.000         204.000
  24388222.530    -3629336.01649  -2815699.60845  24388219.737    24388231.559
       216.000         152.000
  21007604.196     1871272.11049   1457635.90148  21007603.159    21007608.889
       248.000         214.000
  21707281.280    -8728270.56549  -6781301.65546  21707279.873    21707285.993
       235.000         179.000
  20277946.826    -1208061.08849   -936686.38348  20277946.210    20277951.322
       247.000         213.000
                   9340707.65848   -351171.12643
       189.000          74.000
  22577080.124    -3982726.94649  -3095794.51446  22577079.753    22577085.930
       230.000         178.000
  23823548.958     9096974.23849   6856327.83845  23823547.751    23823556.197
       220.000         156.000
  21535801.592    -5780950.54349  -4496210.73947  21535801.075    21535806.509
       239.000         189.000
  23713291.493    -5149153.93649  -3991945.00145  23713291.130    23713298.324
       215.000         151.000
 02  7  1 16 21  0.0000000  0 10G17G21G23G18G 6G30G29G10G15G22
  21152221.606    -3978257.09849  -3093442.38447  21152220.762    21152226.568
       240.000         203.000
  24371060.920    -3719515.45449  -2885969.17745  24371057.458    24371068.561
       212.000         149.000
  21015971.606     1915242.98849   1491898.90848  21015970.936    21015976.472
       249.000         215.000
  21692982.317    -8803411.27649  -6839852.84446  21692981.751    21692986.905
       237.000         180.000
  20280430.802    -1195007.67949   -926514.90748  20280430.230    20280435.420
       247.000         213.000
                   9442751.92048   -271659.90943
       191.000          74.000
  22574368.177    -3996978.78549  -3106899.81946  22574367.381    22574373.642
       229.000         177.000
  23843171.622     9200089.92849   6936677.65345  23843170.756    23843178.900
       216.000         155.000
  21526931.855    -5827560.74049  -4532530.35346  21526930.546    21526936.410
       238.000         187.000
  23707453.630    -5179833.24749  -4015850.91545  23707451.983    23707460.596
       214.000         153.000
 02  7  1 16 21 30.0000000  0 10G17G21G23G18G 6G30G29G10G15G22
  21146734.931    -4007090.07949  -3115909.62947  21146734.051    21146740.159
       240.000         203.000
  24353933.340    -3809517.47849  -2956100.44045  24353932.383    24353942.107
       217.000         147.000
  21024412.540     1959599.82849   1526462.66848  21024411.833    21024417.553
       250.000         216.000
  21678754.594    -8878179.27049  -6898113.58946  21678753.991    21678758.955
       239.000         181.000
  20283005.995    -1181474.73449   -915969.76948  20283004.968    20283010.951
       245.000         213.000
                   9544808.40248   -192140.87043
       190.000          74.000
  22571754.646    -4010712.97649  -3117601.77346  22571753.550    22571760.602
       228.000         176.000
  23862811.564     9303295.87249   7017097.79745  23862809.980    23862816.290
       216.000         153.000
  21518094.567    -5874001.05449  -4568717.57546  21518093.114    21518099.370
       238.000         187.000
  23701715.478    -5209986.42649  -4039346.86445  23701714.794    23701722.654
       217.000         153.000
 02  7  1 16 22  0.0000000  0 10G17G21G23G18G 6G30G29G10G15G22
  21141276.373    -4035774.69649  -3138261.27947  21141275.340    21141281.329
       239.000         202.000
  24336840.575    -3899343.03949  -3026094.17445  24336838.937    24336848.320
       223.000         149.000
  21032926.151     2004338.84749   1561324.23848  21032925.159    21032930.921
       250.000         217.000
  21664597.581    -8952575.18349  -6956084.39746  21664596.742    21664601.252
       238.000         182.000
  20285672.095    -1167463.51349   -905051.94547  20285671.412    20285676.869
       246.000         212.000
                   9646872.72548   -342377.17243
       193.000          74.000
  22569239.554    -4023930.17949  -3127900.85146  22569239.820    22569245.258
       229.000         176.000
  23882467.639     9406588.05349   7097585.11245  23882466.413    23882474.010
       211.000         149.000
  21509289.075    -5920273.19849  -4604773.76647  21509287.610    21509294.026
       237.000         188.000
  23696077.236    -5239614.89149  -4062433.99045  23696075.518    23696083.163
       213.000         152.000
 02  7  1 16 22 30.0000000  0 10G17G21G23G18G 6G30G29G10G15G22
  21135846.280    -4064310.10249  -3160496.64847  21135845.319    21135851.661
       239.000         202.000
  24319781.483    -3988990.22849  -3095948.95745  24319780.686    24319790.489
       218.000         150.000
  21041512.180     2049458.90049   1596482.70248  21041511.155    21041517.081
       249.000         217.000
  21650511.588    -9026596.79949  -7013763.54246  21650510.454    21650515.507
       237.000         182.000
  20288429.588    -1152972.72049   -893760.43247  20288428.993    20288434.710
       245.000         211.000
                   9748942.82548   -262853.11643
       191.000          74.000
  22566823.194    -4036628.69549  -3137795.78246  22566822.324    22566829.032
       230.000         177.000
  23902139.743     9509964.98749   7178138.48545  23902136.755    23902145.132
       209.000         146.000
  21500515.877    -5966376.44549  -4640698.36347  21500514.693    21500521.135
       239.000         190.000
  23690538.768    -5268717.35049  -4085111.18545  23690536.253    23690548.058
       213.000         153.000
 02  7  1 16 23  0.0000000  0 10G17G21G23G18G 6G30G29G10G15G22
  21130444.536    -4092696.67849  -3182616.05547  21130443.358    21130449.645
       239.000         202.000
  24302756.241    -4078457.43149  -3165663.51145  24302755.952    24302765.164
       220.000         149.000
  21050170.379     2094957.58949   1631936.20948  21050169.041    21050174.951
       248.000         216.000
  21636497.140    -9100242.95149  -7071150.12646  21636496.505    21636500.830
       240.000         184.000
  20291278.516    -1138001.88349   -882094.86347  20291278.310    20291283.337
       246.000         211.000
                   9851015.73749   -183333.78743
       196.000          74.000
  22564505.646    -4048807.58849  -3147285.80446  22564505.738    22564510.991
       229.000         176.000
  23921827.309     9613424.14649   7258755.93045  23921826.284    23921833.821
       211.000         144.000
  21491774.921    -6012310.94349  -4676491.45447  21491773.315    21491780.054
       237.000         191.000
  23685101.363    -5297293.31549  -4107378.14545  23685100.656    23685110.760
       215.000         153.000
 02  7  1 16 23 30.0000000  0 10G17G21G23G18G 6G30G29G10G15G22
  21125070.976    -4120934.88349  -3204619.83847  21125069.818    21125076.053
       239.000         201.000
  24285765.910    -4167743.96749  -3235237.26945  24285765.754    24285772.483
       221.000         148.000
  21058900.035     2140832.60949   1667682.96848  21058899.118    21058904.616
       248.000         215.000
  21622554.419    -9173512.88349  -7128243.53746  21622553.308    21622558.959
       239.000         185.000
  20294218.863    -1122550.82449   -870055.08447  20294218.465    20294223.521
       245.000         211.000
                   9953088.17048   -334508.01043
       192.000          74.000
  22562287.080    -4060466.10049  -3156370.32946  22562286.374    22562292.419
       229.000         176.000
  23941530.102     9716962.78449   7339435.32545  23941528.225    23941535.795
       210.000         147.000
  21483065.842    -6058077.15449  -4712153.43047  21483064.044    21483071.225
       235.000         190.000
  23679763.883    -5325342.70149  -4129234.80245  23679762.282    23679771.296
       212.000         152.000
 02  7  1 16 24  0.0000000  0 10G17G21G23G18G 6G30G29G10G15G22
  21119725.956    -4149023.40749  -3226506.99347  21119724.759    21119731.318
       239.000         201.000
  24268810.133    -4256847.34249  -3304668.31545  24268807.724    24268815.035
       220.000         147.000
  21067701.308     2187083.26149   1703722.42248  21067700.305    21067706.072
       247.000         214.000
  21608683.623    -9246403.81849  -7185041.63246  21608682.420    21608687.623
       238.000         185.000
  20297250.986    -1106617.55449   -857639.56047  20297250.476    20297255.903
       246.000         211.000
                  10055158.76348   -254968.12743
       192.000          74.000
  22560167.802    -4071602.05749  -3165047.67546  22560166.841    22560173.191
       227.000         177.000
  23961247.653     9820579.96649   7420175.90645  23961246.354    23961254.600
       211.000         149.000
  21474389.020    -6103673.65949  -4747683.15747  21474388.021    21474395.100
       237.000         190.000
  23674526.934    -5352863.59649  -4150679.62945  23674526.406    23674532.569
       212.000         153.000
 02  7  1 16 24 30.0000000  0 10G17G21G23G18G 6G30G29G10G15G22
  21114409.177    -4176962.79449  -3248277.91947  21114407.970    21114414.290
       239.000         201.000
  24251889.215    -4345766.36649  -3373955.68145  24251886.239    24251894.558
       218.000         147.000
  21076573.459     2233706.95849   1740052.57047  21076572.572    21076577.960
       246.000         212.000
  21594885.039    -9318915.02349  -7241543.82746  21594884.323    21594889.490
       240.000         186.000
  20300374.872    -1090202.10849   -844848.31447  20300374.493    20300379.355
       244.000         210.000
                  10157224.43249   -175428.26343
       199.000          74.000
  22558148.173    -4082214.72749  -3173317.25546  22558146.750    22558153.376
       226.000         176.000
  23980979.886     9924272.83049   7500975.46045  23980978.574    23980986.463
       212.000         151.000
  21465744.616    -6149100.88049  -4783080.97047  21465743.385    21465750.234
       238.000         191.000
  23669390.686    -5379855.92149  -4171712.59645  23669390.182    23669396.403
       213.000         153.000
 02  7  1 16 25  0.0000000  0 10G17G21G23G18G 6G30G29G10G15G22
  21109120.577    -4204754.24149  -3269933.58647  21109119.631    21109125.389
       239.000         200.000
  24235003.516    -4434500.98349  -3443099.34545  24235000.638    24235012.324
       216.000         149.000
  21085516.040     2280700.36449   1776670.80647  21085514.962    21085520.751
       244.000         211.000
  21581158.922    -9391046.40649  -7297750.06346  21581157.845    21581163.578
       240.000         187.000
  20303590.316    -1073305.10249   -831681.82647  20303589.408    20303595.151
       241.000         210.000
                  10259281.04049   -326467.89743
       196.000          74.000
  22556228.047    -4092304.63249  -3181179.49446  22556227.209    22556234.008
       228.000         176.000
  24000725.685    10028037.91449   7581831.31145  24000723.265    24000733.032
       211.000         149.000
  21457131.966    -6194360.14449  -4818347.89747  21457130.797    21457137.667
       238.000         192.000
  23664354.898    -5406320.54049  -4192334.36045  23664351.960    23664361.808
       210.000         156.000
 02  7  1 16 25 30.0000000  0 10G17G21G23G18G 6G30G29G10G15G22
  21103860.440    -4232396.49349  -3291472.98247  21103859.172    21103865.867
       239.000         200.000
  24218152.909    -4523048.26649  -3512097.09545  24218150.413    24218161.187
       213.000         150.000
  21094528.694     2328062.94649   1813576.69447  21094527.413    21094533.500
       244.000         210.000
  21567505.433    -9462795.44649  -7353658.37146  21567504.337    21567509.977
       238.000         186.000
  20306897.601    -1055924.44649   -818138.46947  20306896.988    20306902.380
       242.000         210.000
                  10361327.33548   -246953.57343
       174.000          74.000
  22554408.006    -4101869.07049  -3188632.27346  22554406.959    22554413.434
       227.000         177.000
  24020484.403    10131874.49749   7662742.89245  24020482.376    24020494.193
       198.000         144.000
  21448551.616    -6239449.99449  -4853482.79947  21448550.108    21448557.230
       238.000         193.000
  23659419.190    -5432255.55749  -4212543.41645  23659417.706    23659426.903
       214.000         156.000
 02  7  1 16 26  0.0000000  0  9G17G21G23G18G 6G29G10G15G22
  21098628.826    -4259888.39549  -3312895.22447  21098627.584    21098634.225
       239.000         200.000
  24201338.488    -4611406.19149  -3580947.27745  24201338.262    24201347.624
       215.000         150.000
  21103611.401     2375793.47849   1850769.30247  21103610.285    21103616.156
       243.000         209.000
  21553925.135    -9534159.82449  -7409266.94346  21553924.309    21553929.375
       241.000         187.000
  20310297.280    -1038058.74049   -804217.15047  20310296.304    20310302.224
       240.000         208.000
  22552688.257    -4110906.18049  -3195674.15446  22552688.309    22552694.109
       230.000         179.000
  24040256.156    10235781.31749   7743709.19745  24040253.779    24040263.200
       199.000         137.000
  21440003.725    -6284369.31049  -4888484.84547  21440002.845    21440009.232
       238.000         193.000
  23654585.222    -5457659.31549  -4232338.54345  23654583.972    23654591.710
       216.000         156.000
 02  7  1 16 26 30.0000000  0  9G17G21G23G18G 6G29G10G15G22
  21093425.783    -4287230.60149  -3334200.82747  21093425.166    21093430.966
       240.000         199.000
  24184560.957    -4699573.68149  -3649649.02945  24184556.750    24184568.618
       211.000         149.000
  21112763.666     2423889.25949   1888246.52247  21112763.008    21112768.508
       245.000         208.000
  21540418.308    -9605139.06549  -7464575.40247  21540417.639    21540422.505
       241.000         188.000
  20313789.186    -1019708.13649   -789917.98747  20313788.317    20313794.306
       240.000         207.000
  22551069.093    -4119415.83049  -3202305.02846  22551068.530    22551075.356
       227.000         180.000
  24060041.959    10339755.35449   7824727.88545  24060040.650    24060050.584
       203.000         132.000
  21431488.180    -6329118.73649  -4923354.51847  21431486.730    21431493.592
       236.000         192.000
  23649852.131    -5482532.33349  -4251720.10345  23649851.898    23649857.842
       217.000         155.000
 02  7  1 16 27  0.0000000  0  9G17G21G23G18G 6G29G10G15G22
  21088250.808    -4314425.71149  -3355391.81847  21088249.998    21088256.075
       240.000         200.000
  24167818.631    -4787551.73349  -3718203.20245  24167814.450    24167826.317
       209.000         148.000
  21121984.929     2472346.10349   1926005.08347  21121984.624    21121989.410
       245.000         208.000
  21526984.605    -9675734.00349  -7519584.41847  21526983.879    21526988.233
       241.000         188.000
  20317373.106    -1000874.31349   -775242.29047  20317372.456    20317377.971
       240.000         206.000
  22549549.785    -4127399.40749  -3208525.98546  22549548.732    22549555.414
       225.000         179.000
  24079840.419    10443792.28249   7905795.56444  24079840.144    24079847.603
       208.000         130.000
  21423004.517    -6373700.23749  -4958093.34847  21423003.683    21423009.611
       238.000         192.000
  23645219.522    -5506876.29849  -4270689.40945  23645216.297    23645225.109
       211.000         153.000
 02  7  1 16 27 30.0000000  0  9G17G21G23G18G 6G29G10G15G22
  21083104.115    -4341471.97249  -3376466.80247  21083103.341    21083109.127
       240.000         200.000
  24151113.094    -4875338.06349  -3786607.96945  24151112.713    24151121.574
       219.000         150.000
  21131274.681     2521163.18349   1964044.36247  21131273.694    21131278.608
       246.000         207.000
  21513624.407    -9745942.07249  -7574291.98447  21513623.718    21513628.069
       240.000         188.000
  20321049.438     -981555.31949   -760188.53947  20321049.020    20321054.176
       241.000         207.000
  22548131.068    -4134854.24049  -3214334.93046  22548129.934    22548136.857
       223.000         177.000
  24099650.307    10547891.61849   7986911.82244  24099648.810    24099655.765
       210.000         129.000
  21414553.206    -6418112.44849  -4992700.24047  21414551.455    21414558.150
       237.000         191.000
  23640687.552    -5530689.60049  -4289245.19745  23640685.114    23640694.530
       210.000         152.000
 02  7  1 16 28  0.0000000  0  9G17G21G23G18G 6G29G10G15G22
  21077985.552    -4368370.37149  -3397426.58547  21077984.595    21077990.788
       240.000         200.000
  24134445.099    -4962932.22349  -3854862.99945  24134444.282    24134452.407
       220.000         154.000
  21140632.237     2570337.61449   2002362.08647  21140631.565    21140637.164
       246.000         208.000
  21500337.929    -9815763.10449  -7628697.94947  21500336.946    21500341.626
       240.000         189.000
  20324818.063     -961751.58049   -744757.06947  20324817.622    20324822.907
       240.000         207.000
  22546812.893    -4141780.71449  -3219732.18046  22546811.957    22546818.306
       223.000         177.000
  24119471.263    10652050.02549   8068074.07744  24119470.398    24119475.678
       209.000         127.000
  21406133.728    -6462356.33649  -5027175.96847  21406132.893    21406138.282
       239.000         190.000
  23636256.860    -5553972.37849  -4307387.59145  23636257.120    23636265.764
       215.000         153.000
 02  7  1 16 28 30.0000000  0  9G17G21G23G18G 6G29G10G15G22
  21072895.022    -4395121.31549  -3418271.47247  21072894.029    21072899.682
       240.000         201.000
  24117813.599    -5050332.95649  -3922967.30945  24117811.706    24117821.483
       219.000         156.000
  21150057.395     2619867.03049   2040956.42047  21150055.991    21150062.074
       245.000         208.000
  21487125.203    -9885196.16749  -7682801.60147  21487123.894    21487128.878
       239.000         189.000
  20328678.893     -941463.12149   -728947.89147  20328678.319    20328683.784
       240.000         206.000
  22545595.476    -4148178.05649  -3224717.10946  22545595.579    22545601.095
       226.000         177.000
  24139302.662    10756265.02949   8149280.49044  24139302.659    24139307.997
       207.000         125.000
  21397746.428    -6506432.11049  -5061520.68347  21397745.599    21397750.780
       239.000         189.000
  23631927.619    -5576724.85849  -4325116.78645  23631929.376    23631936.202
       218.000         154.000
 02  7  1 16 29  0.0000000  0  9G17G21G23G18G 6G29G10G15G22
  21067832.689    -4421724.21849  -3439000.99347  21067831.704    21067837.650
       240.000         201.000
  24101218.754    -5137538.84349  -3990919.82145  24101217.115    24101226.866
       220.000         158.000
  21159549.631     2669749.71949   2079826.02747  21159549.039    21159554.409
       246.000         209.000
  21473986.472    -9954239.62049  -7736601.67147  21473985.489    21473990.644
       240.000         189.000
  20332632.024     -920689.00549   -712760.28147  20332631.652    20332637.018
       241.000         206.000
  22544479.170    -4154045.27749  -3229288.94746  22544478.402    22544485.333
       225.000         178.000
  24159144.332    10860534.89049   8230529.62844  24159143.283    24159151.589
       199.000         122.000
  21389391.309    -6550339.23649  -5095733.99447  21389389.814    21389396.415
       238.000         189.000
  23627700.325    -5598946.16749  -4342432.11645  23627698.944    23627706.094
       217.000         156.000
 02  7  1 16 29 30.0000000  0  9G17G21G23G18G 6G29G10G15G22
  21062798.651    -4448178.25249  -3459614.51547  21062797.589    21062803.298
       239.000         201.000
  24084661.394    -5224547.24749  -4058718.47145  24084660.447    24084668.286
       223.000         158.000
  21169109.091     2719984.60849   2118970.07747  21169108.341    21169114.166
       247.000         210.000
  21460922.521   -10022891.39249  -7790096.52847  21460921.793    21460925.962
       242.000         190.000
  20336677.895     -899427.83249   -696193.15547  20336676.991    20336683.017
       239.000         205.000
  22543463.734    -4159380.36749  -3233446.14946  22543462.496    22543469.511
       224.000         177.000
  24178996.280    10964858.36348   8311820.54944  24178990.473    24179005.432
       194.000         117.000
  21381068.297    -6594076.67849  -5129815.09647  21381067.035    21381073.188
       237.000         191.000
  23623572.698    -5620635.25349  -4359332.67645  23623568.944    23623578.226
       213.000         157.000
 02  7  1 16 30  0.0000000  0  9G17G21G23G18G 6G29G10G15G22
  21057792.930    -4474483.20149  -3480111.87347  21057791.834    21057797.657
       238.000         200.000
  24068142.206    -5311357.06949  -4126362.35645  24068141.193    24068148.654
       224.000         159.000
  21178735.105     2770569.73949   2158387.04147  21178734.587    21178739.518
       246.000         210.000
  21447933.350   -10091150.13649  -7843285.12747  21447932.895    21447937.302
       242.000         192.000
  20340816.504     -877678.87849   -679245.93747  20340815.806    20340821.599
       239.000         205.000
  22542549.827    -4164182.56249  -3237188.11146  22542548.938    22542555.816
       222.000         176.000
  24198858.507    11069233.54249   8393151.79744  24198857.659    24198864.687
       197.000         116.000
  21372777.655    -6637644.24749  -5163763.83047  21372776.215    21372783.408
       238.000         193.000
  23619545.980    -5641791.66049  -4375818.16345  23619544.140    23619552.767
       219.000         159.000
 02  7  1 16 30 30.0000000  0  9G17G21G23G18G 6G29G10G15G22
  21052815.441    -4500640.20549  -3500493.94447  21052814.860    21052820.435
       238.000         200.000
  24051660.598    -5397968.22549  -4193851.44645  24051658.513    24051667.292
       222.000         160.000
  21188427.226     2821501.82849   2198074.37547  21188426.398    21188432.269
       247.000         210.000
  21435018.967   -10159016.11049  -7896167.67647  21435017.836    21435022.523
       242.000         192.000
  20345047.872     -855443.04249   -661919.33247  20345046.897    20345053.055
       238.000         203.000
  22541737.192    -4168452.43849  -3240515.27646  22541735.691    22541743.297
       223.000         176.000
  24218729.831    11173656.99748   8474520.63444  24218729.133    24218732.317
       193.000         112.000
  21364518.933    -6681042.95249  -5197580.98947  21364518.042    21364524.830
       238.000         194.000
  23615621.371    -5662416.31049  -4391889.32046  23615620.546    23615629.258
       221.000         163.000
 02  7  1 16 31  0.0000000  0  9G17G21G23G18G 6G29G10G15G22
  21047866.240    -4526648.19649  -3520759.90647  21047864.986    21047871.343
       237.000         200.000
  24035216.826    -5484378.63749  -4261184.10545  24035215.736    24035224.760
       222.000         161.000
  21198185.122     2872779.73749   2238031.15847  21198183.863    21198190.060
       245.000         210.000
  21422179.506   -10226487.22849  -7948742.54747  21422178.385    21422182.843
       243.000         192.000
  20349372.080     -832718.90349   -644212.22847  20349371.853    20349376.945
       240.000         203.000
  22541026.451    -4172187.93149  -3243426.02646  22541026.892    22541032.541
       227.000         177.000
  24238608.950    11278127.61448   8555926.22144  24238607.261    24238616.175
       190.000         113.000
  21356292.781    -6724271.71349  -5231265.70547  21356291.737    21356297.797
       238.000         195.000
  23611798.314    -5682507.88649  -4407545.06746  23611797.353    23611806.082
       222.000         165.000
 02  7  1 16 31 30.0000000  0  9G17G21G23G18G 6G29G10G15G22
  21042945.371    -4552507.25649  -3540909.81847  21042944.553    21042950.399
       237.000         200.000
  24018811.937    -5570586.58049  -4328358.99446  24018811.663    24018819.825
       223.000         163.000
  21208008.292     2924401.20949   2278255.66847  21208007.192    21208012.775
       244.000         209.000
  21409415.491   -10293562.45949  -8001008.93547  21409414.841    21409419.363
       243.000         193.000
  20353789.375     -809506.30949   -626124.52347  20353788.725    20353794.314
       239.000         203.000
  22540417.500    -4175388.84649  -3245920.22946  22540417.833    22540422.498
       226.000         178.000
  24258497.154    11382643.08548   8637366.73744  24258497.861    24258502.764
       193.000         115.000
  21348099.026    -6767330.62349  -5264818.07547  21348098.319    21348104.368
       237.000         194.000
  23608076.385    -5702066.46049  -4422785.48746  23608074.230    23608083.269
       219.000         164.000
 02  7  1 16 32  0.0000000  0  9G17G21G23G18G 6G29G10G15G22
  21038052.630    -4578218.23049  -3560944.33247  21038051.730    21038057.684
       237.000         200.000
  24002445.780    -5656592.41549  -4395376.36146  24002445.093    24002451.736
       225.000         164.000
  21217896.296     2976363.29449   2318745.58647  21217895.457    21217901.657
       244.000         209.000
  21396726.866   -10360241.63949  -8052966.70947  21396725.735    21396730.945
       243.000         195.000
  20358299.509     -785805.92249   -607656.71747  20358299.103    20358304.164
       239.000         202.000
  22539910.246    -4178055.15549  -3247997.85146  22539909.775    22539916.174
       225.000         177.000
  24278393.813    11487200.60148   8718840.04644  24278392.509    24278402.197
       187.000         114.000
  21339937.313    -6810220.64849  -5298238.84647  21339936.140    21339942.236
       236.000         193.000
  23604455.203    -5721092.79649  -4437611.19045  23604453.127    23604460.652
       217.000         160.000
 02  7  1 16 32 30.0000000  0  9G17G21G23G18G 6G29G10G15G22
  21033188.364    -4603780.08449  -3580862.65747  21033187.297    21033194.003
       237.000         201.000
  23986118.098    -5742393.69649  -4462234.37346  23986116.057    23986124.947
       221.000         163.000
  21227849.040     3028664.95549   2359500.11347  21227848.446    21227854.051
       244.000         210.000
  21384113.965   -10426522.44349  -8104614.05347  21384112.837    21384117.788
       243.000         195.000
  20362902.513     -761616.42749   -588807.78347  20362901.637    20362907.025
       238.000         202.000
  22539504.814    -4180185.21349  -3249657.63546  22539504.366    22539510.541
       224.000         176.000
  24298297.407    11591798.94848   8800345.20444  24298292.162    24298304.128
       182.000         113.000
  21331807.938    -6852940.58749  -5331527.08347  21331807.207    21331814.020
       236.000         192.000
  23600936.089    -5739585.49749  -4452021.05845  23600935.033    23600942.371
       219.000         157.000
 02  7  1 16 33  0.0000000  0  9G17G21G23G18G 6G29G10G15G22
  21028352.497    -4629193.10249  -3600664.99947  21028351.885    21028358.178
       238.000         202.000
  23969829.050    -5827989.46749  -4528932.25746  23969827.134    23969835.549
       222.000         163.000
  21237865.847     3081303.63149   2400517.24447  21237864.302    21237870.900
       242.000         209.000
  21371576.979   -10492404.49249  -8155950.69347  21371575.786    21371580.566
       243.000         195.000
  20367598.646     -736937.89749   -569577.78747  20367598.275    20367603.308
       239.000         202.000
  22539201.602    -4181778.62549  -3250899.25546  22539201.575    22539207.145
       226.000         177.000
  24318208.756    11696435.65348   8881880.33044  24318209.384    24318220.025
       181.000         111.000
  21323711.031    -6895490.69449  -5364682.98347  21323709.933    21323716.294
       235.000         193.000
  23597518.854    -5757544.98649  -4466015.47245  23597518.718    23597523.794
       219.000         156.000
 02  7  1 16 33 30.0000000  0  9G17G21G23G18G 6G29G10G15G22
  21023544.940    -4654457.38149  -3620351.43847  21023543.813    21023549.904
       237.000         202.000
  23953579.769    -5913378.54849  -4595469.07746  23953579.102    23953588.032
       221.000         164.000
  21247946.261     3134277.23649   2441795.35747  21247945.304    21247951.548
       243.000         209.000
  21359115.984   -10557886.77649  -8206975.82447  21359115.092    21359120.487
       244.000         196.000
  20372387.951     -711770.04349   -549966.50747  20372387.789    20372392.886
       239.000         202.000
  22539000.515    -4182835.24149  -3251722.57646  22539000.025    22539005.829
       229.000         178.000
  24338127.550    11801108.49349   8963443.53344  24338132.272    24338138.296
       195.000         115.000
  21315646.368    -6937870.78949  -5397706.42847  21315645.066    21315652.034
       233.000         193.000
  23594202.917    -5774971.22549  -4479594.38145  23594201.394    23594210.023
       219.000         156.000
 02  7  1 16 34  0.0000000  0  9G17G21G23G18G 6G29G10G15G22
  21018765.059    -4679575.01549  -3639923.61747  21018764.102    21018770.481
       237.000         202.000
  23937370.063    -5998561.72149  -4661845.44846  23937369.414    23937377.067
       223.000         165.000
  21258089.707     3187581.31849   2483330.97847  21258088.601    21258094.489
       243.000         208.000
  21346731.088   -10622970.19349  -8257690.14047  21346730.216    21346735.150
       243.000         197.000
  20377270.119     -686114.80349   -529975.44647  20377269.640    20377274.991
       239.000         203.000
  22538901.455    -4183356.44149  -3252128.69346  22538901.123    22538906.578
       230.000         178.000
  24358053.184    11905813.57149   9045031.80044  24358055.999    24358060.529
       197.000         122.000
  21307613.460    -6980083.08449  -5430599.10747  21307611.947    21307619.405
       232.000         192.000
  23590987.759    -5791866.16549  -4492759.26545  23590986.720    23590995.549
       220.000         156.000
 02  7  1 16 34 30.0000000  0  9G17G21G23G18G 6G29G10G15G22
  21014013.493    -4704545.11949  -3659380.82947  21014012.452    21014018.944
       238.000         202.000
  23921199.795    -6083537.29149  -4728060.05346  23921198.219    23921207.328
       224.000         164.000
  21268295.860     3241214.55249   2525123.10347  21268295.365    21268300.786
       244.000         209.000
  21334422.363   -10687653.15149  -8308092.42347  21334421.787    21334426.323
       245.000         197.000
  20382245.196     -659971.18749   -509603.81147  20382244.846    20382249.950
       238.000         202.000
  22538904.267    -4183340.88049  -3252116.55946  22538903.222    22538910.370
       230.000         180.000
  24377985.002    12010549.45449   9126644.10744  24377987.251    24377994.479
       202.000         124.000
  21299612.820    -7022126.53849  -5463360.24747  21299611.596    21299618.591
       230.000         191.000
  23587874.043    -5808229.06249  -4505509.57445  23587873.465    23587879.979
       219.000         155.000
 02  7  1 16 35  0.0000000  0  9G17G21G23G18G 6G29G10G15G22
  21009289.966    -4729367.13049  -3678722.65447  21009288.982    21009295.518
       237.000         202.000
  23905068.966    -6168303.67749  -4794111.68246  23905068.545    23905077.276
       223.000         166.000
  21278564.370     3295175.22749   2567170.36247  21278563.467    21278569.049
       242.000         209.000
  21322190.204   -10751934.16749  -8358181.50847  21322189.715    21322193.949
       244.000         198.000
  20387313.299     -633338.42349   -488851.02547  20387312.807    20387317.667
       239.000         202.000
  22539009.509    -4182787.61949  -3251685.44146  22539008.929    22539015.686
       231.000         181.000
  24397922.416    12115314.52249   9208279.13944  24397922.130    24397930.211
       199.000         123.000
  21291644.253    -7064000.85349  -5495989.56947  21291643.172    21291649.818
       232.000         190.000
  23584862.060    -5824059.46349  -4517844.94445  23584860.761    23584868.292
       218.000         154.000
 02  7  1 16 35 30.0000000  0  9G17G21G23G18G 6G29G10G15G22
  21004594.733    -4754040.64749  -3697948.76547  21004594.232    21004600.265
       238.000         203.000
  23888978.315    -6252859.02549  -4859998.85946  23888977.275    23888986.352
       224.000         166.000
  21288894.594     3349461.66849   2609471.46647  21288893.895    21288899.338
       242.000         208.000
  21310034.625   -10815812.03249  -8407956.43247  21310033.581    21310038.191
       244.000         198.000
  20392474.617     -606216.05349   -467716.73947  20392474.334    20392479.083
       240.000         202.000
  22539217.339    -4181695.59349  -3250834.52246  22539216.835    22539223.131
       233.000         182.000
  24417863.812    12220106.96649   9289935.54544  24417863.815    24417872.937
       195.000         117.000
  21283708.033    -7105705.39449  -5528486.59447  21283706.856    21283713.471
       234.000         190.000
  23581950.951    -5839356.92449  -4529765.04245  23581949.386    23581956.033
       218.000         152.000
 02  7  1 16 36  0.0000000  0  9G17G21G23G18G 6G29G10G15G22
  20999927.900    -4778565.11149  -3717058.73047  20999926.883    20999932.985
       239.000         203.000
  23872928.308    -6337201.93149  -4925720.49546  23872926.597    23872935.677
       221.000         166.000
  21299286.659     3404072.15949   2652025.07647  21299285.901    21299291.980
       243.000         208.000
  21297956.049   -10879285.17349  -8457416.00847  21297954.313    21297960.082
       242.000         198.000
  20397729.181     -578603.37049   -446200.39047  20397728.526    20397733.558
       240.000         203.000
  22539527.976    -4180064.05349  -3249563.18946  22539528.739    22539533.887
       235.000         184.000
  24437810.541    12324925.40748   9371612.15044  24437807.898    24437812.040
       194.000         113.000
  21275804.430    -7147239.39849  -5560850.71247  21275803.308    21275809.557
       235.000         191.000
  23579141.332    -5854120.99649  -4541269.50645  23579139.521    23579146.285
       216.000         151.000
 02  7  1 16 36 30.0000000  0  9G17G21G23G18G 6G29G10G15G22
  20995289.347    -4802940.61449  -3736052.60847  20995288.314    20995294.837
       239.000         203.000
  23856918.390    -6421331.98649  -4991276.26946  23856916.241    23856927.207
       220.000         166.000
  21309740.091     3459004.25449   2694829.29247  21309739.484    21309745.106
       244.000         209.000
  21285954.442   -10942352.85049  -8506559.63347  21285953.711    21285958.812
       244.000         199.000
  20403077.039     -550500.51149   -424302.07447  20403076.614    20403081.332
       239.000         202.000
  22539941.384    -4177892.77749  -3247871.27046  22539941.373    22539947.026
       235.000         184.000
  24457761.793    12429767.50749   9453307.23244                  24457758.336
       195.000         110.000
  21267933.223    -7188603.26349  -5593082.26047  21267932.497    21267938.623
       236.000         192.000
  23576432.868    -5868352.06049  -4552358.64345  23576430.147    23576439.158
       212.000         148.000
 02  7  1 16 37  0.0000000  0  9G17G21G23G18G 6G29G10G15G22
  20990679.320    -4827166.30549  -3754929.75947  20990678.316    20990684.890
       238.000         203.000
  23840949.956    -6505246.40149  -5056664.00746  23840949.264    23840957.404
       223.000         167.000
  21320254.440     3514256.65749   2737883.10547  21320253.596    21320259.152
       243.000         209.000
  21274030.659   -11005013.37049  -8555385.98847  21274029.946    21274034.407
       245.000         201.000
  20408518.371     -521906.63749   -402021.14847  20408518.057    20408522.478
       241.000         203.000
  22540457.590    -4175180.67149  -3245757.91846  22540456.836    22540462.275
       233.000         181.000
  24477717.096    12534632.18748   9535019.90744                  24477708.985
       193.000         106.000
  21260094.638    -7229795.76949  -5625180.28547  21260093.853    21260100.022
       236.000         192.000
  23573825.683    -5882049.26549  -4563031.77545  23573825.160    23573831.477
       217.000         150.000
 02  7  1 16 37 30.0000000  0  9G17G21G23G18G 6G29G10G15G22
  20986097.592    -4851243.21349  -3773690.97047  20986096.528    20986102.707
       239.000         203.000
  23825022.654    -6588945.73649  -5121884.15146  23825022.940    23825030.570
       223.000         168.000
  21330828.920     3569826.10649   2781183.94747  21330827.785    21330833.971
       243.000         209.000
  21262184.188   -11067267.16249  -8603895.41447  21262183.077    21262187.800
       244.000         201.000
  20414052.900     -492822.75149   -379358.40647  20414052.466    20414056.790
       242.000         203.000
  22541076.358    -4171928.36349  -3243223.65646  22541075.368    22541081.372
       231.000         178.000
  24497675.814    12639515.89248   9616747.42744                  24497671.505
       194.000         106.000
  21252288.499    -7270818.22849  -5657145.82647  21252287.557    21252293.517
       233.000         191.000
  23571321.225    -5895213.87749  -4573289.93945  23571320.634    23571327.127
       217.000         151.000
 02  7  1 16 38  0.0000000  0  9G17G21G23G18G 6G29G10G15G22
  20981544.295    -4875170.73349  -3792335.77447  20981543.460    20981549.742
       240.000         203.000
  23809136.370    -6672428.43149  -5186935.49946  23809135.468    23809145.010
       226.000         169.000
  21341463.434     3625710.92849   2824730.54647  21341462.203    21341468.156
       243.000         209.000
  21250415.253   -11129112.69749  -8652086.71947  21250414.634    21250419.111
       245.000         202.000
  20419680.851     -463248.10549   -356313.24247  20419680.230    20419685.479
       241.000         204.000
  22541798.192    -4168134.69749  -3240267.55046  22541796.999    22541803.331
       230.000         177.000
  24517637.501    12744417.43948   9698488.79644                  24517634.115
       190.000         104.000
  21244514.580    -7311669.98349  -5688978.35047  21244512.800    21244520.117
       231.000         191.000
  23568917.478    -5907845.47849  -4583132.75145  23568916.209    23568923.347
       216.000         151.000
 02  7  1 16 38 30.0000000  0  9G17G21G23G18G 6G29G10G15G22
  20977019.297    -4898949.61349  -3810864.75147  20977018.392    20977024.759
       238.000         203.000
  23793291.728    -6755694.17149  -5251817.78746  23793290.538    23793298.985
       222.000         167.000
  21352157.329     3681908.10449   2868520.52947  21352156.220    21352162.118
       242.000         208.000
  21238724.149   -11190549.97349  -8699959.89347  21238723.628    21238727.835
       246.000         204.000
  20425401.898     -433183.54449   -332886.33847  20425401.109    20425406.438
       240.000         203.000
  22542622.987    -4163800.45149  -3236890.20846  22542621.938    22542628.169
       228.000         177.000
                  12849334.11848   -216513.02143
       181.000          74.000
  21236772.885    -7352351.62249  -5720678.31747  21236771.589    21236778.080
       233.000         190.000
  23566614.909    -5919945.09249  -4592561.00745  23566612.694    23566622.787
       217.000         153.000
 02  7  1 16 39  0.0000000  0  9G17G21G23G18G 6G29G10G15G22
  20972522.789    -4922578.99349  -3829277.24347  20972521.805    20972527.844
       238.000         202.000
  23777488.236    -6838741.29849  -5316529.72646  23777487.308    23777495.257
       221.000         165.000
  21362910.469     3738416.16349   2912552.78047  21362909.625    21362915.629
       244.000         208.000
  21227111.253   -11251577.12549  -8747513.49747  21227110.237    21227115.036
       245.000         205.000
  20431216.284     -402628.33549   -309077.09547  20431215.254    20431220.912
       240.000         202.000
  22543550.612    -4158924.45449  -3233090.72746  22543550.215    22543555.721
       229.000         176.000
                  12954264.58458   -134743.90343
       182.000          74.000
  21229064.052    -7392862.38449  -5752245.12247  21229062.816    21229069.027
       234.000         191.000
  23564414.318    -5931512.07149  -4601574.26945  23564414.765    23564420.386
       220.000         155.000
 02  7  1 16 39 30.0000000  0  9G17G21G23G18G 6G29G10G15G22
  20968054.648    -4946059.07949  -3847573.40147  20968053.279    20968059.824
       236.000         201.000
  23761726.718    -6921568.48949  -5381070.29346  23761726.139    23761734.303
       224.000         164.000
  21373722.296     3795232.60949   2956825.31947  21373721.640    21373727.787
       244.000         208.000
  21215576.089   -11312193.98849  -8794747.40347  21215574.823    21215579.927
       244.000         205.000
  20437123.928     -371582.79149   -284885.79147  20437122.844    20437128.866
       239.000         202.000
  22544581.502    -4153506.86149  -3228869.21646  22544580.422    22544586.498
       225.000         174.000
                  13059206.37058    -52950.92843
       172.000          74.000
  21221387.614    -7433202.24849  -5783678.75847  21221386.330    21221393.002
       235.000         192.000
  23562314.982    -5942547.07849  -4610173.01045  23562313.999    23562323.555
       218.000         156.000
 02  7  1 16 40  0.0000000  0  9G17G21G23G18G 6G29G10G15G22
  20963614.765    -4969389.58849  -3865753.00647  20963614.162    20963620.239
       236.000         199.000
  23746007.603    -7004174.02449  -5445438.15546  23746006.552    23746014.871
       223.000         165.000
  21384592.514     3852355.41749   3001336.59947  21384591.395    21384597.946
       243.000         208.000
  21204119.303   -11372399.29949  -8841660.60347  21204118.674    21204123.158
       246.000         206.000
  20443124.977     -340046.56349   -260312.12147  20443123.940    20443129.949
       240.000         201.000
  22545715.217    -4147547.15249  -3224225.28946  22545713.907    22545721.721
       225.000         172.000
                  13164157.97848   -209389.85043
       178.000          74.000
  21213743.786    -7473371.03549  -5814979.08147  21213742.462    21213748.896
       235.000         192.000
  23560316.277    -5953050.08249  -4618357.14545  23560314.114    23560324.812
       213.000         155.000
 02  7  1 16 40 30.0000000  0  9G17G21G23G18G 6G29G10G15G22
  20959203.746    -4992570.19249  -3883815.80947  20959202.716    20959209.647
       235.000         199.000
  23730330.492    -7086557.43449  -5509632.91946  23730329.265    23730337.631
       222.000         165.000
  21395520.505     3909782.55049   3046084.98747  21395519.640    21395525.846
       243.000         208.000
  21192741.228   -11432192.28549  -8888252.51247  21192740.291    21192745.214
       246.000         207.000
  20449219.336     -308019.51649   -235355.99947  20449218.571    20449224.223
       239.000         200.000
  22546952.645    -4141044.83349  -3219158.54246  22546952.380    22546957.669
       227.000         173.000
                  13269117.47848   -127595.13043
       190.000          74.000
  21206132.376    -7513368.42749  -5846145.85247  21206131.091    21206138.088
       236.000         193.000
  23558418.508    -5963021.13849  -4626126.78945  23558416.488    23558424.732
       214.000         152.000
 02  7  1 16 41  0.0000000  0  9G17G21G23G18G 6G29G10G15G22
  20954820.785    -5015603.02049  -3901763.46847  20954819.690    20954826.085
       235.000         198.000
  23714695.247    -7168720.07249  -5573655.64546  23714694.279    23714702.781
       222.000         165.000
  21406505.687     3967509.94049   3091067.34247  21406504.485    21406510.440
       242.000         206.000
  21181441.174   -11491574.22649  -8934524.14847  21181440.034    21181445.499
       245.000         208.000
  20455406.800     -275503.81149   -210019.11247  20455406.347    20455411.624
       239.000         199.000
  22548292.874    -4134001.79449  -3213670.43046  22548292.632    22548297.206
       229.000         176.000
                  13374080.81048    -45759.35443
       185.000          74.000
  21198553.374    -7553196.26249  -5877180.51947  21198552.667    21198558.998
       238.000         196.000
  23556621.681    -5972462.55949  -4633483.77545  23556620.701    23556626.447
       215.000         149.000
 02  7  1 16 41 30.0000000  0  9G17G21G23G18G 6G29G10G15G22
  20950466.218    -5038487.03949  -3919595.16547  20950465.684    20950471.357
       237.000         198.000
  23699102.530    -7250660.16449  -5637504.98246  23699101.234    23699109.438
       221.000         165.000
  21417547.535     4025535.84549   3136282.31447  21417546.741    21417552.261
       243.000         206.000
  21170219.631   -11550543.47949  -8980474.20347  21170218.862    21170223.805
       246.000         208.000
  20461687.508     -242498.96149   -184301.07447  20461687.209    20461692.278
       240.000         198.000
  22549736.332    -4126417.39849  -3207760.47446  22549736.612    22549742.115
       232.000         179.000
                  13479046.66148     36078.43443
       174.000          74.000
  21191006.956    -7592853.80849  -5908082.48747  21191005.812    21191012.462
       239.000         198.000
  23554925.450    -5981374.16949  -4640427.84945  23554922.407    23554932.323
       213.000         147.000
 02  7  1 16 42  0.0000000  0  9G17G21G23G18G 6G29G10G15G22
  20946140.555    -5061219.42649  -3937308.70947  20946139.859    20946146.235
       236.000         198.000
  23683552.837    -7332373.68449  -5701177.75346  23683550.249    23683560.440
       220.000         165.000
  21428646.592     4083860.95949   3181730.43747  21428645.687    21428651.010
       243.000         205.000
  21159077.408   -11609096.60349  -9026099.99947  21159076.596    21159081.008
       246.000         208.000
  20468061.886     -209002.06849   -158199.63147  20468061.816    20468066.823
       242.000         199.000
  22551283.456    -4118288.42149  -3201426.18446  22551283.032    22551288.956
       229.000         180.000
                  13584016.02848   -120767.17643
       181.000          74.000
  21183493.337    -7632338.21149  -5938849.54447  21183492.563    21183498.797
       241.000         200.000
  23553330.402    -5989753.32749  -4646957.06245  23553329.369    23553338.138
       219.000         147.000
 02  7  1 16 42 30.0000000  0  9G17G21G23G18G 6G29G10G15G22
  20941843.048    -5083803.15749  -3954906.41647  20941842.154    20941848.315
       237.000         200.000
  23668046.217    -7413861.80949  -5764674.91146  23668045.913    23668053.733
       222.000         164.000
  21439801.329     4142480.08749   3227407.66047  21439800.005    21439806.263
       242.000         203.000
  21148013.885   -11667235.94849  -9071403.36147  21148012.725    21148017.113
       245.000         207.000
  20474529.318     -175016.36849   -131717.29347  20474529.148    20474534.006
       241.000         199.000
  22552933.369    -4109617.68149  -3194669.77046  22552932.160    22552939.471
       227.000         180.000
                  13688983.87348    -39086.09643
       180.000          74.000
  21176012.252    -7671652.34049  -5969483.90347  21176011.242    21176017.316
       241.000         201.000
  23551837.069    -5997603.44049  -4653074.07645  23551836.133    23551841.827
       219.000         149.000
 02  7  1 16 43  0.0000000  0  9G17G21G23G18G 6G29G10G15G22
  20937573.418    -5106240.55249  -3972390.09147  20937573.080    20937578.336
       238.000         200.000
  23652582.050    -7495127.10249  -5827998.43346  23652580.849    23652589.512
       221.000         164.000
  21451011.153     4201388.48149   3273310.27147  21451010.175    21451016.260
       241.000         202.000
  21137028.714   -11724963.19149  -9116385.61647  21137027.460    21137032.534
       244.000         207.000
  20481089.229     -140544.44549   -104856.08247  20481089.117    20481094.154
       242.000         199.000
  22554686.017    -4100407.78649  -3187493.25146  22554685.406    22554691.719
       227.000         180.000
                  13793946.70458     42591.24643
       179.000          74.000
  21168562.905    -7710798.59749  -5999987.46647  21168561.910    21168568.117
       240.000         201.000
  23550443.411    -6004927.52349  -4658781.15845  23550441.948    23550448.764
       215.000         152.000
 02  7  1 16 43 30.0000000  0  8G17G21G23G18G 6G29G15G22
  20933333.250    -5128523.15749  -3989753.15447  20933332.426    20933338.335
       238.000         201.000
  23637161.933    -7576160.30049  -5891141.09946  23637159.855    23637168.941
       220.000         163.000
  21462277.161     4260592.10049   3319442.95047  21462275.926    21462282.167
       240.000         202.000
  21126123.643   -11782269.50349  -9161039.87047  21126122.750    21126128.083
       245.000         209.000
  20487743.161     -105578.17749    -77609.67447  20487742.531    20487747.609
       242.000         199.000
  22556542.688    -4090650.31649  -3179890.04746  22556541.661    22556548.720
       227.000         179.000
  21161147.262    -7749768.37749  -6030353.51447  21161146.513    21161152.408
       241.000         201.000
  23549150.863    -6011717.64549  -4664072.16645  23549149.423    23549156.732
       216.000         153.000
 02  7  1 16 44  0.0000000  0  8G17G21G23G18G 6G29G15G22
  20929122.413    -5150650.99749  -4006995.61547  20929121.631    20929127.755
       238.000         201.000
  23621786.130    -7656959.91649  -5954101.77645  23621784.609    23621792.832
       219.000         162.000
  21473598.870     4320088.70949   3365803.92547  21473598.337    21473603.738
       240.000         201.000
  21115298.806   -11839154.27349  -9205365.64347  21115297.963    21115303.062
       246.000         209.000
  20494491.065      -70117.76749    -49978.21347  20494490.889    20494495.460
       245.000         199.000
  22558503.496    -4080345.30549  -3171860.16246  22558502.544    22558509.600
       228.000         178.000
  21153765.049    -7788561.65449  -6060582.00947  21153763.674    21153770.385
       240.000         201.000
  23547960.624    -6017974.07549  -4668947.34145  23547962.035    23547967.885
       219.000         155.000
 02  7  1 16 44 30.0000000  0  8G17G21G23G18G 6G29G15G22
  20924939.691    -5172631.81249  -4024123.51147  20924938.806    20924944.712
       238.000         201.000
  23606453.253    -7737533.16349  -6016886.05945  23606451.843    23606460.515
       217.000         161.000
  21484974.734     4379868.14449   3412385.28547  21484973.962    21484979.840
       239.000         201.000
  21104552.958   -11895624.59249  -9249368.46647  21104551.573    21104556.703
       244.000         209.000
  20501331.530      -34171.48449    -21968.15047  20501331.134    20501335.928
       244.000         199.000
  22560567.217    -4069500.80849  -3163409.90446  22560567.064    22560573.025
       226.000         177.000
  21146414.881    -7827186.38749  -6090679.18747  21146413.573    21146419.623
       239.000         200.000
  23546870.979    -6023705.49549  -4673413.44145  23546869.531    23546877.854
       211.000         154.000
 02  7  1 16 45  0.0000000  0  8G17G21G23G18G 6G29G15G22
  20920785.557    -5194461.92149  -4041133.98547  20920784.372    20920790.418
       236.000         201.000
  23591164.090    -7817875.67349  -6079490.53745  23591162.338    23591171.735
       218.000         161.000
  21496404.334     4439931.70349   3459188.04347  21496402.950    21496409.808
       238.000         201.000
  21093886.514   -11951676.46349  -9293045.23047  21093885.737    21093890.349
       246.000         209.000
  20508265.048        2264.03249      6423.13147  20508264.764    20508269.524
       244.000         200.000
  22562733.973    -4058113.02649  -3154536.32146  22562733.155    22562739.862
       226.000         175.000
  21139097.680    -7865638.61749  -6120641.95147  21139097.018    21139102.506
       241.000         200.000
  23545879.977    -6028908.81249  -4677467.97045  23545875.480    23545886.118
       205.000         150.000
 02  7  1 16 45 30.0000000  0  8G17G21G23G18G 6G29G15G22
  20916660.181    -5216140.41949  -4058026.32147  20916659.108    20916665.007
       238.000         200.000
  23575919.873    -7897985.81649  -6141913.94246  23575919.481    23575926.981
       220.000         164.000
  21507887.783     4500278.04449   3506211.14347  21507887.010    21507892.767
       239.000         201.000
  21083300.061   -12007308.57549  -9336394.90847  21083299.376    21083303.972
       246.000         209.000
  20515291.757       39189.29649     35196.04247  20515291.179    20515296.032
       244.000         200.000
  22565004.659    -4046181.48749  -3145239.01546  22565003.423    22565009.963
       222.000         174.000
  21131813.526    -7903917.68849  -6150469.77847  21131812.870    21131818.476
       241.000         200.000
  23544989.319    -6033583.83749  -4681110.82745  23544987.434    23544997.432
       212.000         150.000
 02  7  1 16 46  0.0000000  0  8G17G21G23G18G 6G29G15G22
  20912563.645    -5237668.14549  -4074801.17447  20912562.174    20912568.341
       237.000         200.000
  23560720.006    -7977863.47649  -6204156.17846  23560719.583    23560727.534
       219.000         165.000
  21519424.660     4560904.07449   3553452.20047  21519423.803    21519429.844
       239.000         201.000
  21072793.537   -12062521.20849  -9379417.72047  21072792.579    21072797.420
       245.000         210.000
  20522411.449       76603.27949     64349.76247  20522410.861    20522416.076
       245.000         200.000
  22567378.114    -4033706.89249  -3135518.56646  22567378.409    22567385.583
       222.000         172.000
  21124562.094    -7942024.26549  -6180163.20647  21124561.251    21124566.956
       242.000         200.000
  23544200.762    -6037731.89949  -4684343.13845  23544201.768    23544206.152
       219.000         153.000
 02  7  1 16 46 30.0000000  0  8G17G21G23G18G 6G29G15G22
  20908494.982    -5259048.36249  -4091461.06947  20908493.991    20908499.995
       237.000         199.000
  23545563.344    -8057511.33549  -6266219.34146  23545560.847    23545569.938
       217.000         165.000
  21531013.462     4621804.04649   3600906.71347  21531012.400    21531019.314
       237.000         201.000
  21062366.083   -12117317.20449  -9422115.87547  21062364.868    21062369.884
       244.000         209.000
  20529623.250      114502.08749     93881.26947  20529622.428    20529627.332
       245.000         200.000
  22569854.753    -4020693.03749  -3125377.90146  22569854.155    22569860.079
       223.000         172.000
  21117342.908    -7979961.75449  -6209724.86947  21117342.158    21117348.188
       244.000         200.000
  23543511.398    -6041357.01849  -4687167.93045  23543511.556    23543516.263
       221.000         156.000
 02  7  1 16 47  0.0000000  0  8G17G21G23G18G 6G29G15G22
  20904455.160    -5280277.27949  -4108003.07847  20904454.108    20904460.236
       238.000         199.000
  23530451.038    -8136924.81249  -6328099.88846  23530449.149    23530458.696
       218.000         165.000
  21542654.721     4682979.56749   3648575.92547  21542653.581    21542660.226
       238.000         201.000
  21052018.793   -12171692.30449  -9464486.05847  21052018.431    21052022.386
       247.000         209.000
  20536928.049      152889.16849    123793.24447  20536927.321    20536932.772
       245.000         200.000
  22572434.702    -4007136.15949  -3114814.09446  22572435.038    22572440.475
       228.000         175.000
  21110156.698    -8017726.20549  -6239151.69047  21110155.653    21110161.508
       244.000         201.000
  23542921.655    -6044456.16849  -4689582.86345  23542920.036    23542927.191
       222.000         155.000
 02  7  1 16 47 30.0000000  0  8G17G21G23G18G 6G29G15G22
  20900444.419    -5301353.73849  -4124426.29147  20900443.574    20900449.536
       236.000         199.000
  23515383.847    -8216102.26349  -6389796.51846  23515383.379    23515390.891
       222.000         166.000
  21554348.139     4744429.20649   3696458.75847  21554347.496    21554353.135
       239.000         201.000
  21041752.094   -12225644.98249  -9506527.07747  21041751.259    21041755.707
       246.000         210.000
  20544325.828      191765.17349    154086.20147  20544325.599    20544330.879
       244.000         201.000
  22575118.295    -3993035.51549  -3103826.56546  22575117.851    22575122.884
       224.000         175.000
  21103003.482    -8055316.53949  -6268442.84347  21103002.635    21103008.307
       243.000         201.000
  23542432.027    -6047028.99549  -4691587.65545  23542429.185    23542436.643
       218.000         154.000
 02  7  1 16 48  0.0000000  0  8G17G21G23G18G 6G29G15G22
  20896462.538    -5322278.36649  -4140731.18447  20896461.341    20896467.298
       237.000         199.000
  23500362.115    -8295043.25749  -6451308.89546  23500360.119    23500367.963
       222.000         165.000
  21566093.333     4806149.87749   3744552.78147  21566093.364    21566099.001
       241.000         202.000
  21031565.459   -12279175.58849  -9548239.22047  21031564.461    21031569.388
       245.000         210.000
  20551816.599      231128.65249    184759.00247  20551815.974    20551821.283
       245.000         202.000
  22577904.745    -3978392.19249  -3092416.16246  22577904.602    22577909.703
       225.000         174.000
  21095883.421    -8092733.44049  -6297598.84947  21095882.444    21095888.117
       244.000         201.000
  23542041.917    -6049077.13049  -4693183.59345  23542039.725    23542048.323
       218.000         153.000
 02  7  1 16 48 30.0000000  0  8G17G21G23G18G 6G29G15G22
  20892509.272    -5343052.51949  -4156918.82747  20892508.487    20892514.561
       238.000         199.000
  23485385.008    -8373748.62749  -6512637.63546  23485383.777    23485393.298
       225.000         167.000
  21577889.431     4868137.82149   3792855.06347  21577888.998    21577895.142
       241.000         204.000
  21021458.987   -12332284.87449  -9589623.07147  21021458.187    21021462.975
       245.000         210.000
  20559399.662      270978.02149    215810.42747  20559399.374    20559404.471
       245.000         201.000
  22580794.239    -3963207.73349  -3080584.11846  22580792.053    22580799.977
       221.000         172.000
  21088795.953    -8129978.17249  -6326620.69347  21088794.272    21088800.609
       241.000         201.000
  23541752.050    -6050602.49849  -4694372.19545  23541751.984    23541757.900
       219.000         152.000
 02  7  1 16 49  0.0000000  0  8G17G21G23G18G 6G29G15G22
  20888585.288    -5363673.27449  -4172986.94047  20888584.414    20888590.306
       239.000         199.000
  23470453.242    -8452215.18649  -6573780.31946  23470451.864    23470460.570
       223.000         170.000
  21589736.349     4930393.42849   3841365.91047  21589735.387    21589741.325
       241.000         203.000
  21011433.303   -12384970.01849  -9630676.39647  21011432.828    21011437.139
       246.000         211.000
  20567075.707      311315.56849    247242.25947  20567074.511    20567079.919
       243.000         200.000
  22583786.766    -3947479.74649  -3068328.53746  22583785.750    22583792.713
       222.000         173.000
  21081741.521    -8167047.80449  -6355506.10547  21081740.245    21081746.636
       242.000         200.000
  23541561.716    -6051603.22049  -4695151.97645  23541560.747    23541567.720
       215.000         151.000
 02  7  1 16 49 30.0000000  0  8G17G21G23G18G 6G29G15G22
  20884690.715    -5384139.48449  -4188934.62547  20884690.110    20884695.491
       239.000         199.000
  23455567.058    -8530440.60349  -6634735.11646  23455566.689    23455574.882
       224.000         171.000
  21601633.924     4992915.74349   3890084.58047  21601632.981    21601639.159
       240.000         202.000
  21001488.720   -12437229.43149  -9671397.98647  21001487.813    21001492.634
       245.000         211.000
  20574844.538      352141.92749    279054.97047  20574844.112    20574849.239
       244.000         200.000
  22586883.205    -3931207.34449  -3055648.74846  22586882.427    22586889.858
       224.000         176.000
  21074721.076    -8203941.10449  -6384254.11147  21074719.915    21074726.127
       242.000         201.000
  23541470.722    -6052078.97749  -4695522.68945  23541467.631    23541477.260
       213.000         150.000
 02  7  1 16 50  0.0000000  0  8G17G21G23G18G 6G29G15G22
  20880825.072    -5404453.72149  -4204763.90147  20880824.376    20880830.037
       239.000         199.000
  23440726.868    -8608427.00949  -6695503.66046  23440725.733    23440734.287
       226.000         170.000
  21613581.139     5055699.49349   3939006.95147  21613580.310    21613586.437
       240.000         201.000
  20991624.612   -12489065.14849  -9711789.45047  20991623.891    20991628.700
       245.000         212.000
  20582705.965      393453.72449    311245.94947  20582705.360    20582710.935
       243.000         200.000
  22590082.859    -3914393.54849  -3042547.09146  22590082.561    22590089.448
       227.000         181.000
  21067733.386    -8240660.91449  -6412866.94047  21067732.023    21067738.322
       242.000         201.000
  23541479.549    -6052033.30949  -4695487.13645  23541478.424    23541485.333
       214.000         150.000
 02  7  1 16 50 30.0000000  0  8G17G21G23G18G 6G29G15G22
  20876988.122    -5424617.22549  -4220475.71347  20876987.392    20876992.982
       239.000         199.000
  23425932.169    -8686174.34349  -6756085.92846  23425931.965    23425937.997
       225.000         170.000
  21625577.594     5118741.34949   3988130.45347  21625577.284    21625582.419
       241.000         200.000
  20981841.025   -12540478.00349  -9751851.39648  20981840.374    20981845.263
       246.000         213.000
  20590659.348      435249.28249    343813.88447  20590658.913    20590664.250
       242.000         200.000
  22593385.249    -3897040.03649  -3029024.87546  22593384.895    22593391.979
       228.000         183.000
  21060778.570    -8277208.18049  -6441345.31247  21060777.377    21060783.252
       242.000         201.000
  23541587.253    -6051468.18449  -4695046.81345  23541587.038    23541595.813
       217.000         151.000
 02  7  1 16 51  0.0000000  0  8G17G21G23G18G 6G29G15G22
  20873180.169    -5444628.16249  -4236068.64247  20873179.339    20873184.860
       238.000         199.000
  23411183.351    -8763680.79949  -6816480.47746  23411183.075    23411189.278
       227.000         170.000
  21637623.195     5182040.62649   4037454.54747  21637622.466    21637627.841
       242.000         200.000
  20972138.333   -12591466.14049  -9791582.39448  20972137.771    20972142.113
       246.000         213.000
  20598705.001      477529.59249    376759.54647  20598704.564    20598710.394
       243.000         200.000
  22596790.550    -3879145.66249  -3015081.21646  22596790.208    22596796.712
       229.000         184.000
  21053857.035    -8313581.29049  -6469687.97347  21053856.159    21053862.223
       243.000         202.000
  23541794.122    -6050382.95349  -4694201.21845  23541794.045    23541802.398
       214.000         149.000
 02  7  1 16 51 30.0000000  0  8G17G21G23G18G 6G29G15G22
  20869401.150    -5464486.82549  -4251542.92947  20869400.485    20869405.630
       239.000         198.000
  23396480.432    -8840946.04149  -6876687.08946  23396478.765    23396487.281
       223.000         171.000
  21649717.128     5245594.43649   4086976.97447  21649716.603    21649722.421
       241.000         201.000
  20962516.475   -12642029.77749  -9830982.61747  20962515.782    20962520.197
       245.000         212.000
  20606842.778      520293.73349    410082.21447  20606842.640    20606847.826
       244.000         200.000
  22600298.677    -3860711.18849  -3000716.70546  22600298.379    22600304.803
       228.000         183.000
  21046968.533    -8349780.76249  -6497895.34347  21046967.618    21046973.614
       243.000         203.000
  23542099.618    -6048778.92249  -4692951.35945  23542099.204    23542104.758
       208.000         148.000
 02  7  1 16 52  0.0000000  0  8G17G21G23G18G 6G29G15G22
  20865651.794    -5484190.49649  -4266896.42947  20865651.190    20865656.239
       240.000         198.000
  23381823.650    -8917966.81549  -6936703.22346  23381821.402    23381830.465
       222.000         170.000
  21661859.662     5309403.19749   4136698.06547  21661858.917    21661864.854
       240.000         201.000
  20952975.854   -12692165.85049  -9870049.66948  20952975.037    20952979.968
       245.000         213.000
  20615073.124      563543.80849    443783.54047  20615072.932    20615079.067
       243.000         201.000
  22603909.832    -3841734.29649  -2985929.52646  22603909.769    22603915.208
       229.000         181.000
  21040113.760    -8385803.43849  -6525964.94347  21040112.953    21040118.382
       243.000         202.000
  23542503.178    -6046654.35849  -4691295.85345  23542501.525    23542509.243
       212.000         148.000
 02  7  1 16 52 30.0000000  0  8G17G21G23G18G 6G29G15G22
  20861931.823    -5503739.14549  -4282129.14347  20861931.246    20861936.215
       239.000         198.000
  23367213.556    -8994742.28549  -6996528.20746  23367212.545    23367220.723
       224.000         171.000
  21674050.114     5373464.46949   4186615.91647  21674049.378    21674055.305
       240.000         200.000
  20943516.635   -12741874.15449  -9908783.39948  20943515.866    20943520.749
       246.000         213.000
  20623395.737      607279.26849    477863.09347  20623395.350    20623401.243
       243.000         202.000
  22607624.302    -3822215.56249  -2970720.12146  22607624.377    22607630.532
       230.000         180.000
  21033292.508    -8421649.31249  -6553896.78447  21033291.355    21033297.379
       241.000         202.000
  23543006.584    -6044010.18549  -4689235.47245  23543005.506    23543013.592
       216.000         152.000
 02  7  1 16 53  0.0000000  0  8G17G21G23G18G 6G29G15G22
  20858240.855    -5523135.20949  -4297242.95947  20858240.261    20858245.206
       239.000         197.000
  23352649.870    -9071274.32649  -7056163.50746  23352648.688    23352656.447
       222.000         170.000
  21686287.626     5437773.11749   4236726.53247  21686286.486    21686292.739
       238.000         199.000
  20934138.349   -12791157.08549  -9947185.66748  20934137.548    20934142.311
       245.000         213.000
  20631809.979      651496.57849    512318.11347  20631809.296    20631814.635
       242.000         200.000
  22611441.220    -3802158.23849  -2955091.04146  22611441.035    22611446.831
       228.000         178.000
  21026504.319    -8457321.09649  -6581692.95847  21026503.245    21026509.321
       241.000         201.000
  23543608.127    -6040850.08449  -4686773.09045  23543607.220    23543615.182
       217.000         155.000
 02  7  1 16 53 30.0000000  0  8G17G21G23G18G 6G29G15G22
  20854579.331    -5542376.79149  -4312236.40747  20854578.835    20854584.078
       239.000         197.000
  23338132.827    -9147560.55549  -7115607.25746  23338131.238    23338139.320
       221.000         168.000
  21698572.044     5502328.81849   4287029.64047  21698570.962    21698577.500
       238.000         199.000
  20924841.340   -12840012.72649  -9985254.98148  20924840.564    20924845.319
       245.000         213.000
  20640316.065      696196.99349    547149.55547  20640315.247    20640321.192
       242.000         201.000
  22615360.900    -3781560.95749  -2939041.19346  22615360.552    22615365.488
       229.000         176.000
  21019749.709    -8492816.87749  -6609351.99947  21019748.771    21019754.588
       241.000         201.000
  23544307.485    -6037173.29949  -4683908.07445  23544306.336    23544315.515
       218.000         156.000
 02  7  1 16 54  0.0000000  0  8G17G21G23G18G 6G29G15G22
  20850947.323    -5561463.05649  -4327108.82447  20850946.250    20850952.322
       237.000         197.000
  23323662.832    -9223600.09249  -7174858.80346  23323661.785    23323669.893
       221.000         167.000
  21710903.152     5567129.90649   4337523.97847  21710902.535    21710908.666
       239.000         200.000
  20915625.959   -12888439.72449 -10022990.29748  20915625.364    20915630.031
       245.000         213.000
  20648914.156      741380.75649    582357.63847  20648913.685    20648919.202
       241.000         200.000
  22619383.159    -3760423.62549  -2922570.55146  22619383.167    22619388.508
       228.000         175.000
  21013028.733    -8528135.69449  -6636873.14847  21013027.154    21013033.385
       241.000         201.000
  23545105.357    -6032979.99449  -4680640.57545  23545104.713    23545113.279
       220.000         156.000
 02  7  1 16 54 30.0000000  0  8G17G21G23G18G 6G29G15G22
  20847344.789    -5580394.16349  -4341860.33147  20847343.824    20847349.300
       237.000         196.000
  23309239.809    -9299392.79349  -7233917.98446  23309237.511    23309246.675
       219.000         168.000
  21723280.640     5632173.54249   4388207.32047  21723280.276    21723285.830
       241.000         201.000
  20906492.197   -12936438.36549 -10060391.82048  20906491.797    20906496.466
       246.000         214.000
  20657604.080      787046.69449    617941.46747  20657603.828    20657609.358
       242.000         200.000
  22623508.031    -3738746.94149  -2905679.63246  22623506.992    22623512.159
       227.000         174.000
  21006341.274    -8563277.88649  -6664256.65547  21006340.043    21006346.161
       240.000         201.000
  23546001.712    -6028271.65949  -4676971.76345  23546001.302    23546009.121
       218.000         157.000
 02  7  1 16 55  0.0000000  0  8G17G21G23G18G 6G29G15G22
  20843771.697    -5599170.62849  -4356491.34547  20843770.658    20843776.130
       237.000         195.000
  23294863.601    -9374937.96149  -7292784.27446  23294862.372    23294871.686
       217.000         166.000
  21735703.912     5697456.99449   4439077.52547  21735703.436    21735709.024
       241.000         202.000
  20897439.833   -12984009.17349 -10097459.97848  20897439.174    20897443.742
       244.000         214.000
  20666385.710      833193.50749    653899.99247  20666385.799    20666390.755
       244.000         202.000
  22627735.186    -3716532.29549  -2888369.51946  22627734.186    22627741.048
       228.000         175.000
  20999687.329    -8598243.95049  -6691502.92447  20999686.000    20999692.457
       240.000         201.000
  23546995.511    -6023049.95349  -4672902.90745  23546994.485    23547002.523
       216.000         154.000
 02  7  1 16 55 30.0000000  0  8G17G21G23G18G 6G29G15G22
  20840228.356    -5617790.67149  -4371000.47147  20840227.561    20840233.607
       238.000         195.000
  23280535.189    -9450233.37049  -7351455.96046  23280534.271    23280543.236
       221.000         166.000
  21748172.359     5762979.58249   4490134.07447  21748172.044    21748177.647
       243.000         204.000
  20888469.107   -13031150.20749 -10134193.24848  20888468.454    20888472.815
       245.000         213.000
  20675259.005      879822.02249    690233.85447  20675259.326    20675263.895
       245.000         202.000
  22632064.932    -3693778.77949  -2870639.53846  22632064.088    22632070.723
       228.000         176.000
  20993067.294    -8633032.14549  -6718610.59947  20993066.073    20993072.413
       240.000         201.000
  23548087.010    -6017314.47749  -4668433.73545  23548085.010    23548093.706
       216.000         150.000
 02  7  1 16 56  0.0000000  0  8G17G21G23G18G 6G29G15G22
  20836714.746    -5636255.16949  -4385388.39647  20836713.693    20836719.424
       236.000         195.000
  23266254.369    -9525279.97149  -7409933.79646  23266253.898    23266262.203
       220.000         168.000
  21760685.927     5828738.18149   4541374.51147  21760685.411    21760691.243
       242.000         205.000
  20879580.066   -13077862.50749 -10170592.42847  20879579.428    20879583.755
       244.000         212.000
  20684223.501      926930.34749    726941.60147  20684223.030    20684228.312
       243.000         202.000
  22636496.991    -3670488.08749  -2852490.95846  22636496.490    22636502.373
       230.000         179.000
  20986480.958    -8667643.33749  -6745580.34447  20986479.782    20986485.672
       239.000         200.000
  23549275.856    -6011067.14749  -4663565.70745  23549275.396    23549284.289
       213.000         149.000
 02  7  1 16 56 30.0000000  0  8G17G21G23G18G 6G29G15G22
  20833230.619    -5654563.64949  -4399654.74947  20833229.355    20833235.492
       236.000         194.000
  23252020.801    -9600077.19949  -7468217.30946  23252019.572    23252027.828
       221.000         168.000
  21773243.890     5894730.49749   4592797.06547  21773243.297    21773249.252
       242.000         205.000
  20870772.709   -13124145.53949 -10206657.11247  20870772.095    20870776.646
       243.000         212.000
  20693279.044      974517.98449    764022.83947  20693278.861    20693284.142
       244.000         203.000
  22641031.414    -3646660.31849  -2833923.88346  22641030.731    22641037.686
       231.000         181.000
  20979928.287    -8702077.16349  -6772411.87747  20979927.309    20979933.177
       239.000         200.000
  23550561.786    -6004309.00649  -4658299.64545  23550560.906    23550569.797
       214.000         146.000
 02  7  1 16 57  0.0000000  0  8G17G21G23G18G 6G29G15G22
  20829776.332    -5672715.64049  -4413799.16047  20829775.626    20829781.372
       237.000         194.000
  23237835.101    -9674623.86349  -7526305.55546  23237834.652    23237841.052
       221.000         165.000
  21785846.015     5960954.57949   4644400.22847  21785845.463    21785851.486
       244.000         206.000
  20862047.157   -13169998.80349 -10242386.92547  20862046.156    20862051.351
       243.000         212.000
  20702425.938     1022584.50849    801477.24047  20702425.889    20702431.525
       245.000         204.000
  22645667.675    -3622296.03449  -2814938.72946  22645667.591    22645673.356
       231.000         181.000
  20973409.484    -8736332.92849  -6799104.67447  20973408.921    20973414.672
       240.000         200.000
  23551945.014    -5997040.77849  -4652636.12345  23551942.200    23551950.171
       213.000         145.000
 02  7  1 16 57 30.0000000  0  8G17G21G23G18G 6G29G15G22
  20826352.137    -5690710.58449  -4427821.20247  20826351.607    20826357.139
       237.000         194.000
  23223697.331    -9748918.48249  -7584197.42746  23223697.129    23223705.191
       219.000         165.000
  21798491.739     6027408.41549   4696182.41547  21798490.949    21798497.654
       243.000         206.000
  20853403.321   -13215421.82849 -10277781.48847  20853402.960    20853407.622
       243.000         212.000
  20711663.850     1071129.55249    839304.50547  20711663.664    20711668.683
       244.000         204.000
  22650406.221    -3597395.38849  -2795535.62846  22650406.170    22650412.814
       231.000         182.000
  20966924.932    -8770410.05849  -6825658.25847  20966924.021    20966930.166
       241.000         201.000
  23553425.295    -5989263.34049  -4646575.81945  23553422.815    23553432.845
       212.000         145.000
 02  7  1 16 58  0.0000000  0  8G17G21G23G18G 6G29G15G22
  20822957.550    -5708549.06149  -4441721.30847  20822956.757    20822961.861
       236.000         194.000
  23209607.539    -9822961.64349  -7641893.34546  23209607.153    23209615.276
       219.000         166.000
  21811180.510     6094088.90949   4748141.20547  21811179.994    21811185.697
       243.000         205.000
  20844841.439   -13260415.21849 -10312841.25647  20844840.737    20844845.694
       242.000         211.000
  20720992.325     1120151.39349    877503.30647  20720991.946    20720997.453
       245.000         203.000
  22655246.442    -3571960.39249  -2775716.16046  22655245.810    22655252.023
       230.000         180.000
  20960474.111    -8804309.49749  -6852073.38247  20960473.446    20960479.463
       241.000         202.000
  23555001.520    -5980978.64949  -4640120.23545  23554999.423    23555009.327
       212.000         147.000
 02  7  1 16 58 30.0000000  0  8G17G21G23G18G 6G29G15G22
  20819592.881    -5726230.31349  -4455498.90747  20819592.006    20819597.596
       236.000         194.000
  23195565.692    -9896751.80249  -7699392.10646  23195563.975    23195573.745
       219.000         165.000
  21823912.314     6160994.43949   4800275.37747  21823911.910    21823916.953
       244.000         204.000
  20836361.372   -13304978.39449 -10347565.78347  20836360.778    20836365.424
       242.000         211.000
  20730411.639     1169649.82449    916073.47947  20730411.125    20730417.272
       245.000         203.000
  22660188.358    -3545990.52149  -2755479.90246  22660188.368    22660193.245
       231.000         179.000
  20954057.275    -8838030.13149  -6878349.18247  20954056.389    20954062.524
       241.000         202.000
  23556674.097    -5972187.26649  -4633269.81945  23556674.034    23556683.827
       216.000         149.000
 02  7  1 16 59  0.0000000  0  8G17G21G23G18G 6G29G15G22
  20816258.017    -5743754.40649  -4469154.05247  20816257.235    20816263.168
       235.000         194.000
  23181571.878    -9970288.64649  -7756693.49046  23181571.492    23181579.430
       220.000         166.000
  21836686.442     6228122.42149   4852582.86847  21836685.677    21836691.665
       241.000         202.000
  20827963.172   -13349111.43849 -10381955.15847  20827962.632    20827967.459
       241.000         210.000
  20739921.392     1219623.68749    955014.09947  20739921.291    20739926.896
       246.000         204.000
  22665231.946    -3519487.22849  -2734827.98746  22665232.106    22665236.829
       232.000         179.000
  20947674.528    -8871572.23049  -6904485.86647  20947673.957    20947679.794
       243.000         202.000
  23558443.566    -5962890.85649  -4626025.87145  23558443.649    23558452.210
       216.000         152.000
 02  7  1 16 59 30.0000000  0  8G17G21G23G18G 6G29G15G22
  20812953.244    -5761120.89849  -4482686.38147  20812952.833    20812958.515
       237.000         194.000
  23167626.534   -10043571.82849  -7813797.21946  23167626.916    23167633.357
       224.000         166.000
  21849502.425     6295470.66249   4905061.98447  21849501.505    21849507.888
       241.000         201.000
  20819646.840   -13392813.92549 -10416009.02847  20819646.239    20819651.080
       241.000         210.000
  20749521.440     1270072.43049    994324.78047  20749520.736    20749526.925
       245.000         202.000
  22670376.995    -3492451.01949  -2713760.81946  22670376.785    22670380.922
       231.000         179.000
  20941325.850    -8904935.59849  -6930483.26747  20941324.952    20941330.984
       243.000         203.000
  23560308.597    -5953090.37549  -4618389.12045  23560305.420    23560316.520
       212.000         155.000
 02  7  1 17  0  0.0000000  0  8G17G21G23G18G 6G29G15G22
  20809678.859    -5778328.22049  -4496094.67947  20809677.660    20809684.080
       237.000         194.000
  23153729.914   -10116600.02349  -7870702.23946  23153728.297    23153737.283
       222.000         165.000
  21862360.076     6363038.21049   4957711.99347  21862359.424    21862365.298
       242.000         199.000
  20811412.776   -13436084.65849 -10449726.47347  20811412.049    20811416.569
       241.000         210.000
  20759211.944     1320996.47049   1034005.81447  20759211.977    20759217.481
       246.000         201.000
  22675623.242    -3464881.44649  -2692278.03246  22675623.063    22675628.238
       231.000         178.000
  20935011.304    -8938118.74249  -6956340.24647  20935010.784    20935016.309
       242.000         202.000
  23562269.302    -5942785.70049  -4610359.50945  23562266.602    23562277.837
       216.000         156.000
 02  7  1 17  0 30.0000000  0  8G17G21G23G18G 6G29G15G22
  20806434.493    -5795377.04449  -4509379.48447  20806433.876    20806439.563
       236.000         194.000
  23139881.602   -10189372.95449  -7927408.35246  23139879.025    23139890.023
       219.000         164.000
  21875258.984     6430822.20049   5010530.66647  21875257.964    21875263.789
       239.000         198.000
  20803260.560   -13478924.25749 -10483107.95347  20803259.583    20803264.357
       240.000         209.000
  20768992.747     1372394.05649   1074055.83947  20768992.616    20768997.758
       247.000         200.000
  22680970.815    -3436780.06649  -2670380.86346  22680970.431    22680975.553
       230.000         178.000
  20928731.076    -8971122.04449  -6982057.08247  20928730.192    20928735.844
       242.000         201.000
  23564325.709    -5931978.99449  -4601938.72045  23564323.958    23564332.323
       215.000         155.000
 02  7  1 17  1  0.0000000  0  9G17G21G23G18G 6G 2G29G15G22
  20803220.296    -5812267.70749  -4522541.04547  20803219.741    20803225.775
       237.000         194.000
  23126081.580   -10261890.55349  -7983915.50646  23126080.927    23126088.568
       222.000         165.000
  21888198.395     6498819.54249   5063515.57447  21888197.666    21888203.281
       238.000         196.000
  20795190.255   -13521333.29949 -10516153.94847  20795189.770    20795194.097
       240.000         209.000
  20778863.200     1424263.52949   1114473.56847  20778862.893    20778868.343
       246.000         199.000
  25155254.383    -3847160.89349  -2817060.90345  25155252.321    25155262.581
       209.000         144.000
  22686419.208    -3408148.36749  -2648070.45246  22686418.349    22686423.863
       228.000         177.000
  20922484.823    -9003946.16849  -7007634.30947  20922483.476    20922489.727
       241.000         201.000
  23566477.145    -5920672.29249  -4593128.34145  23566476.048    23566484.897
       213.000         151.000
 02  7  1 17  1 30.0000000  0  9G17G21G23G18G 6G 2G29G15G22
  20800035.787    -5829003.00549  -4535581.53547  20800035.495    20800041.150
       238.000         195.000
  23112330.332   -10334155.04649  -8040225.44546  23112330.317    23112337.268
       222.000         164.000
  21901177.569     6567025.31949   5116662.90647  21901176.521    21901182.809
       237.000         194.000
  20787201.432   -13563314.79249 -10548866.78247  20787201.020    20787205.287
       240.000         209.000
  20788822.743     1476601.19749   1155256.13047  20788822.358    20788828.243
       245.000         197.000
  25148214.041    -3884159.50149  -2845890.98745  25148215.743    25148222.867
       212.000         143.000
  22691967.594    -3378989.97149  -2625349.64346  22691966.548    22691972.748
       226.000         175.000
  20916272.158    -9036593.67549  -7033073.89447  20916271.596    20916276.593
       242.000         200.000
  23568722.720    -5908869.60849  -4583931.47245  23568720.714    23568730.263
       210.000         148.000
 02  7  1 17  2  0.0000000  0  9G17G21G23G18G 6G 2G29G15G22
  20796882.324    -5845575.23849  -4548494.96647  20796881.648    20796887.382
       237.000         194.000
  23098628.532   -10406158.84949  -8096332.21746  23098627.883    23098634.317
       223.000         164.000
  21914197.186     6635444.43149   5169976.47847  21914195.938    21914202.503
       235.000         192.000
  20779295.458   -13604861.38549 -10581240.73447  20779294.893    20779299.490
       240.000         210.000
  20798872.537     1529413.28949   1196408.35847  20798872.450    20798877.690
       246.000         196.000
  25141253.408    -3920739.27849  -2874394.72745  25141251.384    25141261.473
       204.000         143.000
  22697617.489    -3349298.59549  -2602213.53846  22697617.456    22697622.391
       226.000         174.000
  20910094.689    -9069056.81649  -7058369.82947  20910093.563    20910099.149
       242.000         199.000
  23571063.873    -5896565.23449  -4574343.67445  23571061.853    23571072.537
       210.000         147.000
 02  7  1 17  2 30.0000000  0  9G17G21G23G18G 6G 2G29G15G22
  20793759.541    -5861985.58849  -4561282.25547  20793758.680    20793764.518
       238.000         194.000
  23084976.018   -10477903.06249  -8152236.71646  23084974.795    23084982.944
       221.000         163.000
  21927256.674     6704073.08349   5223453.30647  21927256.276    21927262.465
       237.000         191.000
  20771471.842   -13645974.47449 -10613276.89147  20771471.000    20771475.631
       239.000         210.000
  20809012.156     1582697.24949   1237928.27747  20809011.581    20809017.194
       245.000         196.000
  25134371.266    -3956901.20649  -2902572.75345  25134368.149    25134381.073
       209.000         141.000
  22703368.375    -3319076.85649  -2578664.13246  22703368.165    22703373.137
       225.000         173.000
  20903951.829    -9101337.31949  -7083523.45247  20903950.456    20903956.486
       241.000         199.000
  23573500.189    -5883762.02049  -4564367.17645  23573499.196    23573508.842
       212.000         148.000
 02  7  1 17  3  0.0000000  0  9G17G21G23G18G 6G 2G29G15G22
  20790667.536    -5878234.75349  -4573943.93847  20790666.591    20790672.793
       238.000         195.000
  23071372.906   -10549387.93949  -8207939.13446  23071372.341    23071379.709
       223.000         164.000
  21940355.742     6772908.14949   5277090.97147  21940355.438    21940361.256
       238.000         191.000
  20763730.556   -13686654.98849 -10644975.98347  20763729.819    20763734.677
       240.000         210.000
  20819241.180     1636451.26549   1279814.47247  20819241.129    20819246.044
       246.000         195.000
  25127569.971    -3992645.28049  -2930425.31645  25127569.725    25127577.113
       211.000         139.000
  22709219.997    -3288326.21649  -2554702.59946  22709220.174    22709224.938
       225.000         173.000
  20897843.607    -9133435.39049  -7108534.92347  20897842.635    20897848.355
       241.000         199.000
  23576031.087    -5870462.15049  -4554003.65645  23576028.815    23576039.710
       208.000         148.000
 02  7  1 17  3 30.0000000  0  9G17G21G23G18G 6G 2G29G15G22
  20787605.924    -5894323.65349  -4586480.74547  20787604.991    20787611.110
       237.000         195.000
  23057819.069   -10620614.10749  -8263439.98846  23057818.335    23057825.289
       219.000         166.000
  21953493.469     6841946.18749   5330886.81147  21953492.883    21953498.147
       237.000         190.000
  20756071.337   -13726904.30049 -10676339.06947  20756071.021    20756075.618
       240.000         211.000
  20829559.404     1690673.16249   1322065.24147  20829559.176    20829563.861
       247.000         194.000
  25120847.321    -4027972.55549  -2957953.13245  25120844.421    25120856.600
       207.000         139.000
  22715171.770    -3257049.00949  -2530330.77346  22715170.755    22715177.781
       224.000         171.000
  20891770.006    -9165352.03449  -7133405.01047  20891769.319    20891774.800
       241.000         199.000
  23578655.800    -5856668.02549  -4543255.03845  23578654.967    23578663.401
       210.000         145.000
 02  7  1 17  4  0.0000000  0  9G17G21G23G18G 6G 2G29G15G22
  20784575.171    -5910250.47549  -4598891.26547  20784574.179    20784579.677
       237.000         194.000
  23044314.582   -10691580.27749  -8318738.25646  23044314.423    23044320.703
       221.000         165.000
  21966669.469     6911186.39849   5384840.19647  21966668.762    21966674.119
       237.000         189.000
  20748494.555   -13766720.89049 -10707364.97647  20748494.096    20748498.613
       241.000         211.000
  20839966.721     1745363.27649   1364680.84747  20839966.471    20839971.100
       247.000         195.000
  25114203.786    -4062881.24949  -2985154.69245  25114200.901    25114215.754
       199.000         139.000
  22721223.934    -3225244.81649  -2505548.30646  22721223.984    22721228.937
       224.000         171.000
  20885731.332    -9197085.68449  -7158132.51047  20885730.390    20885736.439
       241.000         200.000
  23581375.496    -5842379.94649  -4532121.53145  23581376.333    23581383.531
       207.000         140.000
 02  7  1 17  4 30.0000000  0  9G17G21G23G18G 6G 2G29G15G22
  20781575.355    -5926014.90349  -4611175.22347  20781574.755    20781580.784
       238.000         194.000
  23030859.956   -10762285.35649  -8373833.05846  23030859.198    23030866.209
       221.000         165.000
  21979883.495     6980626.83449   5438949.59747  21979883.104    21979889.115
       238.000         191.000
  20741000.157   -13806104.55349 -10738053.52947  20740999.465    20741004.180
       240.000         212.000
  20850462.896     1800520.89349   1407660.75547  20850462.385    20850467.515
       247.000         195.000
  25107639.811    -4097370.45849  -3012029.37345  25107640.662    25107648.562
       209.000         136.000
  22727376.058    -3192914.38649  -2480355.78646  22727376.205    22727382.454
       224.000         172.000
  20879727.352    -9228636.04549  -7182717.19747  20879726.176    20879733.029
       240.000         200.000
  23584187.705    -5827599.10949  -4520604.00745  23584183.649    23584196.606
       199.000         136.000
 02  7  1 17  5  0.0000000  0  9G17G21G23G18G 6G 2G29G15G22
  20778606.443    -5941616.48249  -4623332.29947  20778605.401    20778611.741
       237.000         195.000
  23017455.229   -10832728.79049  -8428723.96846  23017453.738    23017462.563
       221.000         166.000
  21993135.271     7050265.16649   5493213.19047  21993134.650    21993140.876
       237.000         192.000
  20733587.962   -13845055.57249 -10768404.95947  20733587.456    20733592.027
       240.000         211.000
  20861047.812     1856144.92449   1451004.11547  20861047.577    20861052.083
       246.000         196.000
  25101157.665    -4131439.62549  -3038576.84745  25101159.509    25101162.619
       208.000         134.000
  22733628.304    -3160058.66149  -2454753.95446  22733627.897    22733634.471
       224.000         173.000
  20873758.528    -9260002.62849  -7207158.67247  20873757.728    20873763.824
       240.000         200.000
  23587092.858    -5812326.87449  -4508703.57045  23587091.366    23587101.581
       205.000         136.000
 02  7  1 17  5 30.0000000  0  9G17G21G23G18G 6G 2G29G15G22
  20775668.098    -5957056.83349  -4635363.74447  20775667.435    20775673.444
       238.000         195.000
  23004099.872   -10902912.16249  -8483412.25546  23004098.044    23004106.323
       217.000         165.000
  22006423.886     7120097.27849   5547627.78647  22006423.070    22006428.978
       236.000         192.000
  20726257.858   -13883575.48249 -10798420.46047  20726257.261    20726261.934
       240.000         211.000
  20871720.887     1912232.43649   1494708.61147  20871720.549    20871725.660
       247.000         197.000
  25094754.895    -4165090.25249  -3064798.16245  25094755.073    25094762.614
       209.000         134.000
  22739980.021    -3126680.51449  -2428745.04146  22739980.259    22739985.831
       223.000         174.000
  20867824.418    -9291187.01349  -7231458.17747  20867822.797    20867829.560
       239.000         200.000
  23590092.553    -5796566.72649  -4496422.98445  23590091.899    23590101.836
       208.000         140.000
 02  7  1 17  6  0.0000000  0  9G17G21G23G18G 6G 2G29G15G22
  20772760.872    -5972334.70749  -4647268.57547  20772760.377    20772766.099
       239.000         195.000
  22990793.871   -10972834.28949  -8537896.97345  22990792.026    22990800.150
       216.000         162.000
  22019749.105     7190122.09549   5602192.53147  22019748.545    22019754.125
       235.000         191.000
  20719009.950   -13921663.67649 -10828099.55947  20719009.268    20719013.859
       240.000         212.000
  20882482.193     1968783.26649   1538774.13847  20882482.049    20882486.920
       248.000         198.000
  25088431.561    -4198320.80649  -3090692.10345  25088428.133    25088439.181
       201.000         135.000
  22746431.146    -3092780.11149  -2402329.17546  22746431.523    22746437.799
       223.000         174.000
  20861925.032    -9322187.99849  -7255614.78047  20861924.290    20861929.937
       238.000         199.000
  23593184.798    -5780319.07449  -4483762.52845  23593184.468    23593193.384
       210.000         145.000
 02  7  1 17  6 30.0000000  0  9G17G21G23G18G 6G 2G29G15G22
  20769885.064    -5987447.17949  -4659044.52147  20769884.108    20769889.856
       238.000         195.000
  22977538.055   -11042492.26249  -8592175.87946  22977537.782    22977544.881
       218.000         163.000
  22033111.086     7260339.71249   5656907.52647  22033110.505    22033116.464
       236.000         192.000
  20711844.643   -13959317.76749 -10857440.39047  20711843.869    20711848.644
       240.000         212.000
  20893331.989     2025798.88049   1583201.83447  20893331.448    20893337.689
       247.000         200.000
  25082186.721    -4231128.84449  -3116256.69245  25082181.207    25082195.395
       205.000         132.000
  22752981.835    -3058356.04649  -2375505.25146  22752981.749    22752987.588
       224.000         174.000
  20856061.273    -9353002.87649  -7279626.36547  20856060.770    20856065.827
       239.000         199.000
  23596369.430    -5763583.12449  -4470721.54445  23596367.755    23596379.516
       211.000         149.000
 02  7  1 17  7  0.0000000  0  9G17G21G23G18G 6G 2G29G15G22
  20767040.373    -6002395.62849  -4670692.65847  20767039.768    20767045.332
       238.000         194.000
  22964332.917   -11111886.69849  -8646249.39746  22964332.643    22964338.421
       216.000         163.000
  22046509.098     7330746.40449   5711769.85147  22046508.200    22046514.751
       236.000         193.000
  20704761.604   -13996539.56749 -10886444.36947  20704761.122    20704765.681
       240.000         212.000
  20904269.647     2083276.43149   1627989.49647  20904269.405    20904275.440
       249.000         203.000
  25076025.040    -4263514.91949  -3141492.63445  25076031.085    25076034.774
       213.000         137.000
  22759631.767    -3023411.02349  -2348275.38946  22759631.535    22759637.221
       223.000         173.000
  20850232.542    -9383633.10949  -7303494.07447  20850231.515    20850237.254
       238.000         198.000
  23599646.294    -5746361.94149  -4457302.45145  23599645.056    23599656.438
       213.000         151.000
 02  7  1 17  7 30.0000000  0  9G17G21G23G18G 6G 2G29G15G22
  20764226.630    -6017181.82749  -4682214.36847  20764226.065    20764231.902
       238.000         194.000
  22951177.047   -11181020.04149  -8700119.46045  22951176.071    22951183.383
       214.000         160.000
  22059942.275     7401337.87849   5766776.17247  22059941.900    22059947.994
       236.000         194.000
  20697760.406   -14033331.09949 -10915113.08447  20697759.529    20697764.262
       238.000         211.000
  20915294.631     2141212.76549   1673134.64047  20915294.273    20915299.925
       248.000         204.000
  25069944.158    -4295480.97449  -3166401.32345  25069944.009    25069947.105
       201.000         136.000
  22766380.011    -2987948.12749  -2320641.99146  22766379.294    22766386.037
       222.000         172.000
  20844438.575    -9414080.20249  -7327219.08047  20844437.696    20844443.273
       239.000         198.000
  23603015.147    -5728659.16549  -4443508.08445  23603015.203    23603024.571
       219.000         154.000
 02  7  1 17  8  0.0000000  0  9G17G21G23G18G 6G 2G29G15G22
  20761444.390    -6031802.40449  -4693607.01947  20761443.542    20761449.747
       239.000         195.000
  22938071.589   -11249888.23949  -8753782.93945  22938070.944    22938079.291
       215.000         161.000
  22073410.743     7472114.92649   5821927.10247  22073410.136    22073416.352
       237.000         194.000
  20690841.462   -14069689.92949 -10943444.62147  20690840.979    20690845.191
       240.000         211.000
  20926407.236     2199609.70849   1718638.69647  20926406.920    20926412.731
       248.000         204.000
  25063939.382    -4327024.05548  -3190980.24644  25063932.121    25063947.930
       187.000         131.000
  22773227.183    -2951965.71149  -2292603.77146  22773226.523    22773232.653
       223.000         171.000
  20838680.146    -9444341.12649  -7350799.00847  20838679.402    20838684.386
       240.000         197.000
  23606476.307    -5710473.45049  -4429337.43445  23606475.407    23606484.634
       218.000         158.000
 02  7  1 17  8 30.0000000  0  9G17G21G23G18G 6G 2G29G15G22
  20758694.228    -6046255.02549  -4704868.79447  20758693.366    20758698.945
       239.000         195.000
  22925017.171   -11318489.36549  -8807238.32646  22925017.021    22925025.549
       219.000         164.000
  22086914.514     7543077.43149   5877222.54347  22086913.628    22086919.795
       237.000         194.000
  20684005.416   -14105614.29049 -10971437.61447  20684004.871    20684009.105
       240.000         210.000
  20937607.610     2258468.02649   1764502.26847  20937606.986    20937612.899
       247.000         204.000
  25058017.400    -4358141.40849  -3215227.47244  25058021.143    25058029.209
       210.000         131.000
  22780173.330    -2915462.96949  -2264160.08946  22780172.864    22780179.074
       223.000         171.000
  20832957.607    -9474413.53549  -7374232.03547  20832956.634    20832961.743
       240.000         197.000
  23610029.037    -5691804.48449  -4414790.23845  23610028.667    23610036.716
       219.000         159.000
 02  7  1 17  9  0.0000000  0  9G17G21G23G18G 6G 2G29G15G22
  20755975.146    -6060543.87049  -4716002.96047  20755974.818    20755980.135
       239.000         195.000
  22912013.006   -11386827.41249  -8860488.74046  22912012.953    22912020.207
       220.000         166.000
  22100452.327     7614218.89949   5932657.43147  22100451.416    22100457.895
       237.000         195.000
  20677251.260   -14141108.24049 -10999095.22647  20677250.547    20677255.077
       238.000         210.000
  20948894.746     2317782.13249   1810721.00447  20948894.562    20948900.750
       246.000         204.000
  25052178.999    -4388836.93849  -3239146.21745  25052182.505    25052184.157
       205.000         133.000
  22787217.687    -2878445.12649  -2235315.04346  22787217.897    22787222.800
       222.000         171.000
  20827270.060    -9504301.51749  -7397521.36947  20827269.391    20827274.598
       241.000         197.000
  23613672.637    -5672658.10849  -4399871.04445  23613672.944    23613681.184
       219.000         161.000
 02  7  1 17  9 30.0000000  0  9G17G21G23G18G 6G 2G29G15G22
  20753287.554    -6074668.28949  -4727008.99147  20753286.848    20753292.527
       239.000         195.000
  22899059.056   -11454901.68249  -8913533.55246  22899058.232    22899065.912
       221.000         164.000
  22114023.747     7685537.03949   5988229.97647  22114023.170    22114029.146
       237.000         196.000
  20670578.791   -14176171.89249 -11026417.53547  20670577.977    20670582.557
       238.000         210.000
  20960268.318     2377550.90349   1857294.02947  20960267.729    20960273.743
       246.000         203.000
  25046418.704    -4419110.59148  -3262736.07944  25046409.192    25046426.895
       182.000         130.000
  22794359.709    -2840913.56749  -2206069.67946  22794360.093    22794365.165
       226.000         172.000
  20821617.819    -9534004.61449  -7420666.62247  20821616.805    20821621.916
       243.000         198.000
  23617406.982    -5653035.92749  -4384581.07145  23617407.669    23617415.554
       220.000         162.000
 02  7  1 17 10  0.0000000  0  9G17G21G23G18G 6G 2G29G15G22
  20750631.839    -6088623.90749  -4737883.50047  20750631.167    20750637.226
       239.000         196.000
  22886155.778   -11522707.89249  -8966369.50446  22886154.925    22886162.798
       223.000         164.000
  22127629.107     7757033.76749   6043941.66847  22127628.382    22127634.731
       238.000         197.000
  20663988.908   -14210801.63349 -11053401.73247  20663987.969    20663992.660
       238.000         210.000
  20971729.058     2437777.14549   1904223.51847  20971728.914    20971733.827
       247.000         203.000
  25040735.809    -4448958.15649  -3285993.77244  25040733.161    25040745.972
       199.000         127.000
  22801600.221    -2802865.47949  -2176421.83646  22801601.490    22801604.715
       227.000         173.000
  20816001.443    -9563518.44249  -7443664.39147  20816000.343    20816006.107
       243.000         198.000
  23621232.088    -5632935.65449  -4368918.55645  23621231.192    23621240.870
       217.000         162.000
 02  7  1 17 10 30.0000000  0  9G17G21G23G18G 6G 2G29G15G22
  20748008.054    -6102412.12949  -4748627.56647  20748007.293    20748013.138
       239.000         196.000
  22873303.515   -11590247.68449  -9018997.86346  22873303.422    22873310.915
       226.000         166.000
  22141267.829     7828705.36749   6099789.63047  22141267.440    22141273.206
       240.000         197.000
  20657481.161   -14244999.49949 -11080049.39647  20657480.314    20657485.234
       238.000         210.000
  20983276.417     2498457.98849   1951507.23747  20983276.110    20983281.612
       245.000         203.000
  25035137.399    -4478380.57949  -3308920.33144  25035139.544    25035141.198
       200.000         126.000
  22808938.570    -2764303.60149  -2146373.63646  22808938.191    22808943.564
       225.000         174.000
  20810420.837    -9592844.28349  -7466515.68547  20810419.826    20810425.341
       242.000         199.000
  23625147.613    -5612360.50349  -4352886.00045  23625147.441    23625156.039
       217.000         162.000
 02  7  1 17 11  0.0000000  0  9G17G21G23G18G 6G 2G29G15G22
  20745415.979    -6116033.69149  -4759241.76147  20745415.378    20745421.081
       240.000         196.000
  22860501.691   -11657521.88149  -9071419.29746  22860500.725    22860509.016
       224.000         166.000
  22154939.251     7900548.17049   6155771.00447  22154938.365    22154944.359
       241.000         197.000
  20651055.389   -14278766.78849 -11106361.55247  20651054.622    20651059.388
       238.000         209.000
  20994909.676     2559590.76949   1999143.12947  20994909.646    20994915.267
       246.000         203.000
  25029619.150    -4507378.96649  -3331516.51644  25029614.998    25029628.542
       198.000         128.000
  22816373.892    -2725230.45049  -2115927.04746  22816372.834    22816379.796
       223.000         174.000
  20804875.842    -9621983.33449  -7489221.41647  20804874.685    20804881.289
       244.000         200.000
  23629153.109    -5591313.54249  -4336485.83145  23629153.597    23629160.696
       220.000         162.000
 02  7  1 17 11 30.0000000  0  9G17G21G23G18G 6G 2G29G15G22
  20742856.171    -6129486.37649  -4769724.36547  20742855.600    20742861.171
       241.000         196.000
  22847750.686   -11724527.92549  -9123631.74646  22847749.082    22847757.239
       226.000         164.000
  22168643.095     7972562.08049   6211885.70547  22168641.998    22168648.132
       241.000         195.000
  20644711.888   -14312101.96549 -11132336.99247  20644711.464    20644715.738
       239.000         209.000
  21006629.106     2621176.16949   2047131.71047  21006628.654    21006635.194
       245.000         204.000
  25024181.776    -4535951.55649  -3353780.84344  25024176.913    25024193.288
       195.000         129.000
  22823906.563    -2685645.66849  -2085081.78046  22823905.509    22823911.800
       222.000         172.000
  20799366.843    -9650933.29649  -7511779.81747  20799365.759    20799372.199
       244.000         200.000
  23633248.240    -5569794.59749  -4319717.87945  23633248.612    23633254.492
       222.000         161.000
 02  7  1 17 12  0.0000000  0  9G17G21G23G18G 6G 2G29G15G22
  20740328.502    -6142769.73949  -4780075.03147  20740327.630    20740333.230
       239.000         196.000
  22835050.666   -11791265.84849  -9175635.26446  22835050.923    22835056.260
       227.000         165.000
  22182379.095     8044744.94349   6268132.04647  22182378.609    22182384.138
       240.000         194.000
  20638450.731   -14345005.31149 -11157975.94047  20638450.178    20638454.547
       240.000         210.000
  21018434.350     2683212.87349   2095471.94747  21018433.941    21018439.984
       245.000         203.000
  25018825.316    -4564097.64849  -3375712.83744  25018825.288    25018834.939
       208.000         131.000
  22831536.262    -2645550.22849  -2053838.62146  22831535.107    22831542.254
       218.000         170.000
  20793893.963    -9679693.70849  -7534190.51547  20793892.808    20793898.505
       243.000         200.000
  23637433.207    -5547805.33849  -4302583.46945  23637431.257    23637438.913
       218.000         158.000
 02  7  1 17 12 30.0000000  0  9G17G21G23G18G 6G 2G29G15G22
  20737833.083    -6155883.27849  -4790293.37147  20737832.188    20737837.422
       240.000         196.000
  22822401.980   -11857735.17349  -9227429.48746  22822402.200    22822409.610
       231.000         167.000
  22196146.890     8117094.94349   6324508.62847  22196146.547    22196151.614
       240.000         193.000
  20632271.758   -14377476.67249 -11183278.27647  20632270.946    20632275.946
       239.000         211.000
  21030325.277     2745699.88649   2144163.07147  21030324.849    21030330.337
       244.000         201.000
  25013550.182    -4591816.84748  -3397312.23344  25013546.722    25013557.018
       193.000         129.000
  22839262.932    -2604945.29749  -2022198.46946  22839261.778    22839269.239
       218.000         169.000
  20788457.137    -9708263.81349  -7556452.92447  20788456.281    20788462.048
       242.000         199.000
  23641706.688    -5525347.31449  -4285083.74445  23641704.319    23641712.762
       216.000         156.000
 02  7  1 17 13  0.0000000  0  9G17G21G23G18G 6G 2G29G15G22
  20735370.173    -6168826.24749  -4800378.79947  20735369.572    20735374.945
       240.000         196.000
  22809804.957   -11923935.42549  -9279014.06646  22809804.081    22809813.651
       232.000         170.000
  22209946.054     8189609.95149   6381013.79247  22209945.155    22209950.691
       238.000         192.000
  20626174.639   -14409516.63449 -11208244.46447  20626173.917    20626178.518
       239.000         211.000
  21042301.529     2808635.93049   2193204.09447  21042301.288    21042306.512
       244.000         200.000
  25008355.810    -4619109.07849  -3418578.91544  25008352.788    25008362.042
       196.000         127.000
  22847086.280    -2563832.35549  -1990162.43446  22847085.672    22847093.066
       220.000         170.000
  20783056.746    -9736643.36749  -7578566.85947  20783056.180    20783062.247
       242.000         200.000
  23646068.993    -5502422.18549  -4267220.03445  23646067.978    23646075.053
       218.000         156.000
 02  7  1 17 13 30.0000000  0  9G17G21G23G18G 6G 2G29G15G22
  20732939.495    -6181599.54949  -4810332.00647  20732938.675    20732944.313
       240.000         197.000
  22797258.674   -11989867.28049  -9330389.48446  22797258.396    22797265.261
       231.000         170.000
  22223775.951     8262286.70749   6437644.98547  22223775.151    22223780.770
       236.000         191.000
  20620159.482   -14441126.14849 -11232875.23347  20620158.521    20620163.416
       239.000         210.000
  21054362.902     2872018.47249   2242593.04547  21054362.508    21054368.191
       244.000         200.000
  25003243.094    -4645975.16448  -3439513.55444  25003239.318    25003253.934
       190.000         127.000
  22855006.193    -2522213.67349  -1957732.31046  22855006.278    22855012.756
       223.000         171.000
  20777692.588    -9764833.01649  -7600532.81347  20777691.963    20777697.323
       241.000         199.000
  23650519.654    -5479032.86149  -4248994.61545  23650518.547    23650525.791
       220.000         156.000
 02  7  1 17 14  0.0000000  0  9G17G21G23G18G 6G 2G29G15G22
  20730541.464    -6194201.23149  -4820151.49547  20730540.845    20730546.412
       240.000         198.000
  22784763.625   -12055529.23849  -9381554.58546  22784761.878    22784769.046
       232.000         169.000
  22237636.350     8335124.38449   6494401.56947  22237635.605    22237641.729
       236.000         191.000
  20614226.456   -14472304.30749 -11257169.88147  20614225.689    20614230.515
       240.000         210.000
  21066509.296     2935847.67049   2292330.04647  21066509.019    21066514.253
       245.000         199.000
  24998211.262    -4672413.51548  -3460114.85344  24998209.130    24998225.668
       192.000         128.000
  22863022.379    -2480089.02449  -1924907.92246  22863022.369    22863028.006
       223.000         172.000
  20772364.848    -9792831.03949  -7622349.45147  20772363.932    20772369.241
       240.000         198.000
  23655058.831    -5455179.71549  -4230407.78545  23655058.004    23655063.507
       223.000         156.000
 02  7  1 17 14 30.0000000  0  9G17G21G23G18G 6G 2G29G15G22
  20728175.892    -6206632.48149  -4829838.17947  20728175.033    20728181.396
       241.000         199.000
  22772319.719   -12120922.37949  -9432510.21946  22772318.782    22772324.388
       232.000         169.000
  22251526.984     8408119.59649   6551280.90647  22251526.878    22251531.827
       237.000         190.000
  20608375.158   -14503052.98749 -11281129.88047  20608374.339    20608379.400
       240.000         211.000
  21078740.160     3000120.64349   2342412.84247  21078739.412    21078744.435
       244.000         197.000
  24993260.682    -4698425.59049  -3480383.89844  24993263.334    24993270.623
       202.000         129.000
  22871134.215    -2437461.27749  -1891691.49046  22871134.453    22871139.502
       226.000         174.000
  20767073.183    -9820638.52449  -7644017.62147  20767072.295    20767077.993
       239.000         197.000
  23659685.900    -5430866.16549  -4211462.23045  23659684.731    23659689.818
       220.000         153.000
 02  7  1 17 15  0.0000000  0  9G17G21G23G18G 6G 2G29G15G22
  20725843.070    -6218891.64849  -4839390.77347  20725842.168    20725847.996
       241.000         199.000
  22759927.019   -12186045.47449  -9483255.43646  22759925.451    22759934.083
       230.000         170.000
  22265447.398     8481271.07649   6608282.03347  22265446.692    22265452.094
       235.000         190.000
  20602605.728   -14533371.53549 -11304754.71247  20602604.953    20602609.749
       240.000         212.000
  21091055.141     3064836.94449   2392841.07247  21091054.737    21091059.922
       243.000         196.000
  24988394.294    -4724009.80749  -3500319.79045  24988398.152    24988403.519
       207.000         135.000
  22879341.852    -2394331.04149  -1858083.51146  22879342.471    22879347.063
       226.000         174.000
  20761818.057    -9848254.03749  -7665536.20247  20761817.143    20761822.741
       238.000         197.000
  23664399.833    -5406092.98649  -4192158.48245  23664396.599    23664405.200
       217.000         151.000
 02  7  1 17 15 30.0000000  0  9G17G21G23G18G 6G 2G29G15G22
  20723542.804    -6230979.58849  -4848809.94147  20723541.771    20723547.483
       241.000         200.000
  22747585.831   -12250898.86549  -9533790.52046  22747584.645    22747592.586
       231.000         171.000
  22279396.700     8554575.60149   6665402.41147  22279395.435    22279401.885
       234.000         189.000
  20596917.872   -14563261.28649 -11328045.41447  20596916.931    20596921.525
       240.000         211.000
  21103454.173     3129994.16349   2443612.88447  21103453.643    21103459.560
       243.000         197.000
  24983606.908    -4749167.67049  -3519923.31545  24983603.062    24983616.994
       198.000         135.000
  22887644.597    -2350700.83649  -1824085.94646  22887644.593    22887648.948
       227.000         174.000
  20756599.331    -9875678.26949  -7686905.72747  20756598.206    20756603.385
       237.000         196.000
  23669200.359    -5380863.13449  -4172498.85845  23669198.165    23669208.004
       217.000         149.000
 02  7  1 17 16  0.0000000  0  9G17G21G23G18G 6G 2G29G15G22
  20721275.606    -6242893.40749  -4858093.43247  20721274.740    20721280.654
       241.000         200.000
  22735296.277   -12315480.76149  -9584114.04746  22735294.803    22735301.975
       229.000         172.000
  22293375.209     8628033.63749   6722642.40847  22293373.918    22293380.434
       233.000         188.000
  20591311.940   -14592720.39649 -11351000.55847  20591311.352    20591315.779
       240.000         211.000
  21115937.248     3195593.20349   2494728.95247  21115936.971    21115943.236
       244.000         197.000
  24978900.787    -4773896.51849  -3539192.52945  24978901.686    24978912.384
       210.000         137.000
  22896042.608    -2306569.62849  -1789698.01046  22896042.380    22896048.134
       227.000         173.000
  20751417.431    -9902908.68549  -7708124.22947  20751416.203    20751422.147
       237.000         195.000
  23674088.397    -5355176.06249  -4152482.98645  23674088.050    23674094.115
       224.000         151.000
 02  7  1 17 16 30.0000000  0  9G17G21G23G18G 6G 2G29G15G22
  20719041.458    -6254633.55949  -4867241.60147  20719040.597    20719046.631
       241.000         200.000
  22723058.217   -12379791.59449  -9634226.31846  22723056.765    22723065.076
       228.000         172.000
  22307382.432     8701642.05849   6779999.57746  22307381.631    22307387.915
       232.000         187.000
  20585787.819   -14621750.28049 -11373621.22847  20585787.496    20585791.606
       242.000         211.000
  21128503.991     3261631.49349   2546187.29447  21128503.461    21128509.627
       243.000         197.000
  24974276.769    -4798197.19849  -3558128.18545  24974274.839    24974288.637
       204.000         138.000
  22904535.330    -2261940.04849  -1754921.74146  22904535.290    22904540.414
       227.000         173.000
  20746272.424    -9929945.70149  -7729192.03647  20746271.435    20746277.478
       238.000         196.000
  23679063.354    -5329034.71649  -4132113.14545  23679062.596    23679070.104
       222.000         154.000
 02  7  1 17 17  0.0000000  0  9G17G21G23G18G 6G 2G29G15G22
  20716840.552    -6266199.67249  -4876254.16047  20716839.880    20716845.795
       242.000         201.000
  22710871.749   -12443831.32449  -9684127.31646  22710870.172    22710878.355
       227.000         171.000
  22321417.870     8775398.60749   6837472.18046  22321416.685    22321423.479
       232.000         186.000
  20580345.381   -14650351.17349 -11395907.62047  20580344.704    20580348.898
       242.000         210.000
  21141153.942     3328107.60149   2597986.78247  21141153.174    21141160.416
       242.000         196.000
  24969733.750    -4822069.72449  -3576730.06045  24969733.193    24969744.766
       205.000         137.000
  22913122.804    -2216813.39049  -1719758.13246  22913122.635    22913128.434
       227.000         172.000
  20741164.393    -9956788.84449  -7750108.76347  20741163.241    20741169.265
       239.000         196.000
  23684123.858    -5302440.94749  -4111390.74945  23684121.684    23684132.306
       219.000         154.000
 02  7  1 17 17 30.0000000  0  9G17G21G23G18G 6G 2G29G15G22
  20714673.042    -6277590.37949  -4885130.02947  20714672.291    20714677.944
       242.000         201.000
  22698736.962   -12507598.75149  -9733816.18946  22698736.072    22698744.344
       227.000         171.000
  22335481.163     8849302.30149   6895059.45246  22335480.459    22335486.426
       232.000         186.000
  20574984.565   -14678522.42349 -11417859.23647  20574983.425    20574988.129
       240.000         210.000
  21153887.033     3395021.02449   2650127.05447  21153887.009    21153892.983
       244.000         195.000
  24965273.015    -4845512.89549  -3594997.43445  24965275.819    24965281.537
       208.000         136.000
  22921804.632    -2171190.24149  -1684207.65646  22921802.976    22921809.614
       226.000         171.000
  20736093.442    -9983436.82049  -7770873.41247  20736092.702    20736097.787
       240.000         197.000
  23689270.190    -5275395.89049  -4090316.70545  23689267.921    23689278.389
       217.000         154.000
 02  7  1 17 18  0.0000000  0  9G17G21G23G18G 6G 2G29G15G22
  20712538.792    -6288806.07149  -4893869.52747  20712537.709    20712543.794
       241.000         201.000
  22686654.088   -12571094.42049  -9783293.31446  22686653.716    22686661.555
       227.000         172.000
  22349571.994     8923350.18549   6952759.08546  22349571.604    22349577.710
       233.000         187.000
  20569705.088   -14706265.70749 -11439477.37047  20569704.170    20569708.576
       242.000         210.000
  21166703.356     3462369.55049   2702606.35747  21166703.796    21166708.195
       245.000         195.000
  24960894.230    -4868527.99349  -3612931.34745  24960895.462    24960903.614
       207.000         135.000
  22930580.451    -2125073.10449  -1648272.25746  22930580.449    22930585.937
       228.000         171.000
  20731059.620   -10009890.19149  -7791486.42147  20731058.917    20731064.554
       241.000         198.000
  23694502.089    -5247902.27149  -4068893.13245  23694501.098    23694510.980
       215.000         152.000
 02  7  1 17 18 30.0000000  0  9G17G21G23G18G 6G 2G29G15G22
  20710437.877    -6299845.74949  -4902471.87647  20710437.003    20710443.107
       241.000         202.000
  22674623.105   -12634317.79649  -9832558.24546  22674622.985    22674628.821
       226.000         170.000
  22363690.045     8997540.56949   7010569.73047  22363689.670    22363696.232
       235.000         190.000
  20564507.167   -14733580.94649 -11460761.95547  20564506.159    20564510.665
       241.000         210.000
  21179602.156     3530152.11849   2755423.87547  21179602.007    21179607.128
       244.000         194.000
  24956596.446    -4891114.39749  -3630531.13145  24956597.097    24956608.171
       208.000         138.000
  22939450.275    -2078463.09049  -1611952.78246  22939450.109    22939454.179
       228.000         170.000
  20726063.014   -10036148.12449  -7811947.13947  20726062.276    20726068.058
       241.000         199.000
  23699819.022    -5219961.69349  -4047121.29345  23699818.187    23699827.156
       215.000         151.000
 02  7  1 17 19  0.0000000  0  9G17G21G23G18G 6G 2G29G15G22
  20708370.482    -6310709.63049  -4910937.23647  20708369.454    20708375.640
       241.000         202.000
  22662643.855   -12697269.47049  -9881611.45446  22662643.039    22662648.985
       228.000         168.000
  22377834.841     9071870.91849   7068489.43947  22377834.268    22377840.987
       235.000         191.000
  20559390.360   -14760469.43149 -11481714.00847  20559389.691    20559393.676
       242.000         210.000
  21192582.990     3598366.50449   2808577.86447  21192582.121    21192588.141
       242.000         193.000
  24952380.070    -4913272.46549  -3647797.18945  24952379.407    24952385.542
       208.000         138.000
  22948413.279    -2031362.14549  -1575250.78446  22948412.645    22948418.009
       227.000         169.000
  20721103.588   -10062210.70049  -7832255.64247  20721102.509    20721107.870
       242.000         200.000
  23705220.479    -5191576.66949  -4025003.15845  23705220.657    23705227.527
       215.000         151.000
 02  7  1 17 19 30.0000000  0  9G17G21G23G18G 6G 2G29G15G22
  20706336.809    -6321396.52749  -4919264.68647  20706336.022    20706341.844
       241.000         202.000
  22650716.341   -12759948.50849  -9930452.20646  22650716.156    22650722.364
       229.000         170.000
  22392005.757     9146339.55249   7126516.90547  22392004.888    22392011.740
       232.000         190.000
  20554354.916   -14786930.96849 -11502333.37147  20554354.047    20554358.428
       241.000         209.000
  21205645.548     3667011.73749   2862067.59147  21205644.798    21205651.882
       243.000         192.000
  24948245.294    -4935002.09549  -3664729.34545  24948246.049    24948254.829
       214.000         141.000
  22957469.603    -1983771.53649  -1538167.22846  22957468.985    22957474.107
       226.000         170.000
  20716181.281   -10088077.21149  -7852411.35447  20716179.887    20716185.758
       242.000         200.000
  23710706.405    -5162748.87449  -4002540.01645  23710705.480    23710712.520
       214.000         151.000
 02  7  1 17 20  0.0000000  0  9G17G21G23G18G 6G 2G29G15G22
  20704336.995    -6331905.67549  -4927453.62247  20704336.106    20704342.276
       241.000         202.000
  22638841.124   -12822354.41449  -9979080.14346  22638840.297    22638847.602
       228.000         171.000
  22406202.674     9220945.05849   7184651.02747  22406201.709    22406208.806
       230.000         188.000
  20549400.785   -14812965.20649 -11522619.77647  20549400.096    20549404.519
       242.000         210.000
  21218790.143     3736086.70549   2915892.17447  21218789.797    21218795.942
       243.000         192.000
  24944192.370    -4956302.78249  -3681327.32945  24944193.154    24944200.113
       210.000         141.000
  22966618.890    -1935692.29549  -1500702.91846  22966618.411    22966623.319
       225.000         169.000
  20711296.559   -10113746.24949  -7872413.19447  20711295.399    20711301.260
       241.000         201.000
  23716276.060    -5133479.54549  -3979732.79045  23716274.425    23716283.550
       211.000         150.000
 02  7  1 17 20 30.0000000  0  9G17G21G23G18G 6G 2G29G15G22
  20702371.134    -6342236.19149  -4935503.37647  20702370.067    20702376.461
       242.000         203.000
  22627017.621   -12884486.54249 -10027494.74846  22627016.243    22627025.146
       230.000         172.000
  22420425.124     9295685.78849   7242890.53046  22420423.714    22420431.134
       229.000         185.000
  20544527.838   -14838572.52749 -11542573.51947  20544527.090    20544531.600
       242.000         210.000
  21232016.327     3805590.15249   2970050.61547  21232016.191    21232022.144
       243.000         192.000
  24940220.822    -4977174.17049  -3697590.76445  24940219.255    24940226.539
       207.000         139.000
  22975860.804    -1887125.44649  -1462858.66346  22975859.903    22975866.462
       225.000         170.000
  20706449.505   -10139217.34549  -7892260.78647  20706448.444    20706454.153
       241.000         201.000
  23721929.507    -5103770.56049  -3956582.97445  23721929.560    23721938.013
       211.000         150.000
 02  7  1 17 21  0.0000000  0 10G17G21G23G18G 6G 2G29G 3G15G22
  20700439.111    -6352389.14449  -4943414.76847  20700438.235    20700444.089
       242.000         203.000
  22615246.105   -12946346.57249 -10075697.33346  22615244.052    22615251.249
       231.000         171.000
  22434672.906     9370557.84949   7301232.36846  22434672.459    22434678.889
       229.000         184.000
  20539735.797   -14863755.05249 -11562196.24847  20539734.967    20539740.082
       243.000         210.000
  21245323.258     3875518.73349   3024540.35347  21245322.749    21245328.134
       242.000         191.000
  24936329.660    -4997618.04949  -3713521.00145  24936325.701    24936342.335
       205.000         138.000
  22985194.750    -1838074.64649  -1424637.27946  22985194.571    22985200.147
       225.000         171.000
  24626800.572    -3644373.86349  -2817267.48845  24626802.160    24626810.628
       215.000         148.000
  20701639.916   -10164491.62349  -7911955.02747  20701639.054    20701644.483
       243.000         202.000
  23727666.277    -5073625.57449  -3933093.45245  23727665.459    23727674.041
       210.000         150.000
 02  7  1 17 21 30.0000000  0 10G17G21G23G18G 6G 2G29G 3G15G22
  20698540.739    -6362365.23249  -4951188.33847  20698540.339    20698545.801
       244.000         204.000
  22603526.091   -13007935.22449 -10123688.42046  22603524.835    22603531.415
       231.000         170.000
  22448945.183     9445558.07949   7359674.07646  22448944.709    22448950.719
       230.000         184.000
  20535024.203   -14888514.63449 -11581489.41247  20535023.489    20535027.714
       243.000         210.000
  21258710.649     3945869.86249   3079359.36247  21258710.401    21258716.967
       243.000         192.000
  24932520.457    -5017635.68449  -3729119.11845  24932520.795    24932528.357
       209.000         137.000
  22994620.447    -1788542.49149  -1386040.82746  22994619.326    22994626.870
       224.000         171.000
  24607621.694    -3745160.96249  -2895802.76245  24607622.937    24607629.854
       215.000         146.000
  20696867.723   -10189569.78749  -7931496.43547  20696866.537    20696872.303
       242.000         202.000
  23733485.257    -5043047.95049  -3909266.78845  23733483.201    23733493.967
       211.000         150.000
 02  7  1 17 22  0.0000000  0 10G17G21G23G18G 6G 2G29G 3G15G22
  20696677.204    -6372159.07549  -4958819.90547  20696676.409    20696682.095
       244.000         205.000
  22591858.728   -13069247.59249 -10171464.23446  22591857.722    22591864.688
       232.000         171.000
  22463242.264     9520689.36049   7418217.89346  22463241.871    22463247.856
       229.000         185.000
  20530393.896   -14912846.93449 -11600449.62647  20530393.195    20530397.780
       244.000         209.000
  21272179.024     4016646.81849   3134510.16647  21272178.427    21272184.581
       242.000         191.000
  24928793.637    -5037222.46049  -3744381.59345  24928792.666    24928799.206
       212.000         137.000
  23004138.272    -1738525.87649  -1347066.87746  23004137.287    23004144.158
       226.000         172.000
  24588467.707    -3845817.43549  -2974236.23245  24588469.017    24588471.972
       219.000         145.000
  20692133.786   -10214446.59249  -7950880.95047  20692132.635    20692138.287
       241.000         201.000
  23739386.470    -5012034.66549  -3885100.66645  23739385.425    23739393.356
       209.000         149.000
 02  7  1 17 22 30.0000000  0 10G17G21G23G18G 6G 2G29G 3G15G22
  20694848.195    -6381770.94649  -4966309.67947  20694847.825    20694853.153
       245.000         206.000
  22580243.641   -13130284.75849 -10219025.60846  22580242.353    22580249.981
       233.000         173.000
  22477563.602     9595948.85849   7476861.62546  22477562.627    22477569.266
       231.000         186.000
  20525844.690   -14936753.21549 -11619077.88447  20525844.234    20525848.199
       244.000         209.000
  21285728.061     4087847.03349   3189990.77947  21285727.787    21285733.285
       242.000         191.000
  24925148.304    -5056379.26549  -3759308.97545  24925147.040    24925158.107
       211.000         138.000
  23013747.828    -1688027.20649  -1307717.29546  23013747.824    23013753.904
       226.000         173.000
  24569339.271    -3946342.00749  -3052566.90745  24569341.359    24569342.533
       219.000         145.000
  20687438.001   -10239122.44749  -7970108.88547  20687436.835    20687442.824
       242.000         201.000
  23745370.390    -4980588.89949  -3860597.54745  23745369.942    23745377.674
       212.000         149.000
 02  7  1 17 23  0.0000000  0 10G17G21G23G18G 6G 2G29G 3G15G22
  20693053.849    -6391200.93949  -4973657.72747  20693053.057    20693058.639
       246.000         207.000
  22568680.846   -13191046.98549 -10266372.74046  22568679.868    22568687.558
       233.000         172.000
  22491908.958     9671333.98549   7535603.26147  22491908.746    22491914.876
       233.000         188.000
  20521376.327   -14960234.93249 -11637375.31847  20521375.677    20521379.899
       244.000         210.000
  21299356.974     4159468.19349   3245799.40647  21299356.382    21299363.100
       241.000         191.000
  24921584.329    -5075106.76449  -3773901.83245  24921581.278    24921592.934
       209.000         137.000
  23023448.766    -1637048.88249  -1267993.94546  23023448.718    23023453.554
       228.000         172.000
  24550236.363    -4046732.62649  -3130793.22645  24550237.534    24550238.119
       217.000         140.000
  20682780.682   -10263597.16549  -7989180.08447  20682779.919    20682785.448
       241.000         200.000
  23751436.124    -4948713.39849  -3835759.55245  23751434.144    23751443.368
       209.000         150.000
 02  7  1 17 23 30.0000000  0 10G17G21G23G18G 6G 2G29G 3G15G22
  20691294.244    -6400448.52549  -4980863.63947  20691293.576    20691299.195
       247.000         208.000
  22557170.349   -13251534.58049 -10313505.88046  22557169.007    22557176.670
       233.000         171.000
  22506277.909     9746842.80049   7594441.28747  22506277.139    22506283.503
       232.000         188.000
  20516988.621   -14983292.43949 -11655342.20247  20516987.975    20516991.874
       243.000         209.000
  21313065.970     4231508.93849   3301934.98047  21313065.592    21313072.076
       242.000         191.000
  24918102.127    -5093405.06749  -3788160.27645  24918100.508    24918109.260
       209.000         135.000
  23033240.703    -1585592.38949  -1227897.98446  23033240.030    23033246.929
       225.000         172.000
  24531158.859    -4146987.15649  -3208913.48145  24531158.802    24531162.567
       213.000         137.000
  20678161.580   -10287870.33349  -8008094.23547  20678160.717    20678166.650
       240.000         200.000
  23757583.042    -4916409.94049  -3810588.09845  23757581.449    23757591.759
       210.000         151.000
 02  7  1 17 24  0.0000000  0 10G17G21G23G18G 6G 2G29G 3G15G22
  20689569.381    -6409512.96249  -4987926.84147  20689568.450    20689574.114
       247.000         209.000
  22545712.279   -13311746.69749 -10360424.33946  22545710.130    22545718.124
       232.000         168.000
  22520669.947     9822473.48849   7653374.24046  22520669.155    22520675.909
       230.000         187.000
  20512681.543   -15005926.27349 -11672978.94547  20512680.797    20512684.238
       242.000         208.000
  21326854.369     4303967.49149   3358396.12847  21326853.976    21326860.487
       243.000         192.000
  24914702.268    -5111274.41149  -3802084.49344  24914698.343    24914706.914
       203.000         130.000
  23043123.096    -1533659.46449  -1187430.79446  23043121.699    23043128.295
       224.000         169.000
  24512107.500    -4247103.74449  -3286926.28845  24512108.191    24512109.227
       208.000         136.000
  20673580.885   -10311941.64349  -8026851.09747  20673580.188    20673585.637
       241.000         199.000
  23763811.011    -4883680.80649  -3785084.89845  23763808.558    23763818.039
       209.000         151.000
 02  7  1 17 24 30.0000000  0 10G17G21G23G18G 6G 2G29G 3G15G22
  20687879.388    -6418393.30049  -4994846.59247  20687878.460    20687883.968
       246.000         210.000
  22534306.613   -13371683.19349 -10407128.05046  22534305.305    22534311.836
       234.000         167.000
  22535085.057     9898224.58349   7712400.99946  22535084.256    22535091.298
       231.000         186.000
  20508455.052   -15028136.45249 -11690285.56247  20508454.352    20508458.205
       242.000         208.000
  21340722.203     4376842.66049   3415181.89347  21340721.596    21340727.525
       242.000         192.000
  24911382.029    -5128714.58448  -3815674.27144  24911376.403    24911392.781
       192.000         126.000
  23053096.008    -1481251.47849  -1146593.40946  23053095.134    23053101.840
       222.000         166.000
  24493083.463    -4347079.47949  -3364829.34045  24493080.813    24493084.333
       206.000         136.000
  20669039.025   -10335810.02649  -8045449.83447  20669038.392    20669043.791
       240.000         199.000
  23770119.672    -4850527.53249  -3759251.21645  23770119.369    23770126.127
       215.000         151.000
 02  7  1 17 25  0.0000000  0 10G17G21G23G18G 6G 2G29G 3G15G22
  20686224.429    -6427089.62649  -5001622.95947  20686223.635    20686229.130
       247.000         210.000
  22522953.330   -13431345.04149 -10453617.77046  22522951.505    22522959.785
       233.000         168.000
  22549522.556     9974093.21649   7771519.35246  22549521.811    22549527.680
       231.000         185.000
  20504308.877   -15049924.58649 -11707263.30747  20504308.373    20504311.822
       243.000         207.000
  21354668.717     4450131.95049   3472290.34447  21354668.750    21354674.013
       244.000         193.000
  24908144.125    -5145726.45149  -3828930.24844  24908144.041    24908155.205
       205.000         127.000
  23063158.845    -1428370.71549  -1105387.67146  23063157.968    23063163.640
       219.000         163.000
  24474085.884    -4446912.69449  -3442621.36545  24474082.185    24474086.403
       207.000         138.000
  20664535.538   -10359475.66149  -8063890.58647  20664534.520    20664540.038
       240.000         199.000
  23776508.693    -4816953.26549  -3733089.49645  23776507.766    23776515.842
       213.000         150.000
 02  7  1 17 25 30.0000000  0 10G17G21G23G18G 6G 2G29G 3G15G22
  20684604.757    -6435601.32349  -5008255.45947  20684604.007    20684609.391
       247.000         210.000
  22511652.301   -13490731.89049 -10499893.19146  22511650.948    22511657.830
       233.000         167.000
  22563981.905    10050077.58449   7830727.90246  22563980.441    22563986.324
       232.000         183.000
  20500242.953   -15071291.04149 -11723912.47547  20500242.168    20500246.545
       243.000         207.000
  21368693.948     4523833.82649   3529720.30847  21368693.941    21368700.044
       244.000         193.000
  24904988.976    -5162310.05949  -3841852.53344  24904987.226    24904997.751
       202.000         128.000
  23073311.341    -1375018.97749  -1063814.90745  23073310.949    23073316.464
       220.000         161.000
  24455114.426    -4546601.18849  -3520300.57545  24455108.860    24455114.988
       199.000         136.000
  20660070.799   -10382937.98849  -8082172.91447  20660069.561    20660075.388
       239.000         198.000
  23782977.483    -4782959.90249  -3706601.21345  23782976.418    23782985.380
       214.000         151.000
 02  7  1 17 26  0.0000000  0 10G17G21G23G18G 6G 2G29G 3G15G22
  20683020.575    -6443926.61249  -5014742.70347  20683019.663    20683025.202
       246.000         211.000
  22500403.940   -13549842.50749 -10545953.36046  22500404.654    22500409.781
       233.000         166.000
  22578463.145    10126177.02849   7890026.13046  22578462.066    22578467.177
       232.000         181.000
  20496257.355   -15092235.22849 -11740232.61747  20496256.817    20496260.781
       243.000         207.000
  21382797.321     4597947.63449   3587471.25747  21382796.958    21382803.791
       243.000         194.000
  24901914.851    -5178464.45149  -3854440.43044  24901916.272    24901921.424
       211.000         131.000
  23083553.319    -1321196.85049  -1021875.60645  23083553.448    23083557.976
       217.000         159.000
  24436171.371    -4646141.35249  -3597864.23245  24436167.463    24436173.471
       200.000         135.000
  20655645.020   -10406195.33149  -8100295.51547  20655643.785    20655649.748
       239.000         197.000
  23789525.962    -4748548.49849  -3679787.18345  23789524.305    23789533.218
       213.000         152.000
 02  7  1 17 26 30.0000000  0 10G17G21G23G18G 6G 2G29G 3G15G22
  20681471.622    -6452066.11849  -5021085.18847  20681470.636    20681476.738
       246.000         211.000
  22489208.061   -13608677.61149 -10591798.84246  22489206.596    22489215.364
       233.000         167.000
  22592965.645    10202388.14149   7949411.37746  22592965.096    22592970.542
       232.000         179.000
  20492351.818   -15112758.94549 -11756225.12047  20492351.330    20492355.281
       244.000         208.000
  21396978.525     4672470.45149   3645540.90147  21396977.950    21396984.253
       242.000         194.000
  24898922.736    -5194191.19349  -3866695.10945  24898921.915    24898929.917
       209.000         134.000
  23093884.161    -1266907.17349   -979571.97445  23093883.157    23093889.387
       219.000         160.000
  24417257.658    -4745532.12949  -3675311.44145  24417255.146    24417259.572
       206.000         133.000
  20651258.159   -10429248.27349  -8118258.84147  20651256.982    20651262.852
       240.000         197.000
  23796153.213    -4713722.45149  -3652650.04145  23796151.217    23796162.241
       212.000         153.000
 02  7  1 17 27  0.0000000  0 10G17G21G23G18G 6G 2G29G 3G15G22
  20679958.320    -6460018.63349  -5027281.95947  20679957.493    20679963.451
       246.000         211.000
  22478064.683   -13667236.62449 -10637429.18446  22478063.700    22478071.114
       231.000         168.000
  22607489.184    10278709.60349   8008882.61146  22607488.601    22607494.299
       230.000         179.000
  20488526.388   -15132862.19149 -11771889.98447  20488525.589    20488529.957
       244.000         208.000
  21411237.435     4747401.24849   3703928.43047  21411237.938    21411243.232
       243.000         194.000
  24896011.092    -5209489.96349  -3878616.24345  24896010.870    24896022.842
       208.000         137.000
  23104303.787    -1212151.40949   -936905.16945  23104303.524    23104310.714
       221.000         162.000
  24398373.275    -4844770.40849  -3752639.85844  24398367.322    24398372.123
       202.000         130.000
  20646910.449   -10452095.85049  -8136062.14447  20646909.662    20646915.384
       239.000         197.000
  23802858.772    -4678483.57449  -3625191.23245  23802857.964    23802866.828
       214.000         153.000
 02  7  1 17 27 30.0000000  0 10G17G21G23G18G 6G 2G29G 3G15G22
  20678480.868    -6467782.84249  -5033331.99347  20678479.876    20678485.696
       245.000         211.000
  22466973.818   -13725519.16949 -10682844.13746  22466972.908    22466980.129
       230.000         168.000
  22622033.592    10355140.38049   8068439.02046  22622032.553    22622039.300
       229.000         180.000
  20484780.753   -15152545.28349 -11787227.44747  20484779.952    20484784.277
       243.000         208.000
  21425573.968     4822738.89749   3762633.03047  21425573.324    21425579.160
       241.000         193.000
  24893180.593    -5224360.46649  -3890203.64645  24893176.962    24893193.164
       208.000         138.000
  23114811.951    -1156930.56249   -893875.97046  23114811.219    23114818.360
       224.000         164.000
  24379516.825    -4943853.42049  -3829847.25644  24379508.368    24379518.701
       196.000         127.000
  20642601.958   -10474736.94549  -8153704.55047  20642601.045    20642606.794
       239.000         197.000
  23809642.863    -4642833.23749  -3597411.82445  23809642.088    23809651.234
       210.000         153.000
 02  7  1 17 28  0.0000000  0 10G17G21G23G18G 6G 2G29G 3G15G22
  20677038.998    -6475359.20149  -5039235.65547  20677038.144    20677043.849
       245.000         211.000
  22455935.480   -13783526.25449 -10728044.40346  22455934.310    22455940.798
       231.000         168.000
  22636598.149    10431677.61049   8128078.38546  22636596.980    22636603.567
       228.000         180.000
  20481114.779   -15171809.55849 -11802238.56647  20481113.970    20481118.535
       243.000         207.000
  21439987.061     4898480.60149   3821652.48447  21439986.896    21439993.315
       242.000         192.000
  24890432.595    -5238803.95349  -3901458.36045  24890435.180    24890440.490
       218.000         138.000
  23125408.239    -1101247.33249   -850486.46246  23125407.743    23125414.064
       223.000         165.000
  24360689.527    -5042779.69548  -3906932.56144  24360683.470    24360695.901
       193.000         126.000
  20638332.693   -10497171.76749  -8171186.22147  20638331.640    20638337.962
       239.000         196.000
  23816504.650    -4606774.62249  -3569314.26045  23816503.947    23816512.199
       211.000         151.000
 02  7  1 17 28 30.0000000  0 10G17G21G23G18G 6G 2G29G 3G15G22
  20675633.079    -6482747.19949  -5044992.54647  20675632.328    20675637.763
       244.000         210.000
  22444949.340   -13841258.11449 -10773030.21146  22444947.396    22444955.728
       229.000         166.000
  22651182.430    10508319.08649   8187798.96446  22651181.284    22651188.178
       227.000         181.000
  20477528.384   -15190655.99149 -11816924.09747  20477527.673    20477531.975
       243.000         208.000
  21454476.863     4974624.45749   3880985.28647  21454476.585    21454482.977
       240.000         192.000
  24887766.160    -5252821.13649  -3912380.95345  24887764.209    24887772.360
       210.000         138.000
  23136091.973    -1045103.88649   -806738.35746  23136091.927    23136096.899
       225.000         166.000
  24341893.298    -5141547.17849  -3983894.10445  24341889.870    24341903.905
       197.000         132.000
  20634102.633   -10519400.01749  -8188506.93547  20634101.539    20634107.289
       238.000         196.000
  23823443.635    -4570310.34449  -3540900.59745  23823442.764    23823450.287
       213.000         148.000
 02  7  1 17 29  0.0000000  0 10G17G21G23G18G 6G 2G29G 3G15G22
  20674263.334    -6489945.31449  -5050601.47147  20674262.936    20674268.127
       245.000         210.000
  22434015.642   -13898713.66649 -10817800.72846  22434014.265    22434021.506
       228.000         167.000
  22665786.362    10585063.81149   8247599.99346  22665785.403    22665791.623
       229.000         182.000
  20474021.517   -15209084.54049 -11831284.00547  20474020.551    20474025.210
       243.000         208.000
  21469042.931     5051169.74749   3940630.89347  21469042.961    21469049.058
       240.000         192.000
  24885179.516    -5266411.45949  -3922970.84145  24885176.731    24885189.358
       204.000         139.000
  23146863.285     -988501.13149   -762632.33946  23146863.140    23146869.034
       221.000         165.000
  24323127.876    -5240152.51349  -4060729.29345  24323125.201    24323140.509
       197.000         136.000
  20629912.304   -10541420.04849  -8205665.39047  20629911.519    20629917.141
       239.000         196.000
  23830459.440    -4533441.51349  -3512171.68845  23830458.927    23830467.504
       214.000         147.000
 02  7  1 17 29 30.0000000  0 10G17G21G23G18G 6G 2G29G 3G15G22
  20672930.364    -6496951.02449  -5056060.47547  20672929.848    20672934.901
       245.000         211.000
  22423135.001   -13955891.18649 -10862354.60146  22423134.647    22423140.916
       231.000         170.000
  22680410.026    10661911.83049   8307481.53146  22680409.129    22680416.106
       232.000         184.000
  20470594.452   -15227093.89849 -11845317.26947  20470593.593    20470598.346
       243.000         208.000
  21483685.437     5128116.47349   4000589.28847  21483684.824    21483691.173
       237.000         191.000
  24882673.964    -5279573.18049  -3933226.70245  24882675.023    24882684.715
       216.000         142.000
  23157721.686     -931438.92849   -718168.33746  23157721.263    23157727.679
       219.000         163.000
  24304394.186    -5338591.52648  -4137434.93145  24304392.549    24304408.567
       190.000         138.000
  20625762.254   -10563229.45149  -8222659.72647  20625761.462    20625767.178
       239.000         197.000
  23837552.376    -4496168.63649  -3483127.93545  23837550.008    23837561.007
       212.000         148.000
 02  7  1 17 30  0.0000000  0 10G17G21G23G18G 6G 2G29G 3G15G22
  20671633.543    -6503766.07049  -5061370.91247  20671632.946    20671638.337
       245.000         211.000
  22412307.110   -14012792.74049 -10906693.44746  22412306.773    22412312.628
       232.000         171.000
  22695052.758    10738858.98249   8367440.30146  22695052.552    22695058.859
       235.000         187.000
  20467246.576   -15244687.15849 -11859026.30147  20467245.990    20467250.229
       243.000         207.000
  21498403.431     5205460.51249   4060857.30447  21498403.225    21498410.021
       238.000         190.000
  24880251.879    -5292308.89649  -3943150.70845  24880254.588    24880261.120
       216.000         145.000
  23168666.864     -873921.59049   -673349.68345  23168666.716    23168672.096
       215.000         161.000
  24285692.590    -5436864.19348  -4214010.98145  24285692.245    24285708.545
       185.000         139.000
  20621651.800   -10584829.96849  -8239491.29947  20621650.648    20621656.757
       239.000         196.000
  23844721.201    -4458496.40849  -3453773.01845  23844720.144    23844729.019
       213.000         148.000
 02  7  1 17 30 30.0000000  0 10G17G21G23G18G 6G 2G29G 3G15G22
  20670373.000    -6510390.57449  -5066532.87347  20670372.139    20670377.354
       244.000         210.000
  22401531.501   -14069419.39249 -10950818.06446  22401529.864    22401536.691
       229.000         170.000
  22709713.877    10815902.72849   8427474.34947  22709713.453    22709719.539
       235.000         188.000
  20463977.589   -15261865.81749 -11872412.25647  20463976.694    20463981.081
       242.000         207.000
  21513196.649     5283199.19649   4121432.83647  21513196.514    21513203.249
       238.000         191.000
  24877909.941    -5304619.89749  -3952743.75845  24877908.712    24877917.135
       208.000         144.000
  23179698.115     -815951.83549   -628178.49445  23179697.429    23179703.298
       216.000         158.000
  24267023.578    -5534969.08949  -4290456.30145  24267024.648    24267038.873
       195.000         138.000
  20617581.058   -10606221.89249  -8256160.31447  20617579.856    20617585.776
       239.000         196.000
  23851965.358    -4420427.88749  -3424109.26445  23851964.838    23851973.615
       216.000         149.000
 02  7  1 17 31  0.0000000  0 10G17G21G23G18G 6G 2G29G 3G15G22
  20669148.687    -6516823.90949  -5071545.87047  20669147.457    20669152.775
       243.000         210.000
  22390807.600   -14125770.91549 -10994728.29846  22390807.037    22390814.101
       230.000         171.000
  22724392.940    10893041.22349   8487582.22946  22724391.891    22724398.127
       234.000         187.000
  20460787.364   -15278630.38349 -11885475.54247  20460787.052    20460791.059
       244.000         208.000
  21528064.601     5361330.77649   4182314.51747  21528063.852    21528071.305
       235.000         190.000
  24875646.268    -5316506.68549  -3962006.16945  24875640.003    24875653.791
       203.000         139.000
  23190815.321     -757531.40649   -582656.07745  23190814.903    23190820.291
       215.000         157.000
  24248388.391    -5632903.68549  -4366768.95245  24248388.890    24248403.166
       196.000         136.000
  20613550.060   -10627404.66649  -8272666.36047  20613549.057    20613554.760
       239.000         196.000
  23859284.946    -4381965.34149  -3394138.52445  23859285.560    23859294.410
       217.000         150.000
 02  7  1 17 31 30.0000000  0 10G17G21G23G18G 6G 2G29G 3G15G22
  20667961.073    -6523064.13949  -5076408.39447  20667960.249    20667965.772
       243.000         210.000
  22380136.705   -14181846.50249 -11038423.51146  22380136.314    22380143.136
       231.000         173.000
  22739089.735    10970273.64249   8547763.30746  22739088.467    22739095.240
       231.000         185.000
  20457676.094   -15294980.70349 -11898216.03947  20457675.296    20457679.831
       243.000         209.000
  21543007.058     5439854.42849   4243501.70047  21543006.527    21543013.562
       237.000         189.000
  24873464.829    -5327968.55549  -3970937.47845  24873465.608    24873476.331
       209.000         136.000
  23202017.794     -698661.18449   -536783.21745  23202017.098    23202024.514
       218.000         159.000
  24229785.311    -5730664.68348  -4442946.22345  24229783.920    24229796.051
       193.000         134.000
  20609559.098   -10648376.58149  -8289008.10747  20609557.950    20609564.538
       238.000         196.000
  23866679.507    -4343110.09549  -3363861.78545  23866678.952    23866687.215
       215.000         152.000
 02  7  1 17 32  0.0000000  0 10G17G21G23G18G 6G 2G29G 3G15G22
  20666810.461    -6529110.54149  -5081119.88247  20666809.196    20666815.174
       242.000         210.000
  22369518.491   -14237645.63349 -11081903.31146  22369518.355    22369525.656
       231.000         175.000
  22753804.017    11047598.34649   8608016.28846  22753802.910    22753810.471
       229.000         182.000
  20454643.429   -15310917.52649 -11910634.33447  20454642.716    20454646.966
       243.000         209.000
  21558024.023     5518768.40949   4304993.04147  21558024.180    21558030.072
       238.000         188.000
  24871365.188    -5339005.70749  -3979537.94545  24871364.453    24871372.576
       205.000         134.000
  23213305.840     -639342.92549   -490561.25045  23213306.382    23213311.497
       221.000         162.000
  24211215.408    -5828249.56249  -4518986.24345  24211217.053    24211228.938
       203.000         138.000
  20605608.434   -10669136.89149  -8305184.97347  20605607.555    20605614.156
       240.000         196.000
  23874147.543    -4303864.28149  -3333280.69145  23874146.752    23874155.904
       214.000         152.000
 02  7  1 17 32 30.0000000  0 10G17G21G23G18G 6G 2G29G 3G15G22
  20665696.658    -6534962.62649  -5085679.95247  20665695.617    20665701.761
       242.000         210.000
  22358952.897   -14293168.65249 -11125167.96146  22358951.810    22358958.584
       232.000         176.000
  22768535.563    11125013.45349   8668339.71546  22768534.382    22768541.235
       228.000         178.000
  20451689.216   -15326441.69249 -11922731.07747  20451688.681    20451692.981
       243.000         209.000
  21573114.743     5598070.59549   4366786.88047  21573114.564    21573121.039
       238.000         189.000
  24869345.246    -5349619.08249  -3987808.13645  24869342.862    24869354.070
       207.000         134.000
  23224678.695     -579578.78249   -443991.82346  23224678.440    23224684.837
       222.000         163.000
  24192680.523    -5925656.03249  -4594887.27245  24192683.134    24192693.219
       205.000         142.000
  20601698.367   -10689685.16049  -8321196.60547  20601697.632    20601703.654
       240.000         197.000
  23881689.507    -4264230.31149  -3302397.14945  23881688.511    23881698.092
       217.000         152.000
 02  7  1 17 33  0.0000000  0 10G17G21G23G18G 6G 2G29G 3G15G22
  20664620.003    -6540619.65349  -5090088.02847  20664618.612    20664625.223
       242.000         209.000
  22348439.591   -14348415.72249 -11168217.58846  22348439.557    22348444.778
       233.000         176.000
  22783284.017    11202517.12349   8728732.14646  22783283.391    22783288.506
       228.000         175.000
  20448813.483   -15341553.64549 -11934506.61647  20448812.472    20448816.939
       242.000         209.000
  21588279.041     5677759.15649   4428881.81147  21588279.355    21588286.106
       241.000         189.000
  24867406.236    -5359808.96449  -3995748.32545  24867406.143    24867415.796
       206.000         135.000
  23236135.998     -519370.72349   -397076.48246  23236135.968    23236141.327
       223.000         163.000
  24174179.713    -6022881.73849  -4670647.39145  24174179.854    24174194.022
       206.000         142.000
  20597828.631   -10710020.66749  -8337042.44847  20597827.851    20597833.754
       241.000         197.000
  23889305.534    -4224210.60949  -3271213.04245  23889305.068    23889313.207
       218.000         152.000
 02  7  1 17 33 30.0000000  0 10G17G21G23G18G 6G 2G29G 3G15G22
  20663580.542    -6546081.00349  -5094343.62747  20663579.532    20663586.158
       241.000         208.000
  22337979.060   -14403387.23349 -11211052.48846  22337978.299    22337984.939
       234.000         178.000
  22798049.029    11280107.52349   8789192.13846  22798049.189    22798054.206
       230.000         173.000
  20446015.990   -15356254.46749 -11945961.78447  20446015.198    20446019.410
       242.000         209.000
  21603516.757     5757832.16449   4491276.27447  21603516.996    21603523.936
       239.000         191.000
  24865547.442    -5369576.10649  -4003359.10645  24865547.010    24865556.994
       211.000         136.000
  23247677.477     -458720.80149   -349816.83346  23247677.768    23247683.462
       223.000         165.000
  24155713.632    -6119924.53749  -4746265.01945  24155712.278    24155726.093
       205.000         139.000
  20593999.540   -10730142.93649  -8352722.13947  20593998.362    20594004.261
       240.000         197.000
  23896994.152    -4183807.69149  -3239730.33045  23896992.346    23897000.697
       218.000         152.000
 02  7  1 17 34  0.0000000  0 10G17G21G23G18G 6G 2G29G 3G15G22
  20662578.719    -6551345.33349  -5098445.70147  20662578.255    20662584.418
       242.000         209.000
  22327570.859   -14458082.49049 -11253672.15646  22327570.195    22327576.917
       233.000         180.000
  22812830.414    11357783.47349   8849718.79946  22812830.246    22812834.686
       231.000         173.000
  20443296.710   -15370544.40549 -11957096.78747  20443295.991    20443300.221
       241.000         209.000
  21618827.030     5838288.26449   4553969.24947  21618826.408    21618834.120
       242.000         190.000
  24863770.345    -5378920.22549  -4010640.30445  24863771.639    24863778.156
       213.000         137.000
  23259302.688     -397630.15449   -302213.77146  23259302.340    23259307.980
       221.000         165.000
  24137282.407    -6216781.06349  -4821737.52745  24137281.368    24137294.853
       206.000         139.000
  20590211.211   -10750050.73049  -8368234.69747  20590210.844    20590216.307
       242.000         197.000
  23904755.223    -4143023.31749  -3207950.34545  23904754.033    23904761.924
       218.000         155.000
 02  7  1 17 34 30.0000000  0 10G17G21G23G18G 6G 2G29G 3G15G22
  20661614.744    -6556411.20949  -5102393.13947  20661614.242    20661620.349
       242.000         209.000
  22317215.274   -14512500.79549 -11296075.98046  22317214.014    22317222.439
       232.000         182.000
  22827627.779    11435544.07849   8910311.43746  22827626.833    22827632.546
       232.000         175.000
  20440655.561   -15384423.43049 -11967911.60447  20440654.579    20440659.290
       240.000         209.000
  21634210.121     5919126.30349   4616959.84547  21634210.498    21634217.115
       243.000         190.000
  24862072.653    -5387841.16049  -4017591.69845  24862071.216    24862082.895
       209.000         137.000
  23271011.426     -336100.13449   -254268.33445  23271009.925    23271017.242
       218.000         162.000
  24118886.954    -6313448.26549  -4897062.56545  24118885.773    24118897.962
       204.000         139.000
  20586464.112   -10769742.52149  -8383578.94247  20586462.868    20586469.115
       241.000         198.000
  23912588.557    -4101859.02449  -3175874.33345  23912588.899    23912596.765
       219.000         158.000
 02  7  1 17 35  0.0000000  0 10G17G21G23G18G 6G 2G29G 3G15G22
  20660688.749    -6561278.07649  -5106185.50847  20660688.363    20660694.408
       242.000         209.000
  22306912.527   -14566642.02249 -11338263.90446  22306911.976    22306918.818
       234.000         182.000
  22842440.793    11513387.38749   8970968.51146  22842440.118    22842446.413
       232.000         177.000
  20438092.342   -15397892.75649 -11978407.17747  20438091.773    20438095.922
       241.000         209.000
  21649665.698     6000344.35349   4680246.53947  21649665.518    21649671.611
       243.000         189.000
  24860455.416    -5396339.32049  -4024213.62945  24860453.806    24860468.463
       207.000         137.000
  23282803.276     -274132.90449   -205982.21645  23282803.461    23282808.912
       217.000         160.000
  24100528.267    -6409924.05149  -4972238.41345  24100529.391    24100539.883
       210.000         144.000
  20582758.037   -10789217.92549  -8398754.58347  20582756.954    20582762.970
       240.000         198.000
  23920494.056    -4060317.40249  -3143504.31445  23920493.377    23920502.409
       220.000         160.000
 02  7  1 17 35 30.0000000  0 10G17G21G23G18G 6G 2G29G 3G15G22
  20659800.623    -6565946.10949  -5109822.94247  20659799.988    20659806.045
       243.000         209.000
  22296662.196   -14620507.55149 -11380236.97346  22296661.862    22296668.251
       233.000         183.000
  22857269.120    11591310.61649   9031687.86246  22857269.202    22857274.650
       232.000         178.000
  20435606.942   -15410953.81249 -11988584.61947  20435606.044    20435610.363
       241.000         209.000
  21665192.679     6081939.49549   4743827.10346  21665192.309    21665199.142
       242.000         187.000
  24858918.077    -5404416.40049  -4030507.42545  24858917.999    24858929.169
       206.000         137.000
  23294677.982     -211731.38649   -157357.68145  23294677.670    23294684.012
       214.000         157.000
  24082207.241    -6506206.61349  -5047263.71045  24082208.054    24082217.393
       212.000         149.000
  20579092.973   -10808477.08849  -8413761.72047  20579092.381    20579097.577
       240.000         197.000
  23928470.549    -4018401.65549  -3110842.75845  23928468.816    23928477.362
       220.000         160.000
 02  7  1 17 36  0.0000000  0 10G17G21G23G18G 6G 2G29G 3G15G22
  20658950.419    -6570414.01449  -5113304.43447  20658949.927    20658955.683
       242.000         209.000
  22286464.492   -14674097.14549 -11421995.05846  22286463.972    22286470.889
       236.000         185.000
  22872112.487    11669312.57149   9092468.55046  22872111.177    22872118.570
       229.000         178.000
  20433199.188   -15423606.92049 -11998444.17347  20433198.471    20433202.694
       241.000         210.000
  21680791.246     6163910.36449   4807700.43946  21680791.111    21680798.089
       244.000         186.000
  24857461.391    -5412072.33949  -4036473.14745  24857462.027    24857469.384
       215.000         137.000
  23306634.915     -148896.90549   -108395.81545  23306633.723    23306639.941
       213.000         155.000
  24063922.662    -6602293.03049  -5122136.14045  24063922.213    24063932.185
       212.000         150.000
  20575469.561   -10827518.67649  -8428599.31647  20575468.939    20575474.068
       242.000         198.000
  23936517.351    -3976113.77949  -3077891.23345  23936515.125    23936525.543
       218.000         160.000
 02  7  1 17 36 30.0000000  0 10G17G21G23G18G 6G 2G29G 3G15G22
  20658138.688    -6574680.49549  -5116628.96547  20658138.149    20658143.778
       243.000         209.000
  22276319.520   -14727409.78649 -11463537.34246  22276318.905    22276325.674
       236.000         186.000
  22886970.522    11747392.05649   9153309.66946  22886969.701    22886976.257
       227.000         176.000
  20430868.876   -15435852.48149 -12007986.15947  20430867.944    20430871.955
       240.000         209.000
  21696461.168     6246255.55349   4871865.42746  21696461.023    21696466.501
       244.000         185.000
  24856085.682    -5419307.17949  -4042110.78745  24856086.399    24856093.003
       209.000         138.000
  23318673.799      -85630.99549    -59097.74445  23318673.148    23318680.206
       216.000         156.000
  24045675.925    -6698180.28749  -5196853.36445  24045675.405    24045684.623
       214.000         147.000
  20571887.746   -10846341.90849  -8443266.76347  20571886.629    20571892.351
       242.000         198.000
  23944634.664    -3933455.65549  -3044651.22545  23944633.355    23944642.785
       220.000         160.000
 02  7  1 17 37  0.0000000  0 10G17G21G23G18G 6G 2G29G 3G15G22
  20657365.143    -6578745.97649  -5119796.86547  20657364.264    20657370.306
       242.000         208.000
  22266226.930   -14780447.09249 -11504865.08246  22266226.242    22266232.680
       235.000         187.000
  22901842.686    11825546.40649   9214209.12646  22901841.355    22901848.681
       224.000         173.000
  20428615.683   -15447692.41349 -12017212.07347  20428614.644    20428619.309
       239.000         209.000
  21712201.685     6328971.97349   4936319.68646  21712200.936    21712207.386
       242.000         184.000
  24854788.513    -5426122.79949  -4047421.70245  24854782.272    24854797.964
       198.000         137.000
  23330794.682      -21936.96249     -9466.08645  23330793.428    23330800.039
       216.000         157.000
  24027467.375    -6793867.31849  -5271414.61045  24027468.170    24027474.748
       214.000         148.000
  20568347.258   -10864947.13749  -8457764.34247  20568346.500    20568351.668
       242.000         198.000
  23952822.241    -3890430.76049  -3011125.42845  23952822.186    23952830.714
       220.000         162.000
 02  7  1 17 37 30.0000000  0 10G17G21G23G18G 6G 2G29G 3G15G22
  20656630.080    -6582608.77149  -5122806.83747  20656629.173    20656635.264
       240.000         208.000
  22256186.826   -14833207.74349 -11545977.23546  22256185.743    22256192.987
       233.000         186.000
  22916728.948    11903774.85849   9275166.32746  22916728.629    22916734.984
       225.000         173.000
  20426439.732   -15459126.45649 -12026121.71647  20426439.110    20426443.373
       240.000         209.000
  21728012.278     6412058.62149   5001062.44046  21728011.571    21728020.249
       241.000         185.000
  24853570.207    -5432518.69749  -4052405.50845  24853568.083    24853578.491
       207.000         135.000
  23342996.509       42184.26049     40498.46245  23342995.640    23343002.137
       217.000         159.000
  24009297.668    -6889350.71349  -5345817.17345  24009297.659    24009303.219
       214.000         144.000
  20564848.741   -10883332.34049  -8472090.46647  20564847.622    20564853.162
       242.000         199.000
  23961079.388    -3847040.69149  -2977315.06846  23961079.160    23961088.328
       221.000         164.000
 02  7  1 17 38  0.0000000  0 10G17G21G23G18G 6G 2G29G 3G15G22
  20655933.608    -6586268.30549  -5125658.41947  20655932.276    20655938.835
       239.000         207.000
  22246199.146   -14885692.49049 -11586874.40746  22246198.427    22246205.210
       234.000         186.000
  22931629.261    11982075.44949   9336179.74146  22931628.224    22931635.660
       228.000         174.000
  20424340.913   -15470155.97849 -12034716.13647  20424340.563    20424344.926
       242.000         210.000
  21743893.269     6495513.35949   5066092.01946  21743893.226    21743900.847
       241.000         186.000
  24852433.654    -5438495.91949  -4057063.16645  24852436.816    24852441.480
       212.000         135.000
  23355279.253      106730.33749     90794.07545  23355279.037    23355284.518
       220.000         160.000
  23991167.375    -6984628.30449  -5420059.34345  23991167.560    23991174.832
       214.000         143.000
  20561392.091   -10901497.27049  -8486244.95547  20561391.255    20561396.088
       242.000         199.000
  23969405.446    -3803288.19349  -2943222.28146  23969403.887    23969413.551
       221.000         164.000
 02  7  1 17 38 30.0000000  0 10G17G21G23G18G 6G 2G29G 3G15G22
  20655275.745    -6589724.91749  -5128351.87947  20655275.011    20655280.936
       240.000         206.000
  22236264.007   -14937902.26849 -11627557.30946  22236263.455    22236270.728
       234.000         187.000
  22946542.585    12060445.18849   9397247.03846  22946542.659    22946549.467
       228.000         176.000
  20422318.790   -15480782.93749 -12042996.86747  20422318.343    20422322.631
       242.000         211.000
  21759843.885     6579332.90749   5131405.85446  21759843.894    21759850.052
       240.000         186.000
  24851376.501    -5444056.27649  -4061395.98245  24851375.161    24851385.312
       204.000         135.000
  23367642.316      171698.14049    141418.27545  23367641.578    23367647.541
       217.000         160.000
  23973076.588    -7079698.55749  -5494139.93445  23973076.584    23973084.778
       215.000         144.000
  20557977.213   -10919442.53749  -8500228.26947  20557976.259    20557981.572
       242.000         199.000
  23977799.436    -3759176.77249  -2908849.79145  23977797.506    23977809.251
       220.000         162.000
 02  7  1 17 39  0.0000000  0 10G17G21G23G18G 6G 2G29G 3G15G22
  20654656.919    -6592976.88949  -5130885.87647  20654656.329    20654662.053
       241.000         206.000
  22226381.115   -14989836.80749 -11668025.73646  22226380.317    22226387.466
       233.000         187.000
  22961469.155    12138883.77249   9458367.97246  22961469.296    22961475.797
       231.000         178.000
  20420373.271   -15491007.08249 -12050963.72747  20420372.450    20420377.308
       240.000         211.000
  21775863.527     6663516.57449   5197003.43346  21775862.884    21775869.778
       237.000         184.000
  24850397.017    -5449199.26749  -4065403.51745  24850395.319    24850403.645
       203.000         136.000
  23380085.252      237086.63649    192370.32145  23380085.334    23380089.863
       220.000         160.000
  23955026.033    -7174558.05149  -5568056.29845  23955024.642    23955033.159
       212.000         145.000
  20554604.486   -10937166.27849  -8514038.97547  20554603.594    20554609.575
       242.000         199.000
  23986261.584    -3714707.72149  -2874198.66345  23986260.018    23986269.845
       224.000         161.000
 02  7  1 17 39 30.0000000  0 10G17G21G23G18G 6G 2G29G 3G15G22
  20654077.384    -6596022.64549  -5133259.18447  20654076.890    20654082.643
       241.000         206.000
  22216550.792   -15041494.80949 -11708278.69146  22216549.733    22216557.542
       233.000         187.000
  22976408.543    12217389.97949   9519541.60346  22976407.804    22976414.466
       230.000         179.000
  20418504.175   -15500828.70349 -12058616.93447  20418503.094    20418508.005
       237.000         209.000
  21791952.041     6748062.98649   5262883.68646  21791952.445    21791958.375
       238.000         183.000
  24849497.264    -5453924.98049  -4069085.85045  24849498.640    24849506.138
       213.000         135.000
  23392608.063      302894.24749    243648.94145  23392606.346    23392613.299
       218.000         159.000
  23937015.440    -7269203.76749  -5641806.10145  23937014.849    23937021.372
       216.000         149.000
  20551274.132   -10954667.29349  -8527676.11847  20551273.080    20551279.028
       242.000         200.000
  23994791.744    -3669883.02449  -2839270.43845  23994790.972    23994798.069
       221.000         158.000
 02  7  1 17 40  0.0000000  0 10G17G21G23G18G 6G 2G29G 3G15G22
  20653537.108    -6598862.20049  -5135471.82847  20653536.634    20653542.038
       241.000         206.000
  22206772.832   -15092877.57949 -11748317.16346  22206771.942    22206777.965
       232.000         185.000
  22991360.232    12295961.50049   9580766.12546  22991359.443    22991366.483
       229.000         178.000
  20416711.372   -15510249.34749 -12065957.69647  20416710.455    20416715.053
       238.000         209.000
  21808109.409     6832969.25549   5329044.34546  21808109.970    21808116.142
       235.000         182.000
  24848677.985    -5458234.69649  -4072444.13945  24848677.419    24848686.687
       213.000         135.000
  23405210.189      369118.42349    295252.14945  23405209.291    23405215.272
       217.000         158.000
  23919046.025    -7363633.99449  -5715388.00745  23919044.420    23919051.649
       218.000         151.000
  20547986.229   -10971945.33549  -8541139.51447  20547984.776    20547990.672
       241.000         200.000
  24003388.503    -3624705.76249  -2804067.45245  24003386.082    24003394.456
       219.000         155.000
 02  7  1 17 40 30.0000000  0 10G17G21G23G18G 6G 2G29G 3G15G22
  20653036.071    -6601495.03549  -5137523.39447  20653035.531    20653041.575
       242.000         206.000
  22197047.248   -15143985.91949 -11788141.80346  22197046.405    22197053.808
       234.000         186.000
  23006323.899    12374596.20949   9642039.89146  23006323.254    23006329.138
       229.000         177.000
  20414994.719   -15519270.37849 -12072987.05747  20414993.844    20414998.388
       239.000         209.000
  21824334.503     6918232.97849   5395483.54246  21824334.168    21824340.407
       233.000         180.000
  24847937.337    -5462129.77249  -4075479.32045  24847937.051    24847945.375
       213.000         135.000
  23417890.760      435756.45949    347177.87245  23417890.212    23417897.150
       218.000         157.000
  23901117.657    -7457846.47249  -5788800.20945  23901115.542    23901123.764
       217.000         153.000
  20544740.639   -10989000.07149  -8554428.90547  20544739.493    20544745.404
       241.000         199.000
  24012051.591    -3579179.09849  -2768592.16945  24012050.204    24012059.094
       218.000         152.000
 02  7  1 17 41  0.0000000  0 10G17G21G23G18G 6G 2G29G 3G15G22
  20652574.960    -6603918.85649  -5139412.09647  20652574.750    20652579.970
       243.000         207.000
  22187374.384   -15194818.20849 -11827751.32346  22187373.301    22187380.802
       231.000         185.000
  23021299.735    12453294.22149   9703362.97746  23021298.397    23021304.881
       228.000         176.000
  20413354.269   -15527891.00649 -12079704.41247  20413353.649    20413358.132
       240.000         210.000
  21840627.593     7003853.76649   5462200.96346  21840627.049    21840632.555
       234.000         179.000
  24847274.670    -5465609.36349  -4078190.74845  24847269.623    24847281.065
       210.000         134.000
  23430650.211      502808.01249    399425.78945  23430649.199    23430656.898
       219.000         157.000
  23883231.805    -7551837.11749  -5862039.55345  23883230.254    23883238.520
       221.000         155.000
  20541538.110   -11005829.25349  -8567542.53747  20541537.440    20541543.188
       242.000         200.000
  24020781.365    -3533303.71849  -2732845.15845  24020780.280    24020787.890
       219.000         152.000
 02  7  1 17 41 30.0000000  0 10G17G21G23G18G 6G 2G29G 3G15G22
  20652153.701    -6606133.24049  -5141137.59547  20652153.332    20652158.773
       243.000         207.000
  22177753.675   -15245374.79949 -11867146.03246  22177752.122    22177759.703
       230.000         184.000
  23036287.124    12532053.59849   9764733.88646  23036286.041    23036293.216
       226.000         175.000
  20411789.794   -15536112.58849 -12086110.82747  20411789.452    20411793.755
       240.000         210.000
  21856988.082     7089829.23349   5529194.77646  21856988.222    21856995.309
       235.000         180.000
  24846691.004    -5468674.14049  -4080578.89145  24846690.214    24846698.015
       212.000         134.000
  23443488.080      570270.67249    451994.05945  23443488.261    23443493.637
       219.000         160.000
  23865388.831    -7645603.81049  -5935104.40145  23865386.787    23865395.176
       217.000         154.000
  20538378.639   -11022432.39549  -8580480.03747  20538377.837    20538383.595
       242.000         200.000
  24029576.962    -3487082.43249  -2696828.61845  24029574.961    24029586.076
       216.000         151.000
 02  7  1 17 42  0.0000000  0 10G17G21G23G18G 6G 2G29G 3G15G22
  20651772.196    -6608138.66349  -5142700.26547  20651771.786    20651776.996
       244.000         206.000
  22168185.072   -15295657.07149 -11906326.98446  22168184.305    22168190.586
       230.000         183.000
  23051285.654    12610871.21849   9826150.17446  23051284.328    23051292.128
       226.000         174.000
  20410300.805   -15543937.43249 -12092208.10047  20410299.963    20410304.678
       238.000         209.000
  21873415.792     7176155.89349   5596462.22846  21873415.829    21873423.117
       236.000         182.000
  24846186.761    -5471326.44649  -4082645.68445  24846185.933    24846194.614
       214.000         136.000
  23456403.412      638140.64849    504879.71346  23456403.710    23456410.090
       221.000         163.000
  23847588.005    -7739145.43849  -6007993.88945  23847586.909    23847594.587
       211.000         152.000
  20535262.066   -11038810.03349  -8593241.82847  20535261.584    20535266.998
       242.000         201.000
  24038437.264    -3440519.26149  -2660545.70045  24038435.208    24038447.870
       210.000         147.000
 02  7  1 17 42 30.0000000  0 10G17G21G23G18G 6G 2G29G 3G15G22
  20651430.752    -6609933.21749  -5144098.61947  20651429.723    20651434.900
       242.000         205.000
  22158668.823   -15345664.54049 -11945293.79546  22158668.473    22158675.340
       231.000         183.000
  23066295.289    12689746.84149   9887611.64546  23066294.637    23066302.273
       224.000         175.000
  20408887.259   -15551365.19349 -12097995.97647  20408886.892    20408891.161
       239.000         209.000
  21889909.921     7262832.94949   5664002.71846  21889909.121    21889915.759
       236.000         182.000
  24845760.748    -5473566.01249  -4084390.84345  24845757.470    24845766.918
       205.000         136.000
  23469396.187      706417.17449    558082.15346  23469396.265    23469402.350
       219.000         164.000
  23829830.410    -7832458.70849  -6080705.43945  23829829.362    23829837.469
       211.000         148.000
  20532188.924   -11054960.26249  -8605826.41147  20532188.172    20532193.670
       243.000         201.000
  24047362.068    -3393615.53749  -2623997.43645  24047359.070    24047373.032
       209.000         143.000
 02  7  1 17 43  0.0000000  0 10G17G21G23G18G 6G 2G29G 3G15G22
  20651129.391    -6611515.95249  -5145331.91847  20651128.431    20651133.983
       242.000         204.000
  22149205.102   -15395397.66249 -11984046.82446  22149204.835    22149210.964
       232.000         184.000
  23081315.542    12768678.71449   9949116.95346  23081314.748    23081321.858
       223.000         175.000
  20407549.302   -15558396.82449 -12103475.15247  20407548.708    20407552.938
       240.000         209.000
  21906470.300     7349858.16949   5731814.48946  21906471.186    21906476.567
       240.000         184.000
  24845411.862    -5475393.77249  -4085815.05445  24845408.422    24845424.407
       202.000         135.000
  23482465.763      775098.07149    611599.69746  23482465.358    23482471.648
       222.000         165.000
  23812117.579    -7925540.95149  -6153236.94645  23812114.656    23812123.422
       213.000         145.000
  20529159.109   -11070882.42449  -8618233.28447  20529158.289    20529163.852
       242.000         202.000
  24056351.785    -3346373.78849  -2587185.79645  24056352.454    24056362.484
       214.000         144.000
 02  7  1 17 43 30.0000000  0 10G17G21G23G18G 6G 2G29G 3G15G22
  20650868.580    -6612886.71849  -5146400.05547  20650867.822    20650873.162
       244.000         205.000
  22139793.609   -15444856.07649 -12022585.80746  22139792.940    22139800.129
       229.000         184.000
  23096345.905    12847664.82249  10010664.52646  23096344.543    23096352.728
       224.000         175.000
  20406286.395   -15565033.91949 -12108646.90047  20406285.772    20406289.688
       240.000         209.000
  21923096.788     7437229.18149   5799895.70046  21923096.746    21923102.941
       239.000         185.000
  24845141.702    -5476810.64349  -4086919.08145  24845137.619    24845154.997
       207.000         133.000
  23495611.793      844180.72449    665430.29646  23495610.987    23495617.346
       221.000         166.000
  23794448.339    -8018389.89349  -6225586.66145  23794447.647    23794453.130
       216.000         144.000
  20526172.619   -11086576.30549  -8630462.27847  20526171.547    20526177.504
       242.000         202.000
  24065405.788    -3298797.02849  -2550113.08145  24065406.935    24065416.792
       217.000         147.000
 02  7  1 17 44  0.0000000  0 10G17G21G23G18G 6G 2G29G 3G15G22
  20650648.238    -6614044.98449  -5147302.60347  20650647.264    20650652.556
       244.000         206.000
  22130433.999   -15494040.86549 -12060911.57346  22130433.120    22130440.397
       230.000         183.000
  23111386.266    12926703.09549  10072252.75446  23111385.731    23111392.727
       225.000         175.000
  20405098.235   -15571277.81749 -12113512.25647  20405097.665    20405101.680
       240.000         210.000
  21939788.140     7524943.34149   5868244.32346  21939787.721    21939795.496
       238.000         185.000
  24844951.210    -5477818.19449  -4087704.29545  24844950.489    24844954.280
       199.000         132.000
  23508833.845      913662.52749    719571.91946  23508833.933    23508839.507
       221.000         166.000
  23776824.324    -8111003.92049  -6297753.27345  23776823.568    23776830.254
       218.000         147.000
  20523229.649   -11102041.74649  -8642513.26947  20523228.694    20523234.652
       243.000         203.000
  24074523.324    -3250888.26949  -2512781.66145  24074523.384    24074533.586
       213.000         147.000
 02  7  1 17 44 30.0000000  0 10G17G21G23G18G 6G 2G29G 3G15G22
  20650468.245    -6614990.13049  -5148039.09547  20650467.179    20650472.662
       244.000         206.000
  22121126.232   -15542952.45549 -12099024.45346  22121125.224    22121132.513
       230.000         183.000
  23126436.402    13005791.88749  10133880.34246  23126436.121    23126442.912
       228.000         175.000
  20403984.691   -15577129.63749 -12118072.09947  20403984.056    20403988.186
       239.000         209.000
  21956544.435     7612998.46749   5936858.61846  21956544.261    21956551.027
       238.000         186.000
  24844837.130    -5478417.60449  -4088171.43745  24844836.268    24844844.700
       206.000         132.000
  23522131.283      983541.04149    774022.66946  23522130.448    23522137.096
       220.000         164.000
  23759245.642    -8203380.66249  -6369735.02745  23759243.798    23759251.186
       221.000         150.000
  20520330.332   -11117277.88049  -8654385.58047  20520329.342    20520335.242
       244.000         204.000
  24083702.720    -3202650.37849  -2475193.71845  24083700.601    24083712.998
       207.000         143.000
 02  7  1 17 45  0.0000000  0 10G17G21G23G18G 6G 2G29G 3G15G22
  20650329.211    -6615719.99649  -5148607.83447  20650328.015    20650333.196
       244.000         205.000
  22111870.802   -15591589.72549 -12136923.57346  22111869.791    22111876.497
       229.000         182.000
  23141496.185    13084931.10349  10195547.22346  23141495.716    23141502.982
       227.000         174.000
  20402945.778   -15582588.98549 -12122326.12147  20402944.915    20402949.485
       240.000         209.000
  21973365.638     7701393.78249   6005737.99246  21973365.705    21973371.411
       239.000         185.000
  24844800.959    -5478607.94349  -4088319.78745  24844800.473    24844808.809
       203.000         132.000
  23535504.186     1053815.66849    828782.06645  23535503.740    23535509.344
       220.000         162.000
  23741712.679    -8295516.30449  -6441528.91045  23741711.695    23741717.555
       223.000         154.000
  20517475.036   -11132282.60349  -8666077.56347  20517473.938    20517480.109
       243.000         204.000
  24092944.041    -3154084.36949  -2437350.17145  24092943.412    24092950.076
       208.000         137.000
 02  7  1 17 45 30.0000000  0 10G17G21G23G18G 6G 2G29G 3G15G22
  20650231.297    -6616233.97649  -5149008.34947  20650230.163    20650235.537
       243.000         204.000
  22102667.536   -15639952.83849 -12174609.07646  22102666.342    22102673.943
       229.000         183.000
  23156565.019    13164118.92049  10257251.97046  23156564.094    23156570.931
       228.000         172.000
  20401981.227   -15587657.41149 -12126275.53647  20401980.603    20401984.833
       240.000         209.000
  21990251.067     7790126.65349   6074880.39146  21990250.077    21990256.298
       237.000         183.000
  24844842.013    -5478390.78749  -4088150.62045  24844837.887    24844849.031
       202.000         133.000
  23548951.816     1124483.58949    883847.93645  23548950.841    23548956.488
       219.000         158.000
  23724226.220    -8387408.47049  -6513133.09045  23724225.670    23724231.578
       222.000         159.000
  20514663.788   -11147055.48949  -8677588.89747  20514662.814    20514668.584
       242.000         204.000
  24102247.850    -3105193.30449  -2399253.33845  24102247.681    24102257.009
       210.000         134.000
 02  7  1 17 46  0.0000000  0 10G17G21G23G18G 6G 2G29G 3G15G22
  20650174.398    -6616532.14449  -5149240.70047  20650173.562    20650179.240
       243.000         204.000
  22093516.207   -15688043.50749 -12212082.28846  22093516.077    22093521.354
       233.000         184.000
  23171643.075    13243353.12649  10318992.84446  23171642.785    23171648.631
       226.000         170.000
  20401090.881   -15592336.32049 -12129921.43147  20401090.219    20401094.518
       241.000         209.000
  22007199.997     7879194.40649   6144283.76446  22007199.683    22007207.057
       237.000         182.000
  24844960.267    -5477767.49549  -4087664.97345  24844961.671    24844971.149
       209.000         134.000
  23562473.644     1195542.14449    939218.19545  23562472.770    23562477.340
       217.000         155.000
  23706786.123    -8479055.22949  -6584546.05245  23706784.944    23706793.216
       220.000         162.000
  20511896.719   -11161596.34949  -8688919.43147  20511895.940    20511901.300
       243.000         205.000
  24111613.286    -3055980.38149  -2360905.72145  24111614.127    24111620.915
       207.000         134.000
 02  7  1 17 46 30.0000000  0 10G17G21G23G18G 6G 2G29G 3G15G22
  20650159.135    -6616612.83149  -5149303.56847  20650158.872    20650163.993
       244.000         205.000
  22084416.918   -15735861.50149 -12249343.02046  22084416.147    22084422.955
       232.000         185.000
  23186729.440    13322632.39649  10380768.86446  23186728.822    23186736.358
       222.000         167.000
  20400274.534   -15596626.26049 -12133264.22347  20400273.854    20400278.028
       242.000         210.000
  22024212.629     7968595.59949   6213946.96046  22024212.965    22024219.806
       236.000         182.000
  24845156.771    -5476738.64749  -4086863.31745  24845155.547    24845164.954
       213.000         137.000
  23576069.456     1266989.54249    994891.44445  23576068.807    23576074.853
       218.000         154.000
  23689393.373    -8570453.75049  -6655765.58845  23689391.256    23689400.942
       217.000         161.000
  20509174.028   -11175904.11549  -8700068.33047  20509173.045    20509178.906
       242.000         205.000
  24121039.290    -3006447.85049  -2322309.00645  24121038.552    24121044.988
       205.000         134.000
 02  7  1 17 47  0.0000000  0 10G17G21G23G18G 6G 2G29G 3G15G22
  20650185.308    -6616475.69549  -5149196.71147  20650184.385    20650190.307
       242.000         205.000
  22075369.219   -15783406.92449 -12286391.37046  22075368.740    22075375.241
       233.000         186.000
  23201823.858    13401955.01549  10442578.66946  23201821.423    23201830.674
       221.000         165.000
  20399531.908   -15600528.71849 -12136305.07947  20399531.208    20399535.462
       242.000         210.000
  22041288.117     8058327.50349   6283867.82846  22041288.543    22041295.895
       236.000         182.000
  24845429.583    -5475305.41649  -4085746.61445  24845428.748    24845436.860
       206.000         137.000
  23589738.984     1338823.16649   1050865.65845  23589738.954    23589744.489
       220.000         156.000
  23672047.965    -8661601.88649  -6726790.02745  23672045.024    23672055.380
       213.000         160.000
  20506495.773   -11189978.33849  -8711035.24947  20506494.369    20506500.869
       242.000         205.000
  24130525.255    -2956598.53149  -2283465.42644  24130523.206    24130532.092
       203.000         131.000
 02  7  1 17 47 30.0000000  0 10G17G21G23G18G 6G 2G29G 3G15G22
  20650253.260    -6616118.55449  -5148918.42147  20650252.498    20650258.372
       243.000         205.000
  22066373.790   -15830678.69349 -12323226.47846  22066372.658    22066379.343
       233.000         186.000
  23216926.755    13481320.95349  10504422.24846  23216925.837    23216932.671
       222.000         165.000
  20398863.095   -15604043.27249 -12139043.67247  20398862.371    20398866.611
       241.000         210.000
  22058426.389     8148389.25149   6354045.73946  22058425.850    22058432.828
       234.000         179.000
  24845778.664    -5473467.37149  -4084314.37045  24845777.406    24845787.575
       207.000         133.000
  23603481.775     1411042.21949   1107140.21945  23603480.990    23603488.406
       221.000         157.000
  23654750.675    -8752495.54849  -6797616.17445  23654748.918    23654759.174
       211.000         157.000
  20503862.375   -11203816.72249  -8721818.39847  20503861.202    20503867.597
       242.000         205.000
  24140071.616    -2906433.81949  -2244376.11944  24140071.266    24140079.506
       208.000         131.000
 02  7  1 17 48  0.0000000  0 10G17G21G23G18G 6G 2G29G 3G15G22
  20650362.971    -6615541.98049  -5148469.14947  20650362.252    20650368.027
       243.000         206.000
  22057430.039   -15877678.38849 -12359849.58247  22057429.010    22057436.454
       235.000         188.000
  23232037.275    13560727.39649  10566297.34646  23232036.306    23232043.120
       222.000         167.000
  20398267.616   -15607172.35749 -12141481.90847  20398266.774    20398271.041
       241.000         209.000
  22075626.612     8238777.21649   6424477.80646  22075626.921    22075632.335
       235.000         176.000
  24846205.548    -5471226.88549  -4082568.59644  24846206.019    24846213.030
       210.000         130.000
  23617297.611     1483642.92849   1163712.15845  23617296.866    23617305.072
       222.000         160.000
  23637501.992    -8843133.98349  -6868243.47245  23637501.978    23637510.117
       211.000         155.000
  20501273.779   -11217419.94849  -8732418.31047  20501273.064    20501278.954
       242.000         205.000
  24149677.379    -2855957.68849  -2205044.22144  24149676.317    24149682.724
       203.000         131.000
 02  7  1 17 48 30.0000000  0 10G17G21G23G18G 6G 2G29G 3G15G22
  20650514.601    -6614745.39549  -5147848.43447  20650513.827    20650519.859
       243.000         207.000
  22048537.803   -15924406.94849 -12396261.40347  22048536.506    22048543.701
       233.000         190.000
  23247155.341    13640172.18449  10628202.34246  23247154.360    23247160.805
       223.000         168.000
  20397745.177   -15609917.69349 -12143621.11647  20397744.265    20397748.658
       242.000         209.000
  22092888.860     8329489.04749   6495162.27946  22092888.971    22092894.842
       235.000         175.000
  24846708.778    -5468585.55849  -4080510.54644  24846709.101    24846714.109
       209.000         127.000
  23631185.246     1556622.87349   1220579.59045  23631184.481    23631191.303
       219.000         162.000
  23620303.107    -8933515.21049  -6938670.31045  23620302.795    23620311.397
       213.000         155.000
  20498729.998   -11230787.64249  -8742834.68947  20498729.385    20498735.242
       241.000         205.000
  24159340.364    -2805173.17949  -2165471.94644  24159336.439    24159347.833
       202.000         131.000
 02  7  1 17 49  0.0000000  0 10G17G21G23G18G 6G 2G29G 3G15G22
  20650708.334    -6613726.95449  -5147054.84847  20650707.792    20650713.495
       245.000         208.000
  22039697.012   -15970863.58949 -12432461.34947  22039695.356    22039703.915
       233.000         190.000
  23262280.595    13719654.95549  10690136.91346  23262279.609    23262286.424
       220.000         167.000
  20397295.746   -15612279.29149 -12145461.30747  20397294.997    20397299.327
       243.000         209.000
  22110212.093     8420523.55349   6566098.16746  22110210.440    22110218.058
       230.000         172.000
  24847287.702    -5465543.23849  -4078139.95944  24847285.482    24847295.072
       209.000         129.000
  23645144.684     1629980.74749   1277741.51346  23645145.456    23645151.742
       220.000         163.000
  23603153.964    -9023635.35249  -7008893.70245  23603154.006    23603162.758
       217.000         157.000
  20496231.401   -11243917.99649  -8753066.12947  20496230.735    20496236.484
       241.000         205.000
  24169062.993    -2754081.84749  -2125660.57845  24169062.007    24169073.188
       204.000         133.000
 02  7  1 17 49 30.0000000  0 10G17G21G23G18G 6G 2G29G 3G15G22
  20650944.616    -6612485.86249  -5146087.76147  20650943.969    20650949.539
       245.000         209.000
  22030908.023   -16017048.82049 -12468449.80047  22030907.570    22030914.317
       236.000         190.000
  23277412.572    13799174.30449  10752099.98446  23277411.094    23277419.823
       217.000         166.000
  20396919.136   -15614258.13249 -12147003.24447  20396918.427    20396922.771
       244.000         210.000
  22127596.281     8511878.57349   6637283.82546  22127596.873    22127602.794
       232.000         171.000
  24847942.122    -5462101.02449  -4075457.69745  24847939.749    24847954.462
       207.000         132.000
  23659175.867     1703714.19949   1335196.09646  23659175.294    23659182.448
       218.000         163.000
  23586054.946    -9113492.16849  -7078911.88745  23586054.864    23586062.931
       215.000         158.000
  20493778.152   -11256810.24649  -8763112.03047  20493777.293    20493783.130
       240.000         205.000
  24178843.519    -2702686.48749  -2085612.30445  24178844.714    24178852.484
       210.000         137.000
